<?xml version='1.0' encoding='UTF-8'?><gpx version="1.1" creator="JPX - https://github.com/jenetics/jpx" xmlns="http://www.topografix.com/GPX/1/1"><trk><trkseg><trkpt lat="45.9648739" lon="13.1206793"><ele>42.0</ele><time>2026-04-19T08:17:13.341Z</time></trkpt><trkpt lat="45.9647957" lon="13.1205875"><ele>42.0</ele><time>2026-04-19T08:17:17.339Z</time></trkpt><trkpt lat="45.9647441" lon="13.1205077"><ele>42.0</ele><time>2026-04-19T08:17:20.355Z</time></trkpt><trkpt lat="45.9647485" lon="13.1204041"><ele>42.0</ele><time>2026-04-19T08:17:25.347Z</time></trkpt><trkpt lat="45.9648142" lon="13.1202936"><ele>42.0</ele><time>2026-04-19T08:17:40.342Z</time></trkpt><trkpt lat="45.9648659" lon="13.1201982"><ele>42.0</ele><time>2026-04-19T08:17:42.341Z</time></trkpt><trkpt lat="45.9649026" lon="13.1201198"><ele>42.0</ele><time>2026-04-19T08:17:44.342Z</time></trkpt><trkpt lat="45.9649441" lon="13.1200461"><ele>42.0</ele><time>2026-04-19T08:17:46.34Z</time></trkpt><trkpt lat="45.9649969" lon="13.1199557"><ele>42.0</ele><time>2026-04-19T08:17:49.34Z</time></trkpt><trkpt lat="45.9650269" lon="13.1198224"><ele>42.0</ele><time>2026-04-19T08:17:52.343Z</time></trkpt><trkpt lat="45.965023" lon="13.1196915"><ele>42.0</ele><time>2026-04-19T08:17:54.338Z</time></trkpt><trkpt lat="45.9649985" lon="13.1195824"><ele>42.0</ele><time>2026-04-19T08:17:56.344Z</time></trkpt><trkpt lat="45.9649803" lon="13.1194201"><ele>41.833333333333336</ele><time>2026-04-19T08:17:58.343Z</time></trkpt><trkpt lat="45.9649685" lon="13.1192576"><ele>41.666666666666664</ele><time>2026-04-19T08:18:00.358Z</time></trkpt><trkpt lat="45.9649617" lon="13.1191638"><ele>41.5</ele><time>2026-04-19T08:18:01.335Z</time></trkpt><trkpt lat="45.9649397" lon="13.1190259"><ele>41.33333333333333</ele><time>2026-04-19T08:18:03.335Z</time></trkpt><trkpt lat="45.9649346" lon="13.1189197"><ele>41.166666666666664</ele><time>2026-04-19T08:18:06.341Z</time></trkpt><trkpt lat="45.9649553" lon="13.1188046"><ele>41.0</ele><time>2026-04-19T08:18:08.338Z</time></trkpt><trkpt lat="45.9650052" lon="13.1186361"><ele>40.99999999999999</ele><time>2026-04-19T08:18:10.345Z</time></trkpt><trkpt lat="45.9650253" lon="13.1185441"><ele>41.0</ele><time>2026-04-19T08:18:11.35Z</time></trkpt><trkpt lat="45.9650508" lon="13.1184546"><ele>41.0</ele><time>2026-04-19T08:18:12.34Z</time></trkpt><trkpt lat="45.9650757" lon="13.1183619"><ele>41.0</ele><time>2026-04-19T08:18:13.335Z</time></trkpt><trkpt lat="45.9651052" lon="13.1182636"><ele>41.0</ele><time>2026-04-19T08:18:14.349Z</time></trkpt><trkpt lat="45.9651319" lon="13.118154"><ele>40.99999999999999</ele><time>2026-04-19T08:18:15.33Z</time></trkpt><trkpt lat="45.9651638" lon="13.1180439"><ele>41.0</ele><time>2026-04-19T08:18:16.35Z</time></trkpt><trkpt lat="45.9652048" lon="13.1179433"><ele>41.0</ele><time>2026-04-19T08:18:17.344Z</time></trkpt><trkpt lat="45.965259" lon="13.1178361"><ele>41.0</ele><time>2026-04-19T08:18:18.342Z</time></trkpt><trkpt lat="45.9653112" lon="13.1177215"><ele>41.0</ele><time>2026-04-19T08:18:19.334Z</time></trkpt><trkpt lat="45.9653756" lon="13.117612"><ele>41.0</ele><time>2026-04-19T08:18:20.355Z</time></trkpt><trkpt lat="45.9654555" lon="13.1175128"><ele>41.0</ele><time>2026-04-19T08:18:21.338Z</time></trkpt><trkpt lat="45.9655399" lon="13.1174268"><ele>41.199999999999996</ele><time>2026-04-19T08:18:22.334Z</time></trkpt><trkpt lat="45.9656291" lon="13.117348"><ele>41.4</ele><time>2026-04-19T08:18:23.342Z</time></trkpt><trkpt lat="45.9657229" lon="13.1172766"><ele>41.6</ele><time>2026-04-19T08:18:24.347Z</time></trkpt><trkpt lat="45.9658126" lon="13.1172059"><ele>41.8</ele><time>2026-04-19T08:18:25.343Z</time></trkpt><trkpt lat="45.9659115" lon="13.1171343"><ele>42.0</ele><time>2026-04-19T08:18:26.365Z</time></trkpt><trkpt lat="45.9659976" lon="13.1170748"><ele>42.166666666666664</ele><time>2026-04-19T08:18:27.344Z</time></trkpt><trkpt lat="45.966076" lon="13.1170135"><ele>42.333333333333336</ele><time>2026-04-19T08:18:28.35Z</time></trkpt><trkpt lat="45.9661452" lon="13.1169574"><ele>42.5</ele><time>2026-04-19T08:18:29.344Z</time></trkpt><trkpt lat="45.9662068" lon="13.1169072"><ele>42.66666666666667</ele><time>2026-04-19T08:18:30.351Z</time></trkpt><trkpt lat="45.966262" lon="13.1168604"><ele>42.833333333333336</ele><time>2026-04-19T08:18:31.348Z</time></trkpt><trkpt lat="45.9663339" lon="13.11677"><ele>43.0</ele><time>2026-04-19T08:18:33.337Z</time></trkpt><trkpt lat="45.9663585" lon="13.1166514"><ele>42.8</ele><time>2026-04-19T08:18:36.353Z</time></trkpt><trkpt lat="45.9663126" lon="13.1165151"><ele>42.599999999999994</ele><time>2026-04-19T08:18:38.339Z</time></trkpt><trkpt lat="45.9662321" lon="13.1163929"><ele>42.400000000000006</ele><time>2026-04-19T08:18:40.345Z</time></trkpt><trkpt lat="45.96619" lon="13.1163094"><ele>42.2</ele><time>2026-04-19T08:18:41.335Z</time></trkpt><trkpt lat="45.9661448" lon="13.1162041"><ele>42.0</ele><time>2026-04-19T08:18:42.345Z</time></trkpt><trkpt lat="45.9660963" lon="13.1160888"><ele>42.0</ele><time>2026-04-19T08:18:43.327Z</time></trkpt><trkpt lat="45.9660429" lon="13.115971"><ele>42.0</ele><time>2026-04-19T08:18:44.353Z</time></trkpt><trkpt lat="45.9659908" lon="13.1158401"><ele>42.0</ele><time>2026-04-19T08:18:45.335Z</time></trkpt><trkpt lat="45.9659389" lon="13.115707"><ele>42.0</ele><time>2026-04-19T08:18:46.334Z</time></trkpt><trkpt lat="45.9658849" lon="13.115578"><ele>42.0</ele><time>2026-04-19T08:18:47.346Z</time></trkpt><trkpt lat="45.9658275" lon="13.1154434"><ele>41.8</ele><time>2026-04-19T08:18:48.337Z</time></trkpt><trkpt lat="45.9657685" lon="13.1153085"><ele>41.6</ele><time>2026-04-19T08:18:49.338Z</time></trkpt><trkpt lat="45.9657159" lon="13.1151725"><ele>41.4</ele><time>2026-04-19T08:18:50.358Z</time></trkpt><trkpt lat="45.9656664" lon="13.1150336"><ele>41.199999999999996</ele><time>2026-04-19T08:18:51.351Z</time></trkpt><trkpt lat="45.9656271" lon="13.1148862"><ele>41.0</ele><time>2026-04-19T08:18:52.334Z</time></trkpt><trkpt lat="45.9655836" lon="13.1147469"><ele>40.8</ele><time>2026-04-19T08:18:53.325Z</time></trkpt><trkpt lat="45.9655385" lon="13.1146066"><ele>40.599999999999994</ele><time>2026-04-19T08:18:54.351Z</time></trkpt><trkpt lat="45.9654895" lon="13.114465"><ele>40.4</ele><time>2026-04-19T08:18:55.338Z</time></trkpt><trkpt lat="45.9654412" lon="13.1143263"><ele>40.2</ele><time>2026-04-19T08:18:56.345Z</time></trkpt><trkpt lat="45.9653867" lon="13.1141917"><ele>40.0</ele><time>2026-04-19T08:18:57.339Z</time></trkpt><trkpt lat="45.9653264" lon="13.1140564"><ele>40.0</ele><time>2026-04-19T08:18:58.346Z</time></trkpt><trkpt lat="45.9652619" lon="13.1139271"><ele>40.0</ele><time>2026-04-19T08:18:59.334Z</time></trkpt><trkpt lat="45.9651935" lon="13.1138021"><ele>40.0</ele><time>2026-04-19T08:19:00.343Z</time></trkpt><trkpt lat="45.9651161" lon="13.1136719"><ele>40.0</ele><time>2026-04-19T08:19:01.33Z</time></trkpt><trkpt lat="45.96504" lon="13.1135467"><ele>40.25</ele><time>2026-04-19T08:19:02.336Z</time></trkpt><trkpt lat="45.9649631" lon="13.1134122"><ele>40.5</ele><time>2026-04-19T08:19:03.337Z</time></trkpt><trkpt lat="45.9648926" lon="13.1132794"><ele>40.75</ele><time>2026-04-19T08:19:04.339Z</time></trkpt><trkpt lat="45.964826" lon="13.1131524"><ele>41.0</ele><time>2026-04-19T08:19:05.334Z</time></trkpt><trkpt lat="45.9647594" lon="13.1130176"><ele>41.199999999999996</ele><time>2026-04-19T08:19:06.334Z</time></trkpt><trkpt lat="45.9647055" lon="13.11289"><ele>41.4</ele><time>2026-04-19T08:19:07.341Z</time></trkpt><trkpt lat="45.9646449" lon="13.1127797"><ele>41.6</ele><time>2026-04-19T08:19:08.345Z</time></trkpt><trkpt lat="45.9645866" lon="13.1126674"><ele>41.8</ele><time>2026-04-19T08:19:09.347Z</time></trkpt><trkpt lat="45.9645219" lon="13.1125392"><ele>42.0</ele><time>2026-04-19T08:19:10.342Z</time></trkpt><trkpt lat="45.9644637" lon="13.1124097"><ele>41.4</ele><time>2026-04-19T08:19:11.339Z</time></trkpt><trkpt lat="45.9644261" lon="13.1122804"><ele>40.800000000000004</ele><time>2026-04-19T08:19:12.348Z</time></trkpt><trkpt lat="45.9644059" lon="13.112134"><ele>40.2</ele><time>2026-04-19T08:19:13.335Z</time></trkpt><trkpt lat="45.9643873" lon="13.1119796"><ele>39.6</ele><time>2026-04-19T08:19:14.333Z</time></trkpt><trkpt lat="45.9643657" lon="13.1118384"><ele>39.0</ele><time>2026-04-19T08:19:15.335Z</time></trkpt><trkpt lat="45.9643439" lon="13.1116996"><ele>39.0</ele><time>2026-04-19T08:19:16.336Z</time></trkpt><trkpt lat="45.9643085" lon="13.1115857"><ele>39.0</ele><time>2026-04-19T08:19:17.334Z</time></trkpt><trkpt lat="45.9642543" lon="13.1114817"><ele>39.0</ele><time>2026-04-19T08:19:18.343Z</time></trkpt><trkpt lat="45.9641892" lon="13.1113828"><ele>39.0</ele><time>2026-04-19T08:19:19.337Z</time></trkpt><trkpt lat="45.9641218" lon="13.1112946"><ele>39.0</ele><time>2026-04-19T08:19:20.33Z</time></trkpt><trkpt lat="45.9640642" lon="13.1112199"><ele>39.0</ele><time>2026-04-19T08:19:21.331Z</time></trkpt><trkpt lat="45.964007" lon="13.1111549"><ele>39.4</ele><time>2026-04-19T08:19:22.337Z</time></trkpt><trkpt lat="45.9639195" lon="13.1110743"><ele>39.8</ele><time>2026-04-19T08:19:24.338Z</time></trkpt><trkpt lat="45.9638244" lon="13.1111314"><ele>40.199999999999996</ele><time>2026-04-19T08:19:26.342Z</time></trkpt><trkpt lat="45.9637193" lon="13.1112423"><ele>40.599999999999994</ele><time>2026-04-19T08:19:28.338Z</time></trkpt><trkpt lat="45.9636528" lon="13.111316"><ele>41.0</ele><time>2026-04-19T08:19:29.342Z</time></trkpt><trkpt lat="45.9635876" lon="13.1113795"><ele>41.0</ele><time>2026-04-19T08:19:30.335Z</time></trkpt><trkpt lat="45.9635198" lon="13.1114463"><ele>41.0</ele><time>2026-04-19T08:19:31.325Z</time></trkpt><trkpt lat="45.9634499" lon="13.1115156"><ele>41.0</ele><time>2026-04-19T08:19:32.329Z</time></trkpt><trkpt lat="45.9633761" lon="13.1115935"><ele>41.0</ele><time>2026-04-19T08:19:33.331Z</time></trkpt><trkpt lat="45.9633039" lon="13.1116699"><ele>41.0</ele><time>2026-04-19T08:19:34.344Z</time></trkpt><trkpt lat="45.9632285" lon="13.1117344"><ele>41.0</ele><time>2026-04-19T08:19:35.342Z</time></trkpt><trkpt lat="45.96315" lon="13.1117836"><ele>41.0</ele><time>2026-04-19T08:19:36.328Z</time></trkpt><trkpt lat="45.9630728" lon="13.1118248"><ele>41.0</ele><time>2026-04-19T08:19:37.337Z</time></trkpt><trkpt lat="45.9629957" lon="13.1118694"><ele>41.0</ele><time>2026-04-19T08:19:38.336Z</time></trkpt><trkpt lat="45.9629188" lon="13.1119163"><ele>41.0</ele><time>2026-04-19T08:19:39.348Z</time></trkpt><trkpt lat="45.9628456" lon="13.1119563"><ele>41.0</ele><time>2026-04-19T08:19:40.341Z</time></trkpt><trkpt lat="45.9627783" lon="13.1119921"><ele>41.0</ele><time>2026-04-19T08:19:41.336Z</time></trkpt><trkpt lat="45.9626786" lon="13.112039"><ele>41.0</ele><time>2026-04-19T08:19:43.337Z</time></trkpt><trkpt lat="45.9626076" lon="13.112032"><ele>41.0</ele><time>2026-04-19T08:19:45.341Z</time></trkpt><trkpt lat="45.9625655" lon="13.1121102"><ele>41.0</ele><time>2026-04-19T08:21:03.348Z</time></trkpt><trkpt lat="45.9624789" lon="13.1121663"><ele>41.0</ele><time>2026-04-19T08:21:05.335Z</time></trkpt><trkpt lat="45.9623711" lon="13.1122423"><ele>41.0</ele><time>2026-04-19T08:21:07.345Z</time></trkpt><trkpt lat="45.9623006" lon="13.1122797"><ele>41.0</ele><time>2026-04-19T08:21:08.352Z</time></trkpt><trkpt lat="45.9622274" lon="13.1123233"><ele>41.0</ele><time>2026-04-19T08:21:09.335Z</time></trkpt><trkpt lat="45.9621573" lon="13.1123614"><ele>41.0</ele><time>2026-04-19T08:21:10.344Z</time></trkpt><trkpt lat="45.9620859" lon="13.11241"><ele>41.0</ele><time>2026-04-19T08:21:11.345Z</time></trkpt><trkpt lat="45.9620101" lon="13.1124603"><ele>41.0</ele><time>2026-04-19T08:21:12.342Z</time></trkpt><trkpt lat="45.9619251" lon="13.1125093"><ele>41.0</ele><time>2026-04-19T08:21:13.35Z</time></trkpt><trkpt lat="45.9618363" lon="13.1125597"><ele>41.0</ele><time>2026-04-19T08:21:14.35Z</time></trkpt><trkpt lat="45.9617441" lon="13.1126222"><ele>40.599999999999994</ele><time>2026-04-19T08:21:15.357Z</time></trkpt><trkpt lat="45.9616563" lon="13.1126821"><ele>40.199999999999996</ele><time>2026-04-19T08:21:16.349Z</time></trkpt><trkpt lat="45.9615597" lon="13.1127461"><ele>39.8</ele><time>2026-04-19T08:21:17.347Z</time></trkpt><trkpt lat="45.9614592" lon="13.1128047"><ele>39.4</ele><time>2026-04-19T08:21:18.34Z</time></trkpt><trkpt lat="45.9613592" lon="13.112869"><ele>39.0</ele><time>2026-04-19T08:21:19.343Z</time></trkpt><trkpt lat="45.9612512" lon="13.1129304"><ele>39.0</ele><time>2026-04-19T08:21:20.344Z</time></trkpt><trkpt lat="45.9611387" lon="13.1129935"><ele>39.0</ele><time>2026-04-19T08:21:21.334Z</time></trkpt><trkpt lat="45.9610213" lon="13.1130587"><ele>39.0</ele><time>2026-04-19T08:21:22.342Z</time></trkpt><trkpt lat="45.9609005" lon="13.1131128"><ele>39.0</ele><time>2026-04-19T08:21:23.335Z</time></trkpt><trkpt lat="45.9607796" lon="13.113163"><ele>39.25</ele><time>2026-04-19T08:21:24.342Z</time></trkpt><trkpt lat="45.9606596" lon="13.1131939"><ele>39.5</ele><time>2026-04-19T08:21:25.338Z</time></trkpt><trkpt lat="45.9605387" lon="13.1132283"><ele>39.75</ele><time>2026-04-19T08:21:26.337Z</time></trkpt><trkpt lat="45.9604145" lon="13.1132556"><ele>40.0</ele><time>2026-04-19T08:21:27.341Z</time></trkpt><trkpt lat="45.9602879" lon="13.1132729"><ele>40.25</ele><time>2026-04-19T08:21:28.335Z</time></trkpt><trkpt lat="45.9601592" lon="13.1132905"><ele>40.5</ele><time>2026-04-19T08:21:29.332Z</time></trkpt><trkpt lat="45.9600199" lon="13.1132968"><ele>40.75</ele><time>2026-04-19T08:21:30.343Z</time></trkpt><trkpt lat="45.9598798" lon="13.1133126"><ele>41.0</ele><time>2026-04-19T08:21:31.34Z</time></trkpt><trkpt lat="45.9597422" lon="13.1133233"><ele>40.25</ele><time>2026-04-19T08:21:32.359Z</time></trkpt><trkpt lat="45.9596049" lon="13.1133277"><ele>39.5</ele><time>2026-04-19T08:21:33.346Z</time></trkpt><trkpt lat="45.959466" lon="13.1133233"><ele>38.75</ele><time>2026-04-19T08:21:34.335Z</time></trkpt><trkpt lat="45.9593246" lon="13.1133176"><ele>38.0</ele><time>2026-04-19T08:21:35.348Z</time></trkpt><trkpt lat="45.9591818" lon="13.1132998"><ele>37.75</ele><time>2026-04-19T08:21:36.342Z</time></trkpt><trkpt lat="45.9590416" lon="13.1132749"><ele>37.5</ele><time>2026-04-19T08:21:37.349Z</time></trkpt><trkpt lat="45.9589" lon="13.1132418"><ele>37.25</ele><time>2026-04-19T08:21:38.341Z</time></trkpt><trkpt lat="45.9587594" lon="13.1132005"><ele>37.0</ele><time>2026-04-19T08:21:39.335Z</time></trkpt><trkpt lat="45.9586164" lon="13.1131607"><ele>37.0</ele><time>2026-04-19T08:21:40.334Z</time></trkpt><trkpt lat="45.9584702" lon="13.1131125"><ele>37.0</ele><time>2026-04-19T08:21:41.339Z</time></trkpt><trkpt lat="45.9583229" lon="13.1130572"><ele>37.0</ele><time>2026-04-19T08:21:42.336Z</time></trkpt><trkpt lat="45.9581769" lon="13.1129982"><ele>37.0</ele><time>2026-04-19T08:21:43.355Z</time></trkpt><trkpt lat="45.9580333" lon="13.1129337"><ele>37.0</ele><time>2026-04-19T08:21:44.343Z</time></trkpt><trkpt lat="45.9578891" lon="13.1128763"><ele>37.0</ele><time>2026-04-19T08:21:45.335Z</time></trkpt><trkpt lat="45.9577442" lon="13.112812"><ele>37.0</ele><time>2026-04-19T08:21:46.344Z</time></trkpt><trkpt lat="45.9575944" lon="13.1127471"><ele>37.0</ele><time>2026-04-19T08:21:47.339Z</time></trkpt><trkpt lat="45.9574471" lon="13.1126833"><ele>37.0</ele><time>2026-04-19T08:21:48.349Z</time></trkpt><trkpt lat="45.9572973" lon="13.112617"><ele>37.0</ele><time>2026-04-19T08:21:49.338Z</time></trkpt><trkpt lat="45.9571461" lon="13.1125537"><ele>37.0</ele><time>2026-04-19T08:21:50.338Z</time></trkpt><trkpt lat="45.9569973" lon="13.1124925"><ele>37.0</ele><time>2026-04-19T08:21:51.337Z</time></trkpt><trkpt lat="45.956841" lon="13.1124216"><ele>36.66666666666667</ele><time>2026-04-19T08:21:52.333Z</time></trkpt><trkpt lat="45.9566845" lon="13.1123538"><ele>36.333333333333336</ele><time>2026-04-19T08:21:53.338Z</time></trkpt><trkpt lat="45.9565296" lon="13.1122792"><ele>36.0</ele><time>2026-04-19T08:21:54.344Z</time></trkpt><trkpt lat="45.9563756" lon="13.1122087"><ele>36.0</ele><time>2026-04-19T08:21:55.339Z</time></trkpt><trkpt lat="45.9562187" lon="13.1121447"><ele>36.0</ele><time>2026-04-19T08:21:56.334Z</time></trkpt><trkpt lat="45.9560669" lon="13.1120794"><ele>36.0</ele><time>2026-04-19T08:21:57.347Z</time></trkpt><trkpt lat="45.955911" lon="13.1120102"><ele>35.666666666666664</ele><time>2026-04-19T08:21:58.336Z</time></trkpt><trkpt lat="45.9557512" lon="13.1119329"><ele>35.33333333333333</ele><time>2026-04-19T08:21:59.35Z</time></trkpt><trkpt lat="45.9555984" lon="13.111853"><ele>35.0</ele><time>2026-04-19T08:22:00.344Z</time></trkpt><trkpt lat="45.955443" lon="13.1117613"><ele>35.0</ele><time>2026-04-19T08:22:01.338Z</time></trkpt><trkpt lat="45.9552867" lon="13.1116629"><ele>35.0</ele><time>2026-04-19T08:22:02.324Z</time></trkpt><trkpt lat="45.9551337" lon="13.111565"><ele>35.0</ele><time>2026-04-19T08:22:03.343Z</time></trkpt><trkpt lat="45.9549822" lon="13.1114613"><ele>34.666666666666664</ele><time>2026-04-19T08:22:04.335Z</time></trkpt><trkpt lat="45.9548261" lon="13.1113519"><ele>34.333333333333336</ele><time>2026-04-19T08:22:05.344Z</time></trkpt><trkpt lat="45.9546696" lon="13.1112462"><ele>34.0</ele><time>2026-04-19T08:22:06.333Z</time></trkpt><trkpt lat="45.9545087" lon="13.1111404"><ele>34.0</ele><time>2026-04-19T08:22:07.341Z</time></trkpt><trkpt lat="45.9543502" lon="13.1110366"><ele>34.0</ele><time>2026-04-19T08:22:08.34Z</time></trkpt><trkpt lat="45.9541917" lon="13.110936"><ele>34.0</ele><time>2026-04-19T08:22:09.342Z</time></trkpt><trkpt lat="45.9540352" lon="13.1108368"><ele>34.333333333333336</ele><time>2026-04-19T08:22:10.332Z</time></trkpt><trkpt lat="45.9538861" lon="13.110737"><ele>34.666666666666664</ele><time>2026-04-19T08:22:11.335Z</time></trkpt><trkpt lat="45.9537367" lon="13.1106407"><ele>35.0</ele><time>2026-04-19T08:22:12.363Z</time></trkpt><trkpt lat="45.9535805" lon="13.1105412"><ele>35.0</ele><time>2026-04-19T08:22:13.344Z</time></trkpt><trkpt lat="45.9534228" lon="13.1104361"><ele>35.0</ele><time>2026-04-19T08:22:14.34Z</time></trkpt><trkpt lat="45.9532671" lon="13.1103297"><ele>35.0</ele><time>2026-04-19T08:22:15.34Z</time></trkpt><trkpt lat="45.9531072" lon="13.1102222"><ele>35.0</ele><time>2026-04-19T08:22:16.335Z</time></trkpt><trkpt lat="45.9529478" lon="13.1101053"><ele>35.0</ele><time>2026-04-19T08:22:17.343Z</time></trkpt><trkpt lat="45.952788" lon="13.1099855"><ele>35.0</ele><time>2026-04-19T08:22:18.341Z</time></trkpt><trkpt lat="45.9526208" lon="13.10987"><ele>34.666666666666664</ele><time>2026-04-19T08:22:19.336Z</time></trkpt><trkpt lat="45.9524575" lon="13.1097525"><ele>34.333333333333336</ele><time>2026-04-19T08:22:20.339Z</time></trkpt><trkpt lat="45.9522895" lon="13.1096391"><ele>34.0</ele><time>2026-04-19T08:22:21.343Z</time></trkpt><trkpt lat="45.9521205" lon="13.1095241"><ele>34.0</ele><time>2026-04-19T08:22:22.345Z</time></trkpt><trkpt lat="45.9519578" lon="13.1094085"><ele>34.0</ele><time>2026-04-19T08:22:23.342Z</time></trkpt><trkpt lat="45.9517899" lon="13.1092928"><ele>34.0</ele><time>2026-04-19T08:22:24.345Z</time></trkpt><trkpt lat="45.9516267" lon="13.1091776"><ele>34.0</ele><time>2026-04-19T08:22:25.341Z</time></trkpt><trkpt lat="45.9514647" lon="13.1090643"><ele>34.0</ele><time>2026-04-19T08:22:26.346Z</time></trkpt><trkpt lat="45.9513044" lon="13.1089503"><ele>34.0</ele><time>2026-04-19T08:22:27.337Z</time></trkpt><trkpt lat="45.9511433" lon="13.108838"><ele>34.0</ele><time>2026-04-19T08:22:28.339Z</time></trkpt><trkpt lat="45.9509772" lon="13.1087311"><ele>34.0</ele><time>2026-04-19T08:22:29.339Z</time></trkpt><trkpt lat="45.95082" lon="13.1086161"><ele>34.0</ele><time>2026-04-19T08:22:30.349Z</time></trkpt><trkpt lat="45.9506606" lon="13.1085038"><ele>33.66666666666667</ele><time>2026-04-19T08:22:31.336Z</time></trkpt><trkpt lat="45.9504994" lon="13.1083949"><ele>33.333333333333336</ele><time>2026-04-19T08:22:32.337Z</time></trkpt><trkpt lat="45.9503411" lon="13.1082818"><ele>33.0</ele><time>2026-04-19T08:22:33.335Z</time></trkpt><trkpt lat="45.9501846" lon="13.1081592"><ele>32.333333333333336</ele><time>2026-04-19T08:22:34.316Z</time></trkpt><trkpt lat="45.95003" lon="13.108032"><ele>31.666666666666668</ele><time>2026-04-19T08:22:35.336Z</time></trkpt><trkpt lat="45.9498813" lon="13.1079044"><ele>31.0</ele><time>2026-04-19T08:22:36.349Z</time></trkpt><trkpt lat="45.9497363" lon="13.1077651"><ele>31.0</ele><time>2026-04-19T08:22:37.345Z</time></trkpt><trkpt lat="45.9495878" lon="13.1076344"><ele>31.0</ele><time>2026-04-19T08:22:38.346Z</time></trkpt><trkpt lat="45.9494486" lon="13.1074969"><ele>31.0</ele><time>2026-04-19T08:22:39.344Z</time></trkpt><trkpt lat="45.9493095" lon="13.1073557"><ele>31.0</ele><time>2026-04-19T08:22:40.349Z</time></trkpt><trkpt lat="45.9491744" lon="13.107217"><ele>31.0</ele><time>2026-04-19T08:22:41.332Z</time></trkpt><trkpt lat="45.9490306" lon="13.1070785"><ele>31.0</ele><time>2026-04-19T08:22:42.358Z</time></trkpt><trkpt lat="45.9488902" lon="13.1069377"><ele>31.0</ele><time>2026-04-19T08:22:43.343Z</time></trkpt><trkpt lat="45.9487486" lon="13.1068056"><ele>31.0</ele><time>2026-04-19T08:22:44.337Z</time></trkpt><trkpt lat="45.9486085" lon="13.1066728"><ele>31.0</ele><time>2026-04-19T08:22:45.346Z</time></trkpt><trkpt lat="45.9484658" lon="13.1065408"><ele>31.666666666666668</ele><time>2026-04-19T08:22:46.352Z</time></trkpt><trkpt lat="45.9483338" lon="13.1063997"><ele>32.333333333333336</ele><time>2026-04-19T08:22:47.343Z</time></trkpt><trkpt lat="45.9481962" lon="13.10626"><ele>33.0</ele><time>2026-04-19T08:22:48.339Z</time></trkpt><trkpt lat="45.9480568" lon="13.1061207"><ele>33.0</ele><time>2026-04-19T08:22:49.337Z</time></trkpt><trkpt lat="45.9479178" lon="13.1059878"><ele>33.0</ele><time>2026-04-19T08:22:50.341Z</time></trkpt><trkpt lat="45.9477787" lon="13.1058539"><ele>33.0</ele><time>2026-04-19T08:22:51.341Z</time></trkpt><trkpt lat="45.9476417" lon="13.1057227"><ele>32.666666666666664</ele><time>2026-04-19T08:22:52.339Z</time></trkpt><trkpt lat="45.947504" lon="13.1055823"><ele>32.33333333333333</ele><time>2026-04-19T08:22:53.341Z</time></trkpt><trkpt lat="45.9473678" lon="13.105441"><ele>32.0</ele><time>2026-04-19T08:22:54.347Z</time></trkpt><trkpt lat="45.947231" lon="13.1052988"><ele>32.0</ele><time>2026-04-19T08:22:55.339Z</time></trkpt><trkpt lat="45.947087" lon="13.1051632"><ele>32.0</ele><time>2026-04-19T08:22:56.337Z</time></trkpt><trkpt lat="45.9469474" lon="13.1050297"><ele>32.0</ele><time>2026-04-19T08:22:57.349Z</time></trkpt><trkpt lat="45.9468088" lon="13.1048902"><ele>31.666666666666664</ele><time>2026-04-19T08:22:58.34Z</time></trkpt><trkpt lat="45.9466687" lon="13.104751"><ele>31.333333333333336</ele><time>2026-04-19T08:22:59.347Z</time></trkpt><trkpt lat="45.9465293" lon="13.1046123"><ele>31.0</ele><time>2026-04-19T08:23:00.349Z</time></trkpt><trkpt lat="45.9463861" lon="13.1044714"><ele>31.0</ele><time>2026-04-19T08:23:01.341Z</time></trkpt><trkpt lat="45.9462426" lon="13.1043311"><ele>31.0</ele><time>2026-04-19T08:23:02.335Z</time></trkpt><trkpt lat="45.946101" lon="13.1041906"><ele>31.0</ele><time>2026-04-19T08:23:03.337Z</time></trkpt><trkpt lat="45.9459594" lon="13.1040545"><ele>31.333333333333336</ele><time>2026-04-19T08:23:04.341Z</time></trkpt><trkpt lat="45.9458174" lon="13.1039176"><ele>31.666666666666664</ele><time>2026-04-19T08:23:05.332Z</time></trkpt><trkpt lat="45.9456768" lon="13.1037792"><ele>32.0</ele><time>2026-04-19T08:23:06.341Z</time></trkpt><trkpt lat="45.9455358" lon="13.1036431"><ele>32.0</ele><time>2026-04-19T08:23:07.334Z</time></trkpt><trkpt lat="45.9454019" lon="13.1035136"><ele>32.0</ele><time>2026-04-19T08:23:08.337Z</time></trkpt><trkpt lat="45.9452745" lon="13.1033927"><ele>32.0</ele><time>2026-04-19T08:23:09.337Z</time></trkpt><trkpt lat="45.9451524" lon="13.1032951"><ele>32.0</ele><time>2026-04-19T08:23:10.339Z</time></trkpt><trkpt lat="45.9450229" lon="13.103224"><ele>32.0</ele><time>2026-04-19T08:23:11.349Z</time></trkpt><trkpt lat="45.9448876" lon="13.103178"><ele>32.0</ele><time>2026-04-19T08:23:12.34Z</time></trkpt><trkpt lat="45.9447482" lon="13.1031465"><ele>32.0</ele><time>2026-04-19T08:23:13.343Z</time></trkpt><trkpt lat="45.9445997" lon="13.1031289"><ele>32.0</ele><time>2026-04-19T08:23:14.335Z</time></trkpt><trkpt lat="45.9444431" lon="13.1031157"><ele>32.0</ele><time>2026-04-19T08:23:15.343Z</time></trkpt><trkpt lat="45.9442831" lon="13.1030826"><ele>32.0</ele><time>2026-04-19T08:23:16.337Z</time></trkpt><trkpt lat="45.944117" lon="13.1030573"><ele>31.666666666666664</ele><time>2026-04-19T08:23:17.338Z</time></trkpt><trkpt lat="45.943953" lon="13.1030307"><ele>31.333333333333336</ele><time>2026-04-19T08:23:18.343Z</time></trkpt><trkpt lat="45.9437913" lon="13.1030081"><ele>31.0</ele><time>2026-04-19T08:23:19.341Z</time></trkpt><trkpt lat="45.9436407" lon="13.1029898"><ele>31.0</ele><time>2026-04-19T08:23:20.337Z</time></trkpt><trkpt lat="45.9434975" lon="13.1029656"><ele>31.0</ele><time>2026-04-19T08:23:21.344Z</time></trkpt><trkpt lat="45.9433599" lon="13.1029412"><ele>31.0</ele><time>2026-04-19T08:23:22.341Z</time></trkpt><trkpt lat="45.9432354" lon="13.1029218"><ele>31.0</ele><time>2026-04-19T08:23:23.335Z</time></trkpt><trkpt lat="45.9431293" lon="13.1029071"><ele>30.666666666666668</ele><time>2026-04-19T08:23:24.339Z</time></trkpt><trkpt lat="45.9430299" lon="13.1028916"><ele>30.333333333333336</ele><time>2026-04-19T08:23:25.344Z</time></trkpt><trkpt lat="45.942945" lon="13.1028757"><ele>30.0</ele><time>2026-04-19T08:23:26.341Z</time></trkpt><trkpt lat="45.9428706" lon="13.1028472"><ele>29.666666666666664</ele><time>2026-04-19T08:23:27.34Z</time></trkpt><trkpt lat="45.9428119" lon="13.1027997"><ele>29.333333333333332</ele><time>2026-04-19T08:23:28.341Z</time></trkpt><trkpt lat="45.9427579" lon="13.1027514"><ele>29.0</ele><time>2026-04-19T08:23:29.334Z</time></trkpt><trkpt lat="45.9426869" lon="13.1026815"><ele>28.999999999999996</ele><time>2026-04-19T08:23:31.34Z</time></trkpt><trkpt lat="45.9425999" lon="13.1026152"><ele>29.0</ele><time>2026-04-19T08:23:34.342Z</time></trkpt><trkpt lat="45.942542" lon="13.1025785"><ele>29.0</ele><time>2026-04-19T08:23:35.333Z</time></trkpt><trkpt lat="45.9424743" lon="13.1025414"><ele>29.0</ele><time>2026-04-19T08:23:36.334Z</time></trkpt><trkpt lat="45.9424084" lon="13.102502"><ele>28.999999999999996</ele><time>2026-04-19T08:23:37.361Z</time></trkpt><trkpt lat="45.9423363" lon="13.1024585"><ele>29.0</ele><time>2026-04-19T08:23:38.337Z</time></trkpt><trkpt lat="45.9422596" lon="13.1023863"><ele>29.0</ele><time>2026-04-19T08:23:39.352Z</time></trkpt><trkpt lat="45.9421765" lon="13.1022836"><ele>29.0</ele><time>2026-04-19T08:23:40.34Z</time></trkpt><trkpt lat="45.9420892" lon="13.1021791"><ele>29.0</ele><time>2026-04-19T08:23:41.346Z</time></trkpt><trkpt lat="45.9419968" lon="13.1020682"><ele>29.0</ele><time>2026-04-19T08:23:42.334Z</time></trkpt><trkpt lat="45.941907" lon="13.1019604"><ele>29.0</ele><time>2026-04-19T08:23:43.338Z</time></trkpt><trkpt lat="45.9418103" lon="13.1018523"><ele>29.0</ele><time>2026-04-19T08:23:44.34Z</time></trkpt><trkpt lat="45.9417104" lon="13.1017342"><ele>29.0</ele><time>2026-04-19T08:23:45.334Z</time></trkpt><trkpt lat="45.9416067" lon="13.1016093"><ele>29.0</ele><time>2026-04-19T08:23:46.34Z</time></trkpt><trkpt lat="45.9414967" lon="13.1014725"><ele>29.25</ele><time>2026-04-19T08:23:47.345Z</time></trkpt><trkpt lat="45.9413899" lon="13.1013451"><ele>29.5</ele><time>2026-04-19T08:23:48.337Z</time></trkpt><trkpt lat="45.9412872" lon="13.1012253"><ele>29.75</ele><time>2026-04-19T08:23:49.353Z</time></trkpt><trkpt lat="45.9411836" lon="13.1011029"><ele>30.0</ele><time>2026-04-19T08:23:50.346Z</time></trkpt><trkpt lat="45.9410774" lon="13.1009694"><ele>30.0</ele><time>2026-04-19T08:23:51.337Z</time></trkpt><trkpt lat="45.940965" lon="13.1008292"><ele>30.0</ele><time>2026-04-19T08:23:52.343Z</time></trkpt><trkpt lat="45.9408525" lon="13.1006966"><ele>30.0</ele><time>2026-04-19T08:23:53.345Z</time></trkpt><trkpt lat="45.9407357" lon="13.1005597"><ele>30.0</ele><time>2026-04-19T08:23:54.347Z</time></trkpt><trkpt lat="45.9406173" lon="13.1004301"><ele>29.666666666666664</ele><time>2026-04-19T08:23:55.34Z</time></trkpt><trkpt lat="45.9404975" lon="13.1002993"><ele>29.333333333333332</ele><time>2026-04-19T08:23:56.341Z</time></trkpt><trkpt lat="45.9403828" lon="13.1001623"><ele>29.0</ele><time>2026-04-19T08:23:57.355Z</time></trkpt><trkpt lat="45.9402659" lon="13.1000177"><ele>29.333333333333332</ele><time>2026-04-19T08:23:58.34Z</time></trkpt><trkpt lat="45.9401448" lon="13.0998782"><ele>29.666666666666664</ele><time>2026-04-19T08:23:59.362Z</time></trkpt><trkpt lat="45.9400275" lon="13.0997439"><ele>30.0</ele><time>2026-04-19T08:24:00.339Z</time></trkpt><trkpt lat="45.9399111" lon="13.0996015"><ele>30.0</ele><time>2026-04-19T08:24:01.339Z</time></trkpt><trkpt lat="45.939793" lon="13.0994587"><ele>30.0</ele><time>2026-04-19T08:24:02.342Z</time></trkpt><trkpt lat="45.9396811" lon="13.0993246"><ele>30.0</ele><time>2026-04-19T08:24:03.343Z</time></trkpt><trkpt lat="45.9395725" lon="13.0991912"><ele>30.0</ele><time>2026-04-19T08:24:04.348Z</time></trkpt><trkpt lat="45.9394642" lon="13.0990604"><ele>30.0</ele><time>2026-04-19T08:24:05.353Z</time></trkpt><trkpt lat="45.9393565" lon="13.098939"><ele>30.0</ele><time>2026-04-19T08:24:06.352Z</time></trkpt><trkpt lat="45.9392432" lon="13.0988093"><ele>30.0</ele><time>2026-04-19T08:24:07.342Z</time></trkpt><trkpt lat="45.9391327" lon="13.0986736"><ele>30.0</ele><time>2026-04-19T08:24:08.341Z</time></trkpt><trkpt lat="45.9390242" lon="13.0985395"><ele>30.0</ele><time>2026-04-19T08:24:09.345Z</time></trkpt><trkpt lat="45.9389155" lon="13.098416"><ele>30.0</ele><time>2026-04-19T08:24:10.335Z</time></trkpt><trkpt lat="45.9388151" lon="13.0982908"><ele>30.0</ele><time>2026-04-19T08:24:11.347Z</time></trkpt><trkpt lat="45.9387107" lon="13.0981686"><ele>30.0</ele><time>2026-04-19T08:24:12.346Z</time></trkpt><trkpt lat="45.9386051" lon="13.0980445"><ele>29.75</ele><time>2026-04-19T08:24:13.365Z</time></trkpt><trkpt lat="45.9384995" lon="13.097916"><ele>29.5</ele><time>2026-04-19T08:24:14.325Z</time></trkpt><trkpt lat="45.9383874" lon="13.0977952"><ele>29.25</ele><time>2026-04-19T08:24:15.333Z</time></trkpt><trkpt lat="45.9382821" lon="13.0976792"><ele>29.0</ele><time>2026-04-19T08:24:16.343Z</time></trkpt><trkpt lat="45.9381761" lon="13.0975528"><ele>29.0</ele><time>2026-04-19T08:24:17.346Z</time></trkpt><trkpt lat="45.9380671" lon="13.0974247"><ele>29.0</ele><time>2026-04-19T08:24:18.338Z</time></trkpt><trkpt lat="45.9379567" lon="13.0973008"><ele>29.0</ele><time>2026-04-19T08:24:19.336Z</time></trkpt><trkpt lat="45.9378415" lon="13.0971693"><ele>29.0</ele><time>2026-04-19T08:24:20.359Z</time></trkpt><trkpt lat="45.9377253" lon="13.0970354"><ele>29.0</ele><time>2026-04-19T08:24:21.35Z</time></trkpt><trkpt lat="45.9376039" lon="13.0969031"><ele>29.0</ele><time>2026-04-19T08:24:22.337Z</time></trkpt><trkpt lat="45.9374854" lon="13.096759"><ele>29.0</ele><time>2026-04-19T08:24:23.348Z</time></trkpt><trkpt lat="45.9373663" lon="13.0966143"><ele>29.0</ele><time>2026-04-19T08:24:24.337Z</time></trkpt><trkpt lat="45.9372454" lon="13.0964722"><ele>29.0</ele><time>2026-04-19T08:24:25.341Z</time></trkpt><trkpt lat="45.9371233" lon="13.0963293"><ele>29.0</ele><time>2026-04-19T08:24:26.336Z</time></trkpt><trkpt lat="45.9370164" lon="13.0961952"><ele>29.0</ele><time>2026-04-19T08:24:27.337Z</time></trkpt><trkpt lat="45.9369105" lon="13.0960595"><ele>29.0</ele><time>2026-04-19T08:24:28.336Z</time></trkpt><trkpt lat="45.9368052" lon="13.0959218"><ele>29.0</ele><time>2026-04-19T08:24:29.336Z</time></trkpt><trkpt lat="45.9367058" lon="13.0957776"><ele>29.0</ele><time>2026-04-19T08:24:30.342Z</time></trkpt><trkpt lat="45.9366082" lon="13.0956343"><ele>29.0</ele><time>2026-04-19T08:24:31.343Z</time></trkpt><trkpt lat="45.936517" lon="13.0954876"><ele>29.0</ele><time>2026-04-19T08:24:32.34Z</time></trkpt><trkpt lat="45.9364329" lon="13.0953464"><ele>29.0</ele><time>2026-04-19T08:24:33.33Z</time></trkpt><trkpt lat="45.9363519" lon="13.0952107"><ele>29.0</ele><time>2026-04-19T08:24:34.341Z</time></trkpt><trkpt lat="45.9362608" lon="13.0950811"><ele>29.0</ele><time>2026-04-19T08:24:35.338Z</time></trkpt><trkpt lat="45.936164" lon="13.0949811"><ele>29.0</ele><time>2026-04-19T08:24:36.343Z</time></trkpt><trkpt lat="45.9360658" lon="13.0948928"><ele>29.0</ele><time>2026-04-19T08:24:37.339Z</time></trkpt><trkpt lat="45.935966" lon="13.0948027"><ele>29.0</ele><time>2026-04-19T08:24:38.335Z</time></trkpt><trkpt lat="45.9358613" lon="13.0947215"><ele>28.799999999999997</ele><time>2026-04-19T08:24:39.334Z</time></trkpt><trkpt lat="45.9357674" lon="13.0946538"><ele>28.599999999999998</ele><time>2026-04-19T08:24:40.352Z</time></trkpt><trkpt lat="45.9356648" lon="13.0945914"><ele>28.4</ele><time>2026-04-19T08:24:41.349Z</time></trkpt><trkpt lat="45.9355681" lon="13.0945157"><ele>28.2</ele><time>2026-04-19T08:24:42.335Z</time></trkpt><trkpt lat="45.9354824" lon="13.0944083"><ele>28.0</ele><time>2026-04-19T08:24:43.345Z</time></trkpt><trkpt lat="45.9354041" lon="13.0942923"><ele>28.0</ele><time>2026-04-19T08:24:44.34Z</time></trkpt><trkpt lat="45.935332" lon="13.0941847"><ele>27.999999999999996</ele><time>2026-04-19T08:24:45.34Z</time></trkpt><trkpt lat="45.9352654" lon="13.0940637"><ele>27.999999999999996</ele><time>2026-04-19T08:24:46.348Z</time></trkpt><trkpt lat="45.9351992" lon="13.0939489"><ele>28.0</ele><time>2026-04-19T08:24:47.343Z</time></trkpt><trkpt lat="45.9351414" lon="13.0938257"><ele>28.0</ele><time>2026-04-19T08:24:48.339Z</time></trkpt><trkpt lat="45.9350911" lon="13.0937104"><ele>28.000000000000004</ele><time>2026-04-19T08:24:49.342Z</time></trkpt><trkpt lat="45.9350504" lon="13.0936187"><ele>28.0</ele><time>2026-04-19T08:24:50.341Z</time></trkpt><trkpt lat="45.9349889" lon="13.0935137"><ele>28.0</ele><time>2026-04-19T08:24:52.339Z</time></trkpt><trkpt lat="45.934947" lon="13.0933999"><ele>28.0</ele><time>2026-04-19T08:24:54.341Z</time></trkpt><trkpt lat="45.9349061" lon="13.0933305"><ele>28.000000000000004</ele><time>2026-04-19T08:24:55.348Z</time></trkpt><trkpt lat="45.9348427" lon="13.0932594"><ele>28.0</ele><time>2026-04-19T08:24:56.351Z</time></trkpt><trkpt lat="45.9347721" lon="13.0932111"><ele>27.799999999999997</ele><time>2026-04-19T08:24:57.348Z</time></trkpt><trkpt lat="45.9347034" lon="13.0931593"><ele>27.599999999999998</ele><time>2026-04-19T08:24:58.342Z</time></trkpt><trkpt lat="45.9346325" lon="13.0930872"><ele>27.400000000000002</ele><time>2026-04-19T08:24:59.328Z</time></trkpt><trkpt lat="45.9345553" lon="13.0930063"><ele>27.200000000000003</ele><time>2026-04-19T08:25:00.332Z</time></trkpt><trkpt lat="45.9344782" lon="13.0929169"><ele>27.0</ele><time>2026-04-19T08:25:01.335Z</time></trkpt><trkpt lat="45.9343998" lon="13.092827"><ele>27.0</ele><time>2026-04-19T08:25:02.341Z</time></trkpt><trkpt lat="45.9343172" lon="13.0927341"><ele>27.0</ele><time>2026-04-19T08:25:03.336Z</time></trkpt><trkpt lat="45.9342343" lon="13.0926139"><ele>27.0</ele><time>2026-04-19T08:25:04.344Z</time></trkpt><trkpt lat="45.9341433" lon="13.0924845"><ele>27.0</ele><time>2026-04-19T08:25:05.341Z</time></trkpt><trkpt lat="45.9340485" lon="13.0923601"><ele>27.25</ele><time>2026-04-19T08:25:06.338Z</time></trkpt><trkpt lat="45.9339636" lon="13.0922251"><ele>27.5</ele><time>2026-04-19T08:25:07.333Z</time></trkpt><trkpt lat="45.9338741" lon="13.0920991"><ele>27.75</ele><time>2026-04-19T08:25:08.333Z</time></trkpt><trkpt lat="45.9337757" lon="13.0919725"><ele>28.0</ele><time>2026-04-19T08:25:09.342Z</time></trkpt><trkpt lat="45.9336788" lon="13.0918432"><ele>28.0</ele><time>2026-04-19T08:25:10.349Z</time></trkpt><trkpt lat="45.9335812" lon="13.0917147"><ele>28.0</ele><time>2026-04-19T08:25:11.338Z</time></trkpt><trkpt lat="45.9334788" lon="13.0916054"><ele>28.0</ele><time>2026-04-19T08:25:12.345Z</time></trkpt><trkpt lat="45.9333589" lon="13.0915132"><ele>28.0</ele><time>2026-04-19T08:25:13.341Z</time></trkpt><trkpt lat="45.9332277" lon="13.0914455"><ele>27.5</ele><time>2026-04-19T08:25:14.348Z</time></trkpt><trkpt lat="45.9330991" lon="13.0913791"><ele>27.0</ele><time>2026-04-19T08:25:15.334Z</time></trkpt><trkpt lat="45.9329694" lon="13.091303"><ele>26.5</ele><time>2026-04-19T08:25:16.36Z</time></trkpt><trkpt lat="45.9328381" lon="13.091227"><ele>26.0</ele><time>2026-04-19T08:25:17.335Z</time></trkpt><trkpt lat="45.9327049" lon="13.0911521"><ele>26.0</ele><time>2026-04-19T08:25:18.35Z</time></trkpt><trkpt lat="45.9325617" lon="13.0910834"><ele>26.0</ele><time>2026-04-19T08:25:19.338Z</time></trkpt><trkpt lat="45.9324221" lon="13.0910055"><ele>26.0</ele><time>2026-04-19T08:25:20.34Z</time></trkpt><trkpt lat="45.9322807" lon="13.0909289"><ele>26.0</ele><time>2026-04-19T08:25:21.34Z</time></trkpt><trkpt lat="45.9321437" lon="13.0908684"><ele>26.0</ele><time>2026-04-19T08:25:22.331Z</time></trkpt><trkpt lat="45.9320183" lon="13.0908014"><ele>26.0</ele><time>2026-04-19T08:25:23.346Z</time></trkpt><trkpt lat="45.9318805" lon="13.0907349"><ele>26.0</ele><time>2026-04-19T08:25:24.352Z</time></trkpt><trkpt lat="45.9317411" lon="13.0906686"><ele>26.0</ele><time>2026-04-19T08:25:25.346Z</time></trkpt><trkpt lat="45.9316079" lon="13.0906121"><ele>26.0</ele><time>2026-04-19T08:25:26.361Z</time></trkpt><trkpt lat="45.9314684" lon="13.0905504"><ele>26.0</ele><time>2026-04-19T08:25:27.336Z</time></trkpt><trkpt lat="45.9313266" lon="13.0904801"><ele>26.0</ele><time>2026-04-19T08:25:28.342Z</time></trkpt><trkpt lat="45.9311801" lon="13.0904086"><ele>26.0</ele><time>2026-04-19T08:25:29.339Z</time></trkpt><trkpt lat="45.9310323" lon="13.0903243"><ele>26.0</ele><time>2026-04-19T08:25:30.354Z</time></trkpt><trkpt lat="45.9308779" lon="13.0902379"><ele>26.0</ele><time>2026-04-19T08:25:31.334Z</time></trkpt><trkpt lat="45.9307275" lon="13.0901522"><ele>26.0</ele><time>2026-04-19T08:25:32.347Z</time></trkpt><trkpt lat="45.9305726" lon="13.0900691"><ele>26.0</ele><time>2026-04-19T08:25:33.34Z</time></trkpt><trkpt lat="45.9304126" lon="13.0899927"><ele>26.0</ele><time>2026-04-19T08:25:34.341Z</time></trkpt><trkpt lat="45.9302457" lon="13.0899151"><ele>26.0</ele><time>2026-04-19T08:25:35.334Z</time></trkpt><trkpt lat="45.9300784" lon="13.0898311"><ele>26.0</ele><time>2026-04-19T08:25:36.339Z</time></trkpt><trkpt lat="45.9299093" lon="13.0897509"><ele>26.0</ele><time>2026-04-19T08:25:37.342Z</time></trkpt><trkpt lat="45.9297435" lon="13.0896595"><ele>25.666666666666664</ele><time>2026-04-19T08:25:38.344Z</time></trkpt><trkpt lat="45.9295684" lon="13.08957"><ele>25.333333333333336</ele><time>2026-04-19T08:25:39.341Z</time></trkpt><trkpt lat="45.9293872" lon="13.0894858"><ele>25.0</ele><time>2026-04-19T08:25:40.351Z</time></trkpt><trkpt lat="45.929207" lon="13.089393"><ele>25.0</ele><time>2026-04-19T08:25:41.333Z</time></trkpt><trkpt lat="45.9290362" lon="13.0893049"><ele>25.0</ele><time>2026-04-19T08:25:42.349Z</time></trkpt><trkpt lat="45.9288693" lon="13.089219"><ele>25.0</ele><time>2026-04-19T08:25:43.351Z</time></trkpt><trkpt lat="45.9287054" lon="13.0891367"><ele>25.0</ele><time>2026-04-19T08:25:44.34Z</time></trkpt><trkpt lat="45.9285385" lon="13.0890496"><ele>25.0</ele><time>2026-04-19T08:25:45.339Z</time></trkpt><trkpt lat="45.9283642" lon="13.0889601"><ele>25.0</ele><time>2026-04-19T08:25:46.34Z</time></trkpt><trkpt lat="45.9281851" lon="13.0888685"><ele>25.333333333333336</ele><time>2026-04-19T08:25:47.34Z</time></trkpt><trkpt lat="45.9280042" lon="13.0887783"><ele>25.666666666666664</ele><time>2026-04-19T08:25:48.344Z</time></trkpt><trkpt lat="45.9278197" lon="13.0886859"><ele>26.0</ele><time>2026-04-19T08:25:49.347Z</time></trkpt><trkpt lat="45.9276366" lon="13.0885954"><ele>25.333333333333332</ele><time>2026-04-19T08:25:50.347Z</time></trkpt><trkpt lat="45.9274512" lon="13.0885047"><ele>24.666666666666664</ele><time>2026-04-19T08:25:51.334Z</time></trkpt><trkpt lat="45.9272641" lon="13.0884114"><ele>24.0</ele><time>2026-04-19T08:25:52.342Z</time></trkpt><trkpt lat="45.9270773" lon="13.0883144"><ele>24.333333333333336</ele><time>2026-04-19T08:25:53.345Z</time></trkpt><trkpt lat="45.9268929" lon="13.0882248"><ele>24.666666666666668</ele><time>2026-04-19T08:25:54.337Z</time></trkpt><trkpt lat="45.926706" lon="13.0881301"><ele>25.0</ele><time>2026-04-19T08:25:55.345Z</time></trkpt><trkpt lat="45.9265224" lon="13.0880315"><ele>24.333333333333336</ele><time>2026-04-19T08:25:56.344Z</time></trkpt><trkpt lat="45.9263372" lon="13.087935"><ele>23.666666666666668</ele><time>2026-04-19T08:25:57.34Z</time></trkpt><trkpt lat="45.9261538" lon="13.0878368"><ele>23.0</ele><time>2026-04-19T08:25:58.342Z</time></trkpt><trkpt lat="45.9259695" lon="13.0877509"><ele>23.333333333333336</ele><time>2026-04-19T08:25:59.345Z</time></trkpt><trkpt lat="45.9257844" lon="13.0876529"><ele>23.666666666666668</ele><time>2026-04-19T08:26:00.356Z</time></trkpt><trkpt lat="45.9255981" lon="13.0875645"><ele>24.0</ele><time>2026-04-19T08:26:01.339Z</time></trkpt><trkpt lat="45.9254155" lon="13.087474"><ele>24.0</ele><time>2026-04-19T08:26:02.347Z</time></trkpt><trkpt lat="45.9252268" lon="13.0873756"><ele>24.0</ele><time>2026-04-19T08:26:03.354Z</time></trkpt><trkpt lat="45.9250328" lon="13.0872831"><ele>24.0</ele><time>2026-04-19T08:26:04.337Z</time></trkpt><trkpt lat="45.924846" lon="13.0871822"><ele>24.333333333333336</ele><time>2026-04-19T08:26:05.332Z</time></trkpt><trkpt lat="45.9246539" lon="13.0870846"><ele>24.666666666666668</ele><time>2026-04-19T08:26:06.326Z</time></trkpt><trkpt lat="45.9244586" lon="13.0869899"><ele>25.0</ele><time>2026-04-19T08:26:07.339Z</time></trkpt><trkpt lat="45.9242686" lon="13.0868942"><ele>24.0</ele><time>2026-04-19T08:26:08.334Z</time></trkpt><trkpt lat="45.9240806" lon="13.0868005"><ele>23.0</ele><time>2026-04-19T08:26:09.346Z</time></trkpt><trkpt lat="45.9238916" lon="13.0867088"><ele>22.0</ele><time>2026-04-19T08:26:10.345Z</time></trkpt><trkpt lat="45.9237038" lon="13.0866152"><ele>22.0</ele><time>2026-04-19T08:26:11.358Z</time></trkpt><trkpt lat="45.9235163" lon="13.0865201"><ele>22.0</ele><time>2026-04-19T08:26:12.338Z</time></trkpt><trkpt lat="45.9233292" lon="13.0864235"><ele>22.0</ele><time>2026-04-19T08:26:13.342Z</time></trkpt><trkpt lat="45.9231429" lon="13.0863253"><ele>22.0</ele><time>2026-04-19T08:26:14.341Z</time></trkpt><trkpt lat="45.9229544" lon="13.0862353"><ele>22.0</ele><time>2026-04-19T08:26:15.341Z</time></trkpt><trkpt lat="45.9227685" lon="13.0861479"><ele>22.0</ele><time>2026-04-19T08:26:16.337Z</time></trkpt><trkpt lat="45.9225797" lon="13.0860676"><ele>21.666666666666664</ele><time>2026-04-19T08:26:17.334Z</time></trkpt><trkpt lat="45.9223882" lon="13.0859914"><ele>21.333333333333332</ele><time>2026-04-19T08:26:18.329Z</time></trkpt><trkpt lat="45.9221979" lon="13.08592"><ele>21.0</ele><time>2026-04-19T08:26:19.352Z</time></trkpt><trkpt lat="45.9220052" lon="13.0858541"><ele>21.0</ele><time>2026-04-19T08:26:20.343Z</time></trkpt><trkpt lat="45.9218137" lon="13.0857812"><ele>21.0</ele><time>2026-04-19T08:26:21.337Z</time></trkpt><trkpt lat="45.921625" lon="13.0857097"><ele>21.0</ele><time>2026-04-19T08:26:22.337Z</time></trkpt><trkpt lat="45.9214332" lon="13.0856463"><ele>21.333333333333332</ele><time>2026-04-19T08:26:23.344Z</time></trkpt><trkpt lat="45.9212414" lon="13.085576"><ele>21.666666666666664</ele><time>2026-04-19T08:26:24.348Z</time></trkpt><trkpt lat="45.92105" lon="13.085502"><ele>22.0</ele><time>2026-04-19T08:26:25.338Z</time></trkpt><trkpt lat="45.9208599" lon="13.085429"><ele>23.0</ele><time>2026-04-19T08:26:26.339Z</time></trkpt><trkpt lat="45.9206675" lon="13.0853629"><ele>24.0</ele><time>2026-04-19T08:26:27.333Z</time></trkpt><trkpt lat="45.9204769" lon="13.0852921"><ele>25.0</ele><time>2026-04-19T08:26:28.369Z</time></trkpt><trkpt lat="45.9202861" lon="13.085225"><ele>25.0</ele><time>2026-04-19T08:26:29.339Z</time></trkpt><trkpt lat="45.9200971" lon="13.0851582"><ele>25.0</ele><time>2026-04-19T08:26:30.339Z</time></trkpt><trkpt lat="45.9199054" lon="13.0850873"><ele>25.0</ele><time>2026-04-19T08:26:31.333Z</time></trkpt><trkpt lat="45.9197152" lon="13.0850175"><ele>24.333333333333336</ele><time>2026-04-19T08:26:32.342Z</time></trkpt><trkpt lat="45.9195292" lon="13.0849517"><ele>23.666666666666668</ele><time>2026-04-19T08:26:33.331Z</time></trkpt><trkpt lat="45.9193443" lon="13.0848855"><ele>23.0</ele><time>2026-04-19T08:26:34.341Z</time></trkpt><trkpt lat="45.9191575" lon="13.0848222"><ele>22.333333333333336</ele><time>2026-04-19T08:26:35.34Z</time></trkpt><trkpt lat="45.9189685" lon="13.0847547"><ele>21.666666666666668</ele><time>2026-04-19T08:26:36.335Z</time></trkpt><trkpt lat="45.9187838" lon="13.0846885"><ele>21.0</ele><time>2026-04-19T08:26:37.342Z</time></trkpt><trkpt lat="45.9185997" lon="13.0846233"><ele>21.0</ele><time>2026-04-19T08:26:38.35Z</time></trkpt><trkpt lat="45.9184137" lon="13.0845529"><ele>21.0</ele><time>2026-04-19T08:26:39.33Z</time></trkpt><trkpt lat="45.918229" lon="13.0844845"><ele>21.0</ele><time>2026-04-19T08:26:40.344Z</time></trkpt><trkpt lat="45.9180442" lon="13.0844137"><ele>21.666666666666668</ele><time>2026-04-19T08:26:41.337Z</time></trkpt><trkpt lat="45.9178567" lon="13.0843382"><ele>22.333333333333336</ele><time>2026-04-19T08:26:42.346Z</time></trkpt><trkpt lat="45.9176713" lon="13.0842692"><ele>23.0</ele><time>2026-04-19T08:26:43.348Z</time></trkpt><trkpt lat="45.9174886" lon="13.0842016"><ele>23.0</ele><time>2026-04-19T08:26:44.356Z</time></trkpt><trkpt lat="45.9173063" lon="13.0841355"><ele>23.0</ele><time>2026-04-19T08:26:45.349Z</time></trkpt><trkpt lat="45.917119" lon="13.084068"><ele>23.0</ele><time>2026-04-19T08:26:46.338Z</time></trkpt><trkpt lat="45.916936" lon="13.0840006"><ele>23.0</ele><time>2026-04-19T08:26:47.367Z</time></trkpt><trkpt lat="45.9167505" lon="13.0839343"><ele>23.0</ele><time>2026-04-19T08:26:48.336Z</time></trkpt><trkpt lat="45.9165641" lon="13.0838651"><ele>23.0</ele><time>2026-04-19T08:26:49.343Z</time></trkpt><trkpt lat="45.9163809" lon="13.0837986"><ele>22.666666666666668</ele><time>2026-04-19T08:26:50.339Z</time></trkpt><trkpt lat="45.9161955" lon="13.083734"><ele>22.333333333333332</ele><time>2026-04-19T08:26:51.339Z</time></trkpt><trkpt lat="45.9160113" lon="13.0836696"><ele>22.0</ele><time>2026-04-19T08:26:52.347Z</time></trkpt><trkpt lat="45.9158293" lon="13.0836046"><ele>21.666666666666664</ele><time>2026-04-19T08:26:53.336Z</time></trkpt><trkpt lat="45.9156441" lon="13.0835321"><ele>21.333333333333332</ele><time>2026-04-19T08:26:54.335Z</time></trkpt><trkpt lat="45.9154573" lon="13.0834618"><ele>21.0</ele><time>2026-04-19T08:26:55.337Z</time></trkpt><trkpt lat="45.9152678" lon="13.083395"><ele>21.0</ele><time>2026-04-19T08:26:56.336Z</time></trkpt><trkpt lat="45.9150776" lon="13.0833251"><ele>21.0</ele><time>2026-04-19T08:26:57.336Z</time></trkpt><trkpt lat="45.9148863" lon="13.0832601"><ele>21.0</ele><time>2026-04-19T08:26:58.344Z</time></trkpt><trkpt lat="45.9146974" lon="13.0831886"><ele>21.333333333333332</ele><time>2026-04-19T08:26:59.345Z</time></trkpt><trkpt lat="45.9145067" lon="13.0831196"><ele>21.666666666666664</ele><time>2026-04-19T08:27:00.335Z</time></trkpt><trkpt lat="45.9143204" lon="13.083049"><ele>22.0</ele><time>2026-04-19T08:27:01.346Z</time></trkpt><trkpt lat="45.9141301" lon="13.0829776"><ele>22.0</ele><time>2026-04-19T08:27:02.345Z</time></trkpt><trkpt lat="45.9139403" lon="13.0829113"><ele>22.0</ele><time>2026-04-19T08:27:03.354Z</time></trkpt><trkpt lat="45.9137479" lon="13.0828481"><ele>22.0</ele><time>2026-04-19T08:27:04.336Z</time></trkpt><trkpt lat="45.9135578" lon="13.0827752"><ele>20.666666666666664</ele><time>2026-04-19T08:27:05.327Z</time></trkpt><trkpt lat="45.913371" lon="13.0827055"><ele>19.333333333333332</ele><time>2026-04-19T08:27:06.343Z</time></trkpt><trkpt lat="45.9131809" lon="13.0826371"><ele>18.0</ele><time>2026-04-19T08:27:07.339Z</time></trkpt><trkpt lat="45.9129939" lon="13.0825679"><ele>18.0</ele><time>2026-04-19T08:27:08.345Z</time></trkpt><trkpt lat="45.9128058" lon="13.0824968"><ele>18.0</ele><time>2026-04-19T08:27:09.331Z</time></trkpt><trkpt lat="45.9126132" lon="13.0824287"><ele>18.0</ele><time>2026-04-19T08:27:10.348Z</time></trkpt><trkpt lat="45.912422" lon="13.0823553"><ele>18.0</ele><time>2026-04-19T08:27:11.339Z</time></trkpt><trkpt lat="45.912229" lon="13.0822905"><ele>18.0</ele><time>2026-04-19T08:27:12.349Z</time></trkpt><trkpt lat="45.9120348" lon="13.0822206"><ele>18.0</ele><time>2026-04-19T08:27:13.346Z</time></trkpt><trkpt lat="45.9118399" lon="13.0821483"><ele>18.0</ele><time>2026-04-19T08:27:14.349Z</time></trkpt><trkpt lat="45.9116434" lon="13.0820765"><ele>18.0</ele><time>2026-04-19T08:27:15.325Z</time></trkpt><trkpt lat="45.9114484" lon="13.0820057"><ele>18.0</ele><time>2026-04-19T08:27:16.386Z</time></trkpt><trkpt lat="45.9112516" lon="13.0819333"><ele>18.0</ele><time>2026-04-19T08:27:17.337Z</time></trkpt><trkpt lat="45.9110522" lon="13.0818637"><ele>18.0</ele><time>2026-04-19T08:27:18.341Z</time></trkpt><trkpt lat="45.9108587" lon="13.0817937"><ele>18.0</ele><time>2026-04-19T08:27:19.34Z</time></trkpt><trkpt lat="45.9106621" lon="13.0817257"><ele>17.666666666666668</ele><time>2026-04-19T08:27:20.342Z</time></trkpt><trkpt lat="45.9104694" lon="13.0816578"><ele>17.333333333333336</ele><time>2026-04-19T08:27:21.343Z</time></trkpt><trkpt lat="45.9102763" lon="13.08159"><ele>17.0</ele><time>2026-04-19T08:27:22.345Z</time></trkpt><trkpt lat="45.9100836" lon="13.0815211"><ele>17.666666666666668</ele><time>2026-04-19T08:27:23.343Z</time></trkpt><trkpt lat="45.9098931" lon="13.0814541"><ele>18.333333333333332</ele><time>2026-04-19T08:27:24.362Z</time></trkpt><trkpt lat="45.9097031" lon="13.0813815"><ele>19.0</ele><time>2026-04-19T08:27:25.339Z</time></trkpt><trkpt lat="45.9095147" lon="13.0813147"><ele>19.0</ele><time>2026-04-19T08:27:26.34Z</time></trkpt><trkpt lat="45.9093282" lon="13.0812501"><ele>19.0</ele><time>2026-04-19T08:27:27.346Z</time></trkpt><trkpt lat="45.9091414" lon="13.0811882"><ele>19.0</ele><time>2026-04-19T08:27:28.333Z</time></trkpt><trkpt lat="45.9089534" lon="13.0811425"><ele>19.0</ele><time>2026-04-19T08:27:29.353Z</time></trkpt><trkpt lat="45.9087614" lon="13.0811036"><ele>19.0</ele><time>2026-04-19T08:27:30.343Z</time></trkpt><trkpt lat="45.9085686" lon="13.0810681"><ele>19.0</ele><time>2026-04-19T08:27:31.339Z</time></trkpt><trkpt lat="45.9083764" lon="13.0810462"><ele>19.0</ele><time>2026-04-19T08:27:32.342Z</time></trkpt><trkpt lat="45.9081858" lon="13.0810381"><ele>19.0</ele><time>2026-04-19T08:27:33.331Z</time></trkpt><trkpt lat="45.9079946" lon="13.0810404"><ele>19.0</ele><time>2026-04-19T08:27:34.354Z</time></trkpt><trkpt lat="45.9078038" lon="13.0810454"><ele>19.0</ele><time>2026-04-19T08:27:35.333Z</time></trkpt><trkpt lat="45.9076135" lon="13.0810641"><ele>19.0</ele><time>2026-04-19T08:27:36.35Z</time></trkpt><trkpt lat="45.907422" lon="13.0810802"><ele>19.0</ele><time>2026-04-19T08:27:37.342Z</time></trkpt><trkpt lat="45.9072318" lon="13.0810911"><ele>18.666666666666664</ele><time>2026-04-19T08:27:38.334Z</time></trkpt><trkpt lat="45.9070379" lon="13.0811093"><ele>18.333333333333332</ele><time>2026-04-19T08:27:39.34Z</time></trkpt><trkpt lat="45.9068476" lon="13.0811265"><ele>18.0</ele><time>2026-04-19T08:27:40.338Z</time></trkpt><trkpt lat="45.9066566" lon="13.0811456"><ele>18.0</ele><time>2026-04-19T08:27:41.343Z</time></trkpt><trkpt lat="45.9064633" lon="13.0811623"><ele>18.0</ele><time>2026-04-19T08:27:42.33Z</time></trkpt><trkpt lat="45.9062762" lon="13.0811813"><ele>18.0</ele><time>2026-04-19T08:27:43.343Z</time></trkpt><trkpt lat="45.9060865" lon="13.0811956"><ele>19.666666666666668</ele><time>2026-04-19T08:27:44.342Z</time></trkpt><trkpt lat="45.9058953" lon="13.0812137"><ele>21.333333333333336</ele><time>2026-04-19T08:27:45.344Z</time></trkpt><trkpt lat="45.9057055" lon="13.0812293"><ele>23.0</ele><time>2026-04-19T08:27:46.339Z</time></trkpt><trkpt lat="45.905516" lon="13.0812459"><ele>23.0</ele><time>2026-04-19T08:27:47.353Z</time></trkpt><trkpt lat="45.9053262" lon="13.0812541"><ele>23.0</ele><time>2026-04-19T08:27:48.342Z</time></trkpt><trkpt lat="45.9051368" lon="13.0812675"><ele>23.0</ele><time>2026-04-19T08:27:49.338Z</time></trkpt><trkpt lat="45.9049484" lon="13.0812816"><ele>23.333333333333336</ele><time>2026-04-19T08:27:50.34Z</time></trkpt><trkpt lat="45.9047567" lon="13.0812951"><ele>23.666666666666668</ele><time>2026-04-19T08:27:51.336Z</time></trkpt><trkpt lat="45.9045658" lon="13.0813148"><ele>24.0</ele><time>2026-04-19T08:27:52.341Z</time></trkpt><trkpt lat="45.9043737" lon="13.0813345"><ele>24.0</ele><time>2026-04-19T08:27:53.348Z</time></trkpt><trkpt lat="45.9041829" lon="13.0813538"><ele>24.0</ele><time>2026-04-19T08:27:54.344Z</time></trkpt><trkpt lat="45.9039943" lon="13.0813672"><ele>24.0</ele><time>2026-04-19T08:27:55.338Z</time></trkpt><trkpt lat="45.9038051" lon="13.0813829"><ele>24.0</ele><time>2026-04-19T08:27:56.338Z</time></trkpt><trkpt lat="45.9036131" lon="13.0813987"><ele>24.0</ele><time>2026-04-19T08:27:57.327Z</time></trkpt><trkpt lat="45.903425" lon="13.0814142"><ele>24.0</ele><time>2026-04-19T08:27:58.339Z</time></trkpt><trkpt lat="45.903237" lon="13.0814272"><ele>23.333333333333332</ele><time>2026-04-19T08:27:59.344Z</time></trkpt><trkpt lat="45.9030453" lon="13.0814448"><ele>22.666666666666664</ele><time>2026-04-19T08:28:00.339Z</time></trkpt><trkpt lat="45.9028524" lon="13.0814598"><ele>22.0</ele><time>2026-04-19T08:28:01.34Z</time></trkpt><trkpt lat="45.9026609" lon="13.081478"><ele>22.666666666666664</ele><time>2026-04-19T08:28:02.344Z</time></trkpt><trkpt lat="45.9024667" lon="13.0814904"><ele>23.333333333333332</ele><time>2026-04-19T08:28:03.347Z</time></trkpt><trkpt lat="45.9022734" lon="13.0815076"><ele>24.0</ele><time>2026-04-19T08:28:04.336Z</time></trkpt><trkpt lat="45.9020801" lon="13.0815269"><ele>24.0</ele><time>2026-04-19T08:28:05.338Z</time></trkpt><trkpt lat="45.9018855" lon="13.081543"><ele>24.0</ele><time>2026-04-19T08:28:06.337Z</time></trkpt><trkpt lat="45.9016889" lon="13.0815625"><ele>24.0</ele><time>2026-04-19T08:28:07.356Z</time></trkpt><trkpt lat="45.9014962" lon="13.0815792"><ele>23.666666666666668</ele><time>2026-04-19T08:28:08.344Z</time></trkpt><trkpt lat="45.901299" lon="13.081598"><ele>23.333333333333336</ele><time>2026-04-19T08:28:09.343Z</time></trkpt><trkpt lat="45.9011004" lon="13.0816146"><ele>23.0</ele><time>2026-04-19T08:28:10.352Z</time></trkpt><trkpt lat="45.9009067" lon="13.0816281"><ele>21.0</ele><time>2026-04-19T08:28:11.342Z</time></trkpt><trkpt lat="45.9007115" lon="13.0816433"><ele>19.0</ele><time>2026-04-19T08:28:12.349Z</time></trkpt><trkpt lat="45.9005149" lon="13.0816573"><ele>17.0</ele><time>2026-04-19T08:28:13.336Z</time></trkpt><trkpt lat="45.9003239" lon="13.0816756"><ele>17.0</ele><time>2026-04-19T08:28:14.346Z</time></trkpt><trkpt lat="45.9001327" lon="13.0816893"><ele>17.0</ele><time>2026-04-19T08:28:15.337Z</time></trkpt><trkpt lat="45.899943" lon="13.081707"><ele>17.0</ele><time>2026-04-19T08:28:16.346Z</time></trkpt><trkpt lat="45.899753" lon="13.0817302"><ele>17.0</ele><time>2026-04-19T08:28:17.336Z</time></trkpt><trkpt lat="45.8995658" lon="13.0817485"><ele>17.0</ele><time>2026-04-19T08:28:18.337Z</time></trkpt><trkpt lat="45.8993777" lon="13.0817608"><ele>17.0</ele><time>2026-04-19T08:28:19.352Z</time></trkpt><trkpt lat="45.8991874" lon="13.0817743"><ele>16.666666666666668</ele><time>2026-04-19T08:28:20.342Z</time></trkpt><trkpt lat="45.8989991" lon="13.0817896"><ele>16.333333333333332</ele><time>2026-04-19T08:28:21.345Z</time></trkpt><trkpt lat="45.8988112" lon="13.0818012"><ele>16.0</ele><time>2026-04-19T08:28:22.346Z</time></trkpt><trkpt lat="45.8986218" lon="13.0818193"><ele>16.0</ele><time>2026-04-19T08:28:23.348Z</time></trkpt><trkpt lat="45.8984292" lon="13.0818419"><ele>16.0</ele><time>2026-04-19T08:28:24.339Z</time></trkpt><trkpt lat="45.8982417" lon="13.0818558"><ele>16.0</ele><time>2026-04-19T08:28:25.34Z</time></trkpt><trkpt lat="45.8980538" lon="13.0818669"><ele>16.0</ele><time>2026-04-19T08:28:26.343Z</time></trkpt><trkpt lat="45.897867" lon="13.0818835"><ele>16.0</ele><time>2026-04-19T08:28:27.351Z</time></trkpt><trkpt lat="45.897677" lon="13.0818992"><ele>16.0</ele><time>2026-04-19T08:28:28.338Z</time></trkpt><trkpt lat="45.8974897" lon="13.0819191"><ele>16.0</ele><time>2026-04-19T08:28:29.342Z</time></trkpt><trkpt lat="45.8972999" lon="13.0819407"><ele>16.0</ele><time>2026-04-19T08:28:30.345Z</time></trkpt><trkpt lat="45.8971142" lon="13.0819552"><ele>16.0</ele><time>2026-04-19T08:28:31.335Z</time></trkpt><trkpt lat="45.8969267" lon="13.0819693"><ele>17.0</ele><time>2026-04-19T08:28:32.359Z</time></trkpt><trkpt lat="45.8967414" lon="13.0819866"><ele>18.0</ele><time>2026-04-19T08:28:33.344Z</time></trkpt><trkpt lat="45.8965554" lon="13.0819999"><ele>19.0</ele><time>2026-04-19T08:28:34.339Z</time></trkpt><trkpt lat="45.8963752" lon="13.0820084"><ele>19.0</ele><time>2026-04-19T08:28:35.341Z</time></trkpt><trkpt lat="45.8961983" lon="13.0820075"><ele>19.0</ele><time>2026-04-19T08:28:36.346Z</time></trkpt><trkpt lat="45.8960197" lon="13.081979"><ele>19.0</ele><time>2026-04-19T08:28:37.342Z</time></trkpt><trkpt lat="45.8958403" lon="13.0819293"><ele>18.0</ele><time>2026-04-19T08:28:38.338Z</time></trkpt><trkpt lat="45.8956676" lon="13.0818651"><ele>17.0</ele><time>2026-04-19T08:28:39.345Z</time></trkpt><trkpt lat="45.8954944" lon="13.0817849"><ele>16.0</ele><time>2026-04-19T08:28:40.337Z</time></trkpt><trkpt lat="45.8953231" lon="13.0816918"><ele>16.333333333333332</ele><time>2026-04-19T08:28:41.332Z</time></trkpt><trkpt lat="45.8951579" lon="13.0815806"><ele>16.666666666666668</ele><time>2026-04-19T08:28:42.331Z</time></trkpt><trkpt lat="45.8949944" lon="13.0814585"><ele>17.0</ele><time>2026-04-19T08:28:43.346Z</time></trkpt><trkpt lat="45.8948311" lon="13.0813396"><ele>15.666666666666668</ele><time>2026-04-19T08:28:44.336Z</time></trkpt><trkpt lat="45.8946663" lon="13.0812243"><ele>14.333333333333332</ele><time>2026-04-19T08:28:45.336Z</time></trkpt><trkpt lat="45.8945045" lon="13.0811046"><ele>13.0</ele><time>2026-04-19T08:28:46.334Z</time></trkpt><trkpt lat="45.894343" lon="13.080985"><ele>13.333333333333332</ele><time>2026-04-19T08:28:47.343Z</time></trkpt><trkpt lat="45.8941763" lon="13.0808671"><ele>13.666666666666668</ele><time>2026-04-19T08:28:48.34Z</time></trkpt><trkpt lat="45.8940101" lon="13.0807481"><ele>14.0</ele><time>2026-04-19T08:28:49.349Z</time></trkpt><trkpt lat="45.893842" lon="13.0806285"><ele>14.0</ele><time>2026-04-19T08:28:50.331Z</time></trkpt><trkpt lat="45.8936737" lon="13.0805139"><ele>14.0</ele><time>2026-04-19T08:28:51.336Z</time></trkpt><trkpt lat="45.8935051" lon="13.0803978"><ele>14.0</ele><time>2026-04-19T08:28:52.343Z</time></trkpt><trkpt lat="45.8933396" lon="13.0802781"><ele>14.0</ele><time>2026-04-19T08:28:53.354Z</time></trkpt><trkpt lat="45.8931718" lon="13.0801501"><ele>14.0</ele><time>2026-04-19T08:28:54.34Z</time></trkpt><trkpt lat="45.8930016" lon="13.0800309"><ele>14.0</ele><time>2026-04-19T08:28:55.343Z</time></trkpt><trkpt lat="45.8928318" lon="13.0799117"><ele>14.333333333333334</ele><time>2026-04-19T08:28:56.331Z</time></trkpt><trkpt lat="45.8926619" lon="13.0797886"><ele>14.666666666666668</ele><time>2026-04-19T08:28:57.336Z</time></trkpt><trkpt lat="45.8924962" lon="13.0796659"><ele>15.0</ele><time>2026-04-19T08:28:58.336Z</time></trkpt><trkpt lat="45.8923274" lon="13.0795463"><ele>15.0</ele><time>2026-04-19T08:28:59.339Z</time></trkpt><trkpt lat="45.8921607" lon="13.0794222"><ele>15.0</ele><time>2026-04-19T08:29:00.342Z</time></trkpt><trkpt lat="45.8919927" lon="13.0793019"><ele>15.0</ele><time>2026-04-19T08:29:01.345Z</time></trkpt><trkpt lat="45.8918253" lon="13.0791805"><ele>14.0</ele><time>2026-04-19T08:29:02.337Z</time></trkpt><trkpt lat="45.8916566" lon="13.0790621"><ele>13.0</ele><time>2026-04-19T08:29:03.341Z</time></trkpt><trkpt lat="45.8914929" lon="13.0789438"><ele>12.0</ele><time>2026-04-19T08:29:04.34Z</time></trkpt><trkpt lat="45.8913275" lon="13.0788208"><ele>12.0</ele><time>2026-04-19T08:29:05.335Z</time></trkpt><trkpt lat="45.8911649" lon="13.0787067"><ele>12.0</ele><time>2026-04-19T08:29:06.338Z</time></trkpt><trkpt lat="45.8910017" lon="13.0785905"><ele>12.0</ele><time>2026-04-19T08:29:07.34Z</time></trkpt><trkpt lat="45.890835" lon="13.0784762"><ele>12.666666666666668</ele><time>2026-04-19T08:29:08.353Z</time></trkpt><trkpt lat="45.8906726" lon="13.0783652"><ele>13.333333333333334</ele><time>2026-04-19T08:29:09.328Z</time></trkpt><trkpt lat="45.8905141" lon="13.0782501"><ele>14.0</ele><time>2026-04-19T08:29:10.35Z</time></trkpt><trkpt lat="45.8903532" lon="13.0781387"><ele>15.0</ele><time>2026-04-19T08:29:11.337Z</time></trkpt><trkpt lat="45.8901947" lon="13.0780265"><ele>16.0</ele><time>2026-04-19T08:29:12.334Z</time></trkpt><trkpt lat="45.8900384" lon="13.0779114"><ele>17.0</ele><time>2026-04-19T08:29:13.341Z</time></trkpt><trkpt lat="45.8898834" lon="13.0777945"><ele>17.0</ele><time>2026-04-19T08:29:14.337Z</time></trkpt><trkpt lat="45.8897218" lon="13.0776856"><ele>17.0</ele><time>2026-04-19T08:29:15.336Z</time></trkpt><trkpt lat="45.889565" lon="13.0775716"><ele>17.0</ele><time>2026-04-19T08:29:16.346Z</time></trkpt><trkpt lat="45.8894078" lon="13.0774592"><ele>15.333333333333334</ele><time>2026-04-19T08:29:17.349Z</time></trkpt><trkpt lat="45.8892491" lon="13.0773471"><ele>13.666666666666668</ele><time>2026-04-19T08:29:18.346Z</time></trkpt><trkpt lat="45.8890943" lon="13.0772349"><ele>12.0</ele><time>2026-04-19T08:29:19.348Z</time></trkpt><trkpt lat="45.8889352" lon="13.0771237"><ele>12.0</ele><time>2026-04-19T08:29:20.342Z</time></trkpt><trkpt lat="45.8887811" lon="13.0770098"><ele>12.0</ele><time>2026-04-19T08:29:21.332Z</time></trkpt><trkpt lat="45.8886275" lon="13.0768993"><ele>12.0</ele><time>2026-04-19T08:29:22.339Z</time></trkpt><trkpt lat="45.8884683" lon="13.076787"><ele>12.0</ele><time>2026-04-19T08:29:23.343Z</time></trkpt><trkpt lat="45.8883076" lon="13.0766708"><ele>12.0</ele><time>2026-04-19T08:29:24.346Z</time></trkpt><trkpt lat="45.8881458" lon="13.0765552"><ele>12.0</ele><time>2026-04-19T08:29:25.334Z</time></trkpt><trkpt lat="45.8879829" lon="13.0764411"><ele>12.0</ele><time>2026-04-19T08:29:26.351Z</time></trkpt><trkpt lat="45.8878166" lon="13.0763286"><ele>12.0</ele><time>2026-04-19T08:29:27.337Z</time></trkpt><trkpt lat="45.8876488" lon="13.076217"><ele>12.0</ele><time>2026-04-19T08:29:28.344Z</time></trkpt><trkpt lat="45.8874812" lon="13.0761013"><ele>12.666666666666668</ele><time>2026-04-19T08:29:29.353Z</time></trkpt><trkpt lat="45.8873148" lon="13.0759813"><ele>13.333333333333334</ele><time>2026-04-19T08:29:30.344Z</time></trkpt><trkpt lat="45.8871509" lon="13.0758653"><ele>14.0</ele><time>2026-04-19T08:29:31.35Z</time></trkpt><trkpt lat="45.8869912" lon="13.0757458"><ele>14.666666666666668</ele><time>2026-04-19T08:29:32.344Z</time></trkpt><trkpt lat="45.8868338" lon="13.0756309"><ele>15.333333333333332</ele><time>2026-04-19T08:29:33.344Z</time></trkpt><trkpt lat="45.8866861" lon="13.0755193"><ele>16.0</ele><time>2026-04-19T08:29:34.337Z</time></trkpt><trkpt lat="45.8865457" lon="13.0754183"><ele>14.75</ele><time>2026-04-19T08:29:35.339Z</time></trkpt><trkpt lat="45.8864075" lon="13.0753197"><ele>13.5</ele><time>2026-04-19T08:29:36.33Z</time></trkpt><trkpt lat="45.886276" lon="13.0752266"><ele>12.25</ele><time>2026-04-19T08:29:37.336Z</time></trkpt><trkpt lat="45.8861584" lon="13.0751473"><ele>11.0</ele><time>2026-04-19T08:29:38.349Z</time></trkpt><trkpt lat="45.8860527" lon="13.0750641"><ele>11.0</ele><time>2026-04-19T08:29:39.347Z</time></trkpt><trkpt lat="45.8859581" lon="13.0749854"><ele>11.0</ele><time>2026-04-19T08:29:40.355Z</time></trkpt><trkpt lat="45.8858709" lon="13.0749073"><ele>11.0</ele><time>2026-04-19T08:29:41.343Z</time></trkpt><trkpt lat="45.8857742" lon="13.0748398"><ele>11.0</ele><time>2026-04-19T08:29:42.342Z</time></trkpt><trkpt lat="45.8856684" lon="13.0747869"><ele>11.0</ele><time>2026-04-19T08:29:43.345Z</time></trkpt><trkpt lat="45.8855606" lon="13.0747257"><ele>11.25</ele><time>2026-04-19T08:29:44.351Z</time></trkpt><trkpt lat="45.8854485" lon="13.0746469"><ele>11.5</ele><time>2026-04-19T08:29:45.354Z</time></trkpt><trkpt lat="45.885343" lon="13.0745547"><ele>11.75</ele><time>2026-04-19T08:29:46.335Z</time></trkpt><trkpt lat="45.8852413" lon="13.0744863"><ele>12.0</ele><time>2026-04-19T08:29:47.339Z</time></trkpt><trkpt lat="45.8851371" lon="13.0744045"><ele>12.5</ele><time>2026-04-19T08:29:48.346Z</time></trkpt><trkpt lat="45.8850234" lon="13.0743237"><ele>13.0</ele><time>2026-04-19T08:29:49.346Z</time></trkpt><trkpt lat="45.8849063" lon="13.0742377"><ele>13.5</ele><time>2026-04-19T08:29:50.34Z</time></trkpt><trkpt lat="45.8847916" lon="13.0741522"><ele>14.0</ele><time>2026-04-19T08:29:51.339Z</time></trkpt><trkpt lat="45.884671" lon="13.0740712"><ele>14.0</ele><time>2026-04-19T08:29:52.34Z</time></trkpt><trkpt lat="45.8845524" lon="13.073989"><ele>14.0</ele><time>2026-04-19T08:29:53.326Z</time></trkpt><trkpt lat="45.8844331" lon="13.0739035"><ele>14.0</ele><time>2026-04-19T08:29:54.347Z</time></trkpt><trkpt lat="45.8843115" lon="13.0738141"><ele>14.0</ele><time>2026-04-19T08:29:55.339Z</time></trkpt><trkpt lat="45.8841885" lon="13.0737295"><ele>14.0</ele><time>2026-04-19T08:29:56.359Z</time></trkpt><trkpt lat="45.8840698" lon="13.0736446"><ele>14.0</ele><time>2026-04-19T08:29:57.333Z</time></trkpt><trkpt lat="45.8839459" lon="13.0735599"><ele>14.0</ele><time>2026-04-19T08:29:58.339Z</time></trkpt><trkpt lat="45.8838271" lon="13.0734789"><ele>14.0</ele><time>2026-04-19T08:29:59.347Z</time></trkpt><trkpt lat="45.8837152" lon="13.0734012"><ele>14.0</ele><time>2026-04-19T08:30:00.344Z</time></trkpt><trkpt lat="45.8836071" lon="13.0733193"><ele>14.0</ele><time>2026-04-19T08:30:01.34Z</time></trkpt><trkpt lat="45.8835049" lon="13.0732416"><ele>14.0</ele><time>2026-04-19T08:30:02.351Z</time></trkpt><trkpt lat="45.8834071" lon="13.0731661"><ele>14.0</ele><time>2026-04-19T08:30:03.334Z</time></trkpt><trkpt lat="45.8833056" lon="13.0730915"><ele>13.799999999999999</ele><time>2026-04-19T08:30:04.363Z</time></trkpt><trkpt lat="45.8832077" lon="13.0730275"><ele>13.599999999999998</ele><time>2026-04-19T08:30:05.332Z</time></trkpt><trkpt lat="45.8831148" lon="13.0729683"><ele>13.4</ele><time>2026-04-19T08:30:06.345Z</time></trkpt><trkpt lat="45.8830298" lon="13.0729147"><ele>13.2</ele><time>2026-04-19T08:30:07.331Z</time></trkpt><trkpt lat="45.8829573" lon="13.0728628"><ele>13.0</ele><time>2026-04-19T08:30:08.342Z</time></trkpt><trkpt lat="45.8828995" lon="13.072814"><ele>13.0</ele><time>2026-04-19T08:30:09.339Z</time></trkpt><trkpt lat="45.8828224" lon="13.0727226"><ele>13.0</ele><time>2026-04-19T08:30:11.343Z</time></trkpt><trkpt lat="45.8828157" lon="13.0726068"><ele>13.0</ele><time>2026-04-19T08:30:14.341Z</time></trkpt><trkpt lat="45.8828772" lon="13.0724767"><ele>13.0</ele><time>2026-04-19T08:30:16.327Z</time></trkpt><trkpt lat="45.8829579" lon="13.0723563"><ele>13.0</ele><time>2026-04-19T08:30:18.334Z</time></trkpt><trkpt lat="45.8830057" lon="13.0722755"><ele>12.833333333333332</ele><time>2026-04-19T08:30:19.338Z</time></trkpt><trkpt lat="45.8830514" lon="13.0721944"><ele>12.666666666666666</ele><time>2026-04-19T08:30:20.34Z</time></trkpt><trkpt lat="45.883098" lon="13.0721137"><ele>12.5</ele><time>2026-04-19T08:30:21.343Z</time></trkpt><trkpt lat="45.883148" lon="13.0720271"><ele>12.333333333333332</ele><time>2026-04-19T08:30:22.346Z</time></trkpt><trkpt lat="45.8831988" lon="13.0719355"><ele>12.166666666666666</ele><time>2026-04-19T08:30:23.346Z</time></trkpt><trkpt lat="45.8832511" lon="13.0718457"><ele>12.0</ele><time>2026-04-19T08:30:24.347Z</time></trkpt><trkpt lat="45.8833048" lon="13.0717509"><ele>12.0</ele><time>2026-04-19T08:30:25.347Z</time></trkpt><trkpt lat="45.8833595" lon="13.0716596"><ele>12.0</ele><time>2026-04-19T08:30:26.344Z</time></trkpt><trkpt lat="45.8834142" lon="13.0715688"><ele>12.0</ele><time>2026-04-19T08:30:27.34Z</time></trkpt><trkpt lat="45.8834719" lon="13.0714741"><ele>12.0</ele><time>2026-04-19T08:30:28.347Z</time></trkpt><trkpt lat="45.8835233" lon="13.0713741"><ele>12.0</ele><time>2026-04-19T08:30:29.347Z</time></trkpt><trkpt lat="45.8835761" lon="13.0712783"><ele>12.0</ele><time>2026-04-19T08:30:30.349Z</time></trkpt><trkpt lat="45.8836312" lon="13.0711818"><ele>12.333333333333334</ele><time>2026-04-19T08:30:31.339Z</time></trkpt><trkpt lat="45.8836836" lon="13.0710932"><ele>12.666666666666668</ele><time>2026-04-19T08:30:32.348Z</time></trkpt><trkpt lat="45.8837437" lon="13.0709992"><ele>13.0</ele><time>2026-04-19T08:30:33.345Z</time></trkpt><trkpt lat="45.8838003" lon="13.0709001"><ele>13.333333333333334</ele><time>2026-04-19T08:30:34.339Z</time></trkpt><trkpt lat="45.8838617" lon="13.0708016"><ele>13.666666666666668</ele><time>2026-04-19T08:30:35.347Z</time></trkpt><trkpt lat="45.8839202" lon="13.0707042"><ele>14.0</ele><time>2026-04-19T08:30:36.34Z</time></trkpt><trkpt lat="45.8839763" lon="13.0706046"><ele>14.000000000000002</ele><time>2026-04-19T08:30:37.346Z</time></trkpt><trkpt lat="45.8840309" lon="13.0705136"><ele>14.0</ele><time>2026-04-19T08:30:38.346Z</time></trkpt><trkpt lat="45.8840764" lon="13.0704212"><ele>14.0</ele><time>2026-04-19T08:30:39.344Z</time></trkpt><trkpt lat="45.884123" lon="13.0703438"><ele>14.0</ele><time>2026-04-19T08:30:40.343Z</time></trkpt><trkpt lat="45.8841692" lon="13.0702597"><ele>14.000000000000002</ele><time>2026-04-19T08:30:41.34Z</time></trkpt><trkpt lat="45.8842184" lon="13.0701812"><ele>14.0</ele><time>2026-04-19T08:30:42.339Z</time></trkpt><trkpt lat="45.8842627" lon="13.070105"><ele>14.000000000000002</ele><time>2026-04-19T08:30:43.323Z</time></trkpt><trkpt lat="45.8843229" lon="13.0700104"><ele>14.0</ele><time>2026-04-19T08:30:45.329Z</time></trkpt><trkpt lat="45.8843843" lon="13.069967"><ele>14.0</ele><time>2026-04-19T08:30:50.359Z</time></trkpt><trkpt lat="45.8844308" lon="13.0698841"><ele>14.0</ele><time>2026-04-19T08:30:53.36Z</time></trkpt><trkpt lat="45.8844249" lon="13.0697374"><ele>14.000000000000002</ele><time>2026-04-19T08:30:55.369Z</time></trkpt><trkpt lat="45.8843975" lon="13.0695781"><ele>14.0</ele><time>2026-04-19T08:30:57.346Z</time></trkpt><trkpt lat="45.8843834" lon="13.0694654"><ele>14.000000000000002</ele><time>2026-04-19T08:30:58.337Z</time></trkpt><trkpt lat="45.884371" lon="13.0693546"><ele>14.0</ele><time>2026-04-19T08:30:59.339Z</time></trkpt><trkpt lat="45.8843612" lon="13.0692536"><ele>14.0</ele><time>2026-04-19T08:31:00.336Z</time></trkpt><trkpt lat="45.8843482" lon="13.0691332"><ele>14.0</ele><time>2026-04-19T08:31:01.348Z</time></trkpt><trkpt lat="45.884334" lon="13.0690089"><ele>14.000000000000002</ele><time>2026-04-19T08:31:02.342Z</time></trkpt><trkpt lat="45.884313" lon="13.0688771"><ele>14.0</ele><time>2026-04-19T08:31:03.351Z</time></trkpt><trkpt lat="45.8842892" lon="13.0687354"><ele>14.2</ele><time>2026-04-19T08:31:04.361Z</time></trkpt><trkpt lat="45.8842705" lon="13.0685975"><ele>14.399999999999999</ele><time>2026-04-19T08:31:05.334Z</time></trkpt><trkpt lat="45.8842518" lon="13.0684563"><ele>14.6</ele><time>2026-04-19T08:31:06.343Z</time></trkpt><trkpt lat="45.8842304" lon="13.0683086"><ele>14.8</ele><time>2026-04-19T08:31:07.337Z</time></trkpt><trkpt lat="45.8842102" lon="13.0681555"><ele>15.0</ele><time>2026-04-19T08:31:08.346Z</time></trkpt><trkpt lat="45.8841798" lon="13.0679989"><ele>14.25</ele><time>2026-04-19T08:31:09.334Z</time></trkpt><trkpt lat="45.8841542" lon="13.0678392"><ele>13.5</ele><time>2026-04-19T08:31:10.348Z</time></trkpt><trkpt lat="45.8841307" lon="13.0676717"><ele>12.75</ele><time>2026-04-19T08:31:11.345Z</time></trkpt><trkpt lat="45.8841073" lon="13.067502"><ele>12.0</ele><time>2026-04-19T08:31:12.35Z</time></trkpt><trkpt lat="45.8840828" lon="13.0673328"><ele>11.5</ele><time>2026-04-19T08:31:13.342Z</time></trkpt><trkpt lat="45.8840622" lon="13.0671618"><ele>11.0</ele><time>2026-04-19T08:31:14.344Z</time></trkpt><trkpt lat="45.8840355" lon="13.0669973"><ele>10.5</ele><time>2026-04-19T08:31:15.351Z</time></trkpt><trkpt lat="45.8840159" lon="13.0668234"><ele>10.0</ele><time>2026-04-19T08:31:16.341Z</time></trkpt><trkpt lat="45.8839965" lon="13.066649"><ele>10.25</ele><time>2026-04-19T08:31:17.334Z</time></trkpt><trkpt lat="45.8839734" lon="13.0664749"><ele>10.5</ele><time>2026-04-19T08:31:18.348Z</time></trkpt><trkpt lat="45.8839521" lon="13.0662994"><ele>10.75</ele><time>2026-04-19T08:31:19.346Z</time></trkpt><trkpt lat="45.8839238" lon="13.0661276"><ele>11.0</ele><time>2026-04-19T08:31:20.348Z</time></trkpt><trkpt lat="45.8838998" lon="13.0659515"><ele>10.75</ele><time>2026-04-19T08:31:21.346Z</time></trkpt><trkpt lat="45.8838759" lon="13.0657767"><ele>10.5</ele><time>2026-04-19T08:31:22.342Z</time></trkpt><trkpt lat="45.8838512" lon="13.0656106"><ele>10.25</ele><time>2026-04-19T08:31:23.34Z</time></trkpt><trkpt lat="45.8838263" lon="13.0654393"><ele>10.0</ele><time>2026-04-19T08:31:24.34Z</time></trkpt><trkpt lat="45.8838047" lon="13.0652663"><ele>10.0</ele><time>2026-04-19T08:31:25.34Z</time></trkpt><trkpt lat="45.8837817" lon="13.0650846"><ele>10.0</ele><time>2026-04-19T08:31:26.347Z</time></trkpt><trkpt lat="45.8837564" lon="13.0649031"><ele>10.0</ele><time>2026-04-19T08:31:27.354Z</time></trkpt><trkpt lat="45.8837346" lon="13.0647145"><ele>10.0</ele><time>2026-04-19T08:31:28.339Z</time></trkpt><trkpt lat="45.8837109" lon="13.0645261"><ele>9.75</ele><time>2026-04-19T08:31:29.346Z</time></trkpt><trkpt lat="45.8836824" lon="13.0643328"><ele>9.5</ele><time>2026-04-19T08:31:30.326Z</time></trkpt><trkpt lat="45.8836546" lon="13.0641396"><ele>9.25</ele><time>2026-04-19T08:31:31.341Z</time></trkpt><trkpt lat="45.8836238" lon="13.0639483"><ele>9.0</ele><time>2026-04-19T08:31:32.341Z</time></trkpt><trkpt lat="45.8835982" lon="13.0637484"><ele>9.0</ele><time>2026-04-19T08:31:33.369Z</time></trkpt><trkpt lat="45.8835712" lon="13.063542"><ele>9.0</ele><time>2026-04-19T08:31:34.338Z</time></trkpt><trkpt lat="45.8835423" lon="13.0633403"><ele>9.0</ele><time>2026-04-19T08:31:35.339Z</time></trkpt><trkpt lat="45.8835125" lon="13.0631404"><ele>9.0</ele><time>2026-04-19T08:31:36.34Z</time></trkpt><trkpt lat="45.8834789" lon="13.0629414"><ele>9.0</ele><time>2026-04-19T08:31:37.345Z</time></trkpt><trkpt lat="45.8834491" lon="13.0627414"><ele>9.0</ele><time>2026-04-19T08:31:38.346Z</time></trkpt><trkpt lat="45.8834243" lon="13.0625428"><ele>9.0</ele><time>2026-04-19T08:31:39.339Z</time></trkpt><trkpt lat="45.8833991" lon="13.0623452"><ele>9.0</ele><time>2026-04-19T08:31:40.336Z</time></trkpt><trkpt lat="45.8833738" lon="13.0621541"><ele>9.5</ele><time>2026-04-19T08:31:41.337Z</time></trkpt><trkpt lat="45.8833501" lon="13.0619664"><ele>10.0</ele><time>2026-04-19T08:31:42.337Z</time></trkpt><trkpt lat="45.8833217" lon="13.0617831"><ele>10.5</ele><time>2026-04-19T08:31:43.345Z</time></trkpt><trkpt lat="45.883299" lon="13.0615977"><ele>11.0</ele><time>2026-04-19T08:31:44.337Z</time></trkpt><trkpt lat="45.8832711" lon="13.0614138"><ele>11.0</ele><time>2026-04-19T08:31:45.33Z</time></trkpt><trkpt lat="45.8832467" lon="13.0612339"><ele>11.0</ele><time>2026-04-19T08:31:46.334Z</time></trkpt><trkpt lat="45.8832233" lon="13.0610444"><ele>11.0</ele><time>2026-04-19T08:31:47.34Z</time></trkpt><trkpt lat="45.8832" lon="13.0608522"><ele>11.0</ele><time>2026-04-19T08:31:48.341Z</time></trkpt><trkpt lat="45.8831703" lon="13.0606676"><ele>11.25</ele><time>2026-04-19T08:31:49.34Z</time></trkpt><trkpt lat="45.8831414" lon="13.0604783"><ele>11.5</ele><time>2026-04-19T08:31:50.342Z</time></trkpt><trkpt lat="45.883114" lon="13.0602949"><ele>11.75</ele><time>2026-04-19T08:31:51.339Z</time></trkpt><trkpt lat="45.8830871" lon="13.060106"><ele>12.0</ele><time>2026-04-19T08:31:52.341Z</time></trkpt><trkpt lat="45.8830623" lon="13.0599175"><ele>12.5</ele><time>2026-04-19T08:31:53.352Z</time></trkpt><trkpt lat="45.8830355" lon="13.0597413"><ele>13.0</ele><time>2026-04-19T08:31:54.343Z</time></trkpt><trkpt lat="45.8830129" lon="13.0595784"><ele>13.5</ele><time>2026-04-19T08:31:55.335Z</time></trkpt><trkpt lat="45.8829888" lon="13.0594149"><ele>14.0</ele><time>2026-04-19T08:31:56.346Z</time></trkpt><trkpt lat="45.8829643" lon="13.0592376"><ele>13.25</ele><time>2026-04-19T08:31:57.342Z</time></trkpt><trkpt lat="45.8829319" lon="13.0590684"><ele>12.5</ele><time>2026-04-19T08:31:58.331Z</time></trkpt><trkpt lat="45.8829059" lon="13.0589032"><ele>11.75</ele><time>2026-04-19T08:31:59.351Z</time></trkpt><trkpt lat="45.8828852" lon="13.0587241"><ele>11.0</ele><time>2026-04-19T08:32:00.334Z</time></trkpt><trkpt lat="45.8828685" lon="13.0585461"><ele>11.0</ele><time>2026-04-19T08:32:01.342Z</time></trkpt><trkpt lat="45.8828478" lon="13.0583648"><ele>11.0</ele><time>2026-04-19T08:32:02.343Z</time></trkpt><trkpt lat="45.8828237" lon="13.0581796"><ele>11.0</ele><time>2026-04-19T08:32:03.341Z</time></trkpt><trkpt lat="45.8827986" lon="13.0579899"><ele>11.0</ele><time>2026-04-19T08:32:04.343Z</time></trkpt><trkpt lat="45.8827695" lon="13.0577984"><ele>11.0</ele><time>2026-04-19T08:32:05.341Z</time></trkpt><trkpt lat="45.8827411" lon="13.0576023"><ele>11.0</ele><time>2026-04-19T08:32:06.343Z</time></trkpt><trkpt lat="45.8827163" lon="13.0574076"><ele>11.0</ele><time>2026-04-19T08:32:07.343Z</time></trkpt><trkpt lat="45.8826896" lon="13.0572163"><ele>11.0</ele><time>2026-04-19T08:32:08.34Z</time></trkpt><trkpt lat="45.8826602" lon="13.0570243"><ele>11.25</ele><time>2026-04-19T08:32:09.346Z</time></trkpt><trkpt lat="45.8826321" lon="13.0568344"><ele>11.5</ele><time>2026-04-19T08:32:10.339Z</time></trkpt><trkpt lat="45.8826081" lon="13.0566463"><ele>11.75</ele><time>2026-04-19T08:32:11.351Z</time></trkpt><trkpt lat="45.8825787" lon="13.0564596"><ele>12.0</ele><time>2026-04-19T08:32:12.336Z</time></trkpt><trkpt lat="45.8825552" lon="13.0562676"><ele>12.0</ele><time>2026-04-19T08:32:13.343Z</time></trkpt><trkpt lat="45.88253" lon="13.0560747"><ele>12.0</ele><time>2026-04-19T08:32:14.344Z</time></trkpt><trkpt lat="45.8825037" lon="13.0558805"><ele>12.0</ele><time>2026-04-19T08:32:15.336Z</time></trkpt><trkpt lat="45.8824756" lon="13.0556831"><ele>12.0</ele><time>2026-04-19T08:32:16.346Z</time></trkpt><trkpt lat="45.8824469" lon="13.0554831"><ele>12.0</ele><time>2026-04-19T08:32:17.353Z</time></trkpt><trkpt lat="45.8824172" lon="13.0552806"><ele>12.0</ele><time>2026-04-19T08:32:18.339Z</time></trkpt><trkpt lat="45.8823857" lon="13.0550832"><ele>12.0</ele><time>2026-04-19T08:32:19.343Z</time></trkpt><trkpt lat="45.8823525" lon="13.0548811"><ele>12.0</ele><time>2026-04-19T08:32:20.345Z</time></trkpt><trkpt lat="45.8823203" lon="13.0546855"><ele>12.75</ele><time>2026-04-19T08:32:21.342Z</time></trkpt><trkpt lat="45.8822908" lon="13.0544875"><ele>13.5</ele><time>2026-04-19T08:32:22.343Z</time></trkpt><trkpt lat="45.8822609" lon="13.0542917"><ele>14.25</ele><time>2026-04-19T08:32:23.346Z</time></trkpt><trkpt lat="45.8822206" lon="13.0540973"><ele>15.0</ele><time>2026-04-19T08:32:24.345Z</time></trkpt><trkpt lat="45.8821791" lon="13.0539017"><ele>15.0</ele><time>2026-04-19T08:32:25.349Z</time></trkpt><trkpt lat="45.8821361" lon="13.0536992"><ele>15.0</ele><time>2026-04-19T08:32:26.351Z</time></trkpt><trkpt lat="45.8820885" lon="13.0534902"><ele>15.0</ele><time>2026-04-19T08:32:27.343Z</time></trkpt><trkpt lat="45.8820408" lon="13.053292"><ele>15.0</ele><time>2026-04-19T08:32:28.349Z</time></trkpt><trkpt lat="45.8819907" lon="13.0530977"><ele>15.0</ele><time>2026-04-19T08:32:29.327Z</time></trkpt><trkpt lat="45.8819364" lon="13.0529032"><ele>15.0</ele><time>2026-04-19T08:32:30.337Z</time></trkpt><trkpt lat="45.8818819" lon="13.0527058"><ele>15.0</ele><time>2026-04-19T08:32:31.337Z</time></trkpt><trkpt lat="45.8818255" lon="13.0525195"><ele>15.0</ele><time>2026-04-19T08:32:32.353Z</time></trkpt><trkpt lat="45.8817675" lon="13.0523325"><ele>14.25</ele><time>2026-04-19T08:32:33.357Z</time></trkpt><trkpt lat="45.8817092" lon="13.052149"><ele>13.5</ele><time>2026-04-19T08:32:34.354Z</time></trkpt><trkpt lat="45.8816475" lon="13.0519618"><ele>12.75</ele><time>2026-04-19T08:32:35.341Z</time></trkpt><trkpt lat="45.8815831" lon="13.0517786"><ele>12.0</ele><time>2026-04-19T08:32:36.336Z</time></trkpt><trkpt lat="45.8815183" lon="13.0515915"><ele>11.75</ele><time>2026-04-19T08:32:37.341Z</time></trkpt><trkpt lat="45.8814528" lon="13.0514067"><ele>11.5</ele><time>2026-04-19T08:32:38.343Z</time></trkpt><trkpt lat="45.8813892" lon="13.0512291"><ele>11.25</ele><time>2026-04-19T08:32:39.336Z</time></trkpt><trkpt lat="45.8813204" lon="13.0510543"><ele>11.0</ele><time>2026-04-19T08:32:40.337Z</time></trkpt><trkpt lat="45.881252" lon="13.0508748"><ele>11.75</ele><time>2026-04-19T08:32:41.345Z</time></trkpt><trkpt lat="45.8811804" lon="13.050697"><ele>12.5</ele><time>2026-04-19T08:32:42.349Z</time></trkpt><trkpt lat="45.881108" lon="13.0505128"><ele>13.25</ele><time>2026-04-19T08:32:43.337Z</time></trkpt><trkpt lat="45.881038" lon="13.0503283"><ele>14.0</ele><time>2026-04-19T08:32:44.348Z</time></trkpt><trkpt lat="45.8809673" lon="13.0501404"><ele>13.5</ele><time>2026-04-19T08:32:45.346Z</time></trkpt><trkpt lat="45.8809015" lon="13.0499568"><ele>13.0</ele><time>2026-04-19T08:32:46.346Z</time></trkpt><trkpt lat="45.8808303" lon="13.0497771"><ele>12.5</ele><time>2026-04-19T08:32:47.353Z</time></trkpt><trkpt lat="45.8807607" lon="13.0496043"><ele>12.0</ele><time>2026-04-19T08:32:48.337Z</time></trkpt><trkpt lat="45.8806947" lon="13.049436"><ele>12.0</ele><time>2026-04-19T08:32:49.345Z</time></trkpt><trkpt lat="45.8806328" lon="13.0492676"><ele>12.0</ele><time>2026-04-19T08:32:50.336Z</time></trkpt><trkpt lat="45.880568" lon="13.0491031"><ele>12.0</ele><time>2026-04-19T08:32:51.336Z</time></trkpt><trkpt lat="45.8805122" lon="13.0489377"><ele>12.0</ele><time>2026-04-19T08:32:52.332Z</time></trkpt><trkpt lat="45.8804513" lon="13.0487751"><ele>12.0</ele><time>2026-04-19T08:32:53.344Z</time></trkpt><trkpt lat="45.8803904" lon="13.0486094"><ele>12.0</ele><time>2026-04-19T08:32:54.348Z</time></trkpt><trkpt lat="45.8803336" lon="13.048444"><ele>12.0</ele><time>2026-04-19T08:32:55.334Z</time></trkpt><trkpt lat="45.8802857" lon="13.0482786"><ele>12.0</ele><time>2026-04-19T08:32:56.34Z</time></trkpt><trkpt lat="45.8802342" lon="13.0481121"><ele>12.0</ele><time>2026-04-19T08:32:57.347Z</time></trkpt><trkpt lat="45.8801818" lon="13.0479461"><ele>12.0</ele><time>2026-04-19T08:32:58.341Z</time></trkpt><trkpt lat="45.8801275" lon="13.0477831"><ele>12.0</ele><time>2026-04-19T08:32:59.35Z</time></trkpt><trkpt lat="45.880079" lon="13.0476192"><ele>12.0</ele><time>2026-04-19T08:33:00.336Z</time></trkpt><trkpt lat="45.8800358" lon="13.0474598"><ele>12.0</ele><time>2026-04-19T08:33:01.337Z</time></trkpt><trkpt lat="45.8799903" lon="13.0473099"><ele>12.0</ele><time>2026-04-19T08:33:02.331Z</time></trkpt><trkpt lat="45.8799425" lon="13.0471558"><ele>12.0</ele><time>2026-04-19T08:33:03.333Z</time></trkpt><trkpt lat="45.8798977" lon="13.046999"><ele>12.0</ele><time>2026-04-19T08:33:04.331Z</time></trkpt><trkpt lat="45.879852" lon="13.0468366"><ele>12.0</ele><time>2026-04-19T08:33:05.338Z</time></trkpt><trkpt lat="45.8798084" lon="13.0466788"><ele>12.0</ele><time>2026-04-19T08:33:06.341Z</time></trkpt><trkpt lat="45.8797643" lon="13.0465175"><ele>12.0</ele><time>2026-04-19T08:33:07.347Z</time></trkpt><trkpt lat="45.8797154" lon="13.04637"><ele>12.0</ele><time>2026-04-19T08:33:08.339Z</time></trkpt><trkpt lat="45.8796682" lon="13.0462108"><ele>12.0</ele><time>2026-04-19T08:33:09.343Z</time></trkpt><trkpt lat="45.8796207" lon="13.0460539"><ele>12.0</ele><time>2026-04-19T08:33:10.338Z</time></trkpt><trkpt lat="45.8795779" lon="13.0459083"><ele>12.0</ele><time>2026-04-19T08:33:11.351Z</time></trkpt><trkpt lat="45.8795359" lon="13.0457653"><ele>12.0</ele><time>2026-04-19T08:33:12.353Z</time></trkpt><trkpt lat="45.8794947" lon="13.0456327"><ele>12.0</ele><time>2026-04-19T08:33:13.351Z</time></trkpt><trkpt lat="45.8794577" lon="13.045507"><ele>12.399999999999999</ele><time>2026-04-19T08:33:14.352Z</time></trkpt><trkpt lat="45.8794209" lon="13.0453887"><ele>12.799999999999999</ele><time>2026-04-19T08:33:15.347Z</time></trkpt><trkpt lat="45.8793824" lon="13.0452566"><ele>13.2</ele><time>2026-04-19T08:33:16.341Z</time></trkpt><trkpt lat="45.8793502" lon="13.0451269"><ele>13.6</ele><time>2026-04-19T08:33:17.34Z</time></trkpt><trkpt lat="45.8793162" lon="13.0449995"><ele>14.0</ele><time>2026-04-19T08:33:18.341Z</time></trkpt><trkpt lat="45.8792735" lon="13.0448657"><ele>14.0</ele><time>2026-04-19T08:33:19.34Z</time></trkpt><trkpt lat="45.8792347" lon="13.0447344"><ele>13.999999999999998</ele><time>2026-04-19T08:33:20.346Z</time></trkpt><trkpt lat="45.8791937" lon="13.0446023"><ele>13.999999999999998</ele><time>2026-04-19T08:33:21.345Z</time></trkpt><trkpt lat="45.8791559" lon="13.0444696"><ele>14.0</ele><time>2026-04-19T08:33:22.337Z</time></trkpt><trkpt lat="45.8791168" lon="13.0443288"><ele>14.0</ele><time>2026-04-19T08:33:23.356Z</time></trkpt><trkpt lat="45.8790772" lon="13.0441889"><ele>14.25</ele><time>2026-04-19T08:33:24.357Z</time></trkpt><trkpt lat="45.879035" lon="13.0440465"><ele>14.5</ele><time>2026-04-19T08:33:25.336Z</time></trkpt><trkpt lat="45.878992" lon="13.0438994"><ele>14.75</ele><time>2026-04-19T08:33:26.347Z</time></trkpt><trkpt lat="45.8789514" lon="13.043741"><ele>15.0</ele><time>2026-04-19T08:33:27.335Z</time></trkpt><trkpt lat="45.878906" lon="13.0435895"><ele>15.0</ele><time>2026-04-19T08:33:28.341Z</time></trkpt><trkpt lat="45.8788642" lon="13.0434397"><ele>15.0</ele><time>2026-04-19T08:33:29.346Z</time></trkpt><trkpt lat="45.8788236" lon="13.0432866"><ele>15.0</ele><time>2026-04-19T08:33:30.33Z</time></trkpt><trkpt lat="45.8787783" lon="13.0431301"><ele>15.0</ele><time>2026-04-19T08:33:31.335Z</time></trkpt><trkpt lat="45.8787314" lon="13.0429701"><ele>15.0</ele><time>2026-04-19T08:33:32.34Z</time></trkpt><trkpt lat="45.8786813" lon="13.04281"><ele>15.0</ele><time>2026-04-19T08:33:33.342Z</time></trkpt><trkpt lat="45.878633" lon="13.0426386"><ele>15.0</ele><time>2026-04-19T08:33:34.338Z</time></trkpt><trkpt lat="45.8785831" lon="13.0424703"><ele>15.0</ele><time>2026-04-19T08:33:35.338Z</time></trkpt><trkpt lat="45.8785369" lon="13.042306"><ele>15.0</ele><time>2026-04-19T08:33:36.344Z</time></trkpt><trkpt lat="45.878494" lon="13.0421409"><ele>15.0</ele><time>2026-04-19T08:33:37.33Z</time></trkpt><trkpt lat="45.8784502" lon="13.042"><ele>15.0</ele><time>2026-04-19T08:33:38.39Z</time></trkpt><trkpt lat="45.8784108" lon="13.0418589"><ele>15.0</ele><time>2026-04-19T08:33:39.336Z</time></trkpt><trkpt lat="45.8783709" lon="13.0417225"><ele>15.0</ele><time>2026-04-19T08:33:40.342Z</time></trkpt><trkpt lat="45.8783328" lon="13.0415962"><ele>15.0</ele><time>2026-04-19T08:33:41.347Z</time></trkpt><trkpt lat="45.878296" lon="13.0414773"><ele>15.0</ele><time>2026-04-19T08:33:42.333Z</time></trkpt><trkpt lat="45.8782611" lon="13.0413733"><ele>15.0</ele><time>2026-04-19T08:33:43.333Z</time></trkpt><trkpt lat="45.8782351" lon="13.0412781"><ele>15.0</ele><time>2026-04-19T08:33:44.331Z</time></trkpt><trkpt lat="45.8781948" lon="13.0411814"><ele>15.0</ele><time>2026-04-19T08:33:45.315Z</time></trkpt><trkpt lat="45.8781691" lon="13.0410876"><ele>15.0</ele><time>2026-04-19T08:33:46.329Z</time></trkpt><trkpt lat="45.8781522" lon="13.0409765"><ele>15.0</ele><time>2026-04-19T08:33:47.33Z</time></trkpt><trkpt lat="45.8781219" lon="13.0408554"><ele>15.0</ele><time>2026-04-19T08:33:48.325Z</time></trkpt><trkpt lat="45.8780903" lon="13.0407417"><ele>15.0</ele><time>2026-04-19T08:33:49.328Z</time></trkpt><trkpt lat="45.8780571" lon="13.0406467"><ele>15.0</ele><time>2026-04-19T08:33:50.33Z</time></trkpt><trkpt lat="45.8780226" lon="13.0404862"><ele>15.0</ele><time>2026-04-19T08:33:52.342Z</time></trkpt><trkpt lat="45.8779973" lon="13.0403949"><ele>15.0</ele><time>2026-04-19T08:33:53.341Z</time></trkpt><trkpt lat="45.8779545" lon="13.0403174"><ele>15.0</ele><time>2026-04-19T08:33:54.334Z</time></trkpt><trkpt lat="45.877911" lon="13.0402395"><ele>15.0</ele><time>2026-04-19T08:33:55.341Z</time></trkpt><trkpt lat="45.8778802" lon="13.0401503"><ele>15.0</ele><time>2026-04-19T08:33:56.334Z</time></trkpt><trkpt lat="45.8778722" lon="13.0400506"><ele>15.0</ele><time>2026-04-19T08:33:57.335Z</time></trkpt><trkpt lat="45.877883" lon="13.0399484"><ele>15.0</ele><time>2026-04-19T08:33:58.338Z</time></trkpt><trkpt lat="45.8779112" lon="13.0398381"><ele>15.0</ele><time>2026-04-19T08:33:59.33Z</time></trkpt><trkpt lat="45.8779366" lon="13.0397171"><ele>14.8</ele><time>2026-04-19T08:34:00.333Z</time></trkpt><trkpt lat="45.8779653" lon="13.0395921"><ele>14.6</ele><time>2026-04-19T08:34:01.329Z</time></trkpt><trkpt lat="45.877985" lon="13.0394641"><ele>14.399999999999999</ele><time>2026-04-19T08:34:02.33Z</time></trkpt><trkpt lat="45.878006" lon="13.039329"><ele>14.2</ele><time>2026-04-19T08:34:03.335Z</time></trkpt><trkpt lat="45.8780226" lon="13.0391879"><ele>14.0</ele><time>2026-04-19T08:34:04.327Z</time></trkpt><trkpt lat="45.8780492" lon="13.0390415"><ele>14.0</ele><time>2026-04-19T08:34:05.346Z</time></trkpt><trkpt lat="45.8780749" lon="13.0388897"><ele>14.0</ele><time>2026-04-19T08:34:06.342Z</time></trkpt><trkpt lat="45.8781024" lon="13.0387338"><ele>14.0</ele><time>2026-04-19T08:34:07.337Z</time></trkpt><trkpt lat="45.8781266" lon="13.0385714"><ele>14.0</ele><time>2026-04-19T08:34:08.336Z</time></trkpt><trkpt lat="45.878153" lon="13.038407"><ele>14.25</ele><time>2026-04-19T08:34:09.344Z</time></trkpt><trkpt lat="45.8781807" lon="13.0382476"><ele>14.5</ele><time>2026-04-19T08:34:10.343Z</time></trkpt><trkpt lat="45.8782086" lon="13.0380792"><ele>14.75</ele><time>2026-04-19T08:34:11.329Z</time></trkpt><trkpt lat="45.8782319" lon="13.0379157"><ele>15.0</ele><time>2026-04-19T08:34:12.342Z</time></trkpt><trkpt lat="45.8782552" lon="13.0377518"><ele>15.0</ele><time>2026-04-19T08:34:13.35Z</time></trkpt><trkpt lat="45.8782812" lon="13.0375846"><ele>15.0</ele><time>2026-04-19T08:34:14.324Z</time></trkpt><trkpt lat="45.8783149" lon="13.0374172"><ele>15.0</ele><time>2026-04-19T08:34:15.343Z</time></trkpt><trkpt lat="45.8783413" lon="13.0372454"><ele>15.0</ele><time>2026-04-19T08:34:16.352Z</time></trkpt><trkpt lat="45.8783722" lon="13.0370715"><ele>14.75</ele><time>2026-04-19T08:34:17.345Z</time></trkpt><trkpt lat="45.8784039" lon="13.0368929"><ele>14.5</ele><time>2026-04-19T08:34:18.346Z</time></trkpt><trkpt lat="45.878431" lon="13.0367123"><ele>14.25</ele><time>2026-04-19T08:34:19.338Z</time></trkpt><trkpt lat="45.8784642" lon="13.0365272"><ele>14.0</ele><time>2026-04-19T08:34:20.341Z</time></trkpt><trkpt lat="45.8784989" lon="13.036336"><ele>13.75</ele><time>2026-04-19T08:34:21.339Z</time></trkpt><trkpt lat="45.8785313" lon="13.0361413"><ele>13.5</ele><time>2026-04-19T08:34:22.348Z</time></trkpt><trkpt lat="45.8785672" lon="13.0359474"><ele>13.25</ele><time>2026-04-19T08:34:23.355Z</time></trkpt><trkpt lat="45.8785999" lon="13.0357551"><ele>13.0</ele><time>2026-04-19T08:34:24.342Z</time></trkpt><trkpt lat="45.8786343" lon="13.0355634"><ele>13.0</ele><time>2026-04-19T08:34:25.366Z</time></trkpt><trkpt lat="45.8786718" lon="13.0353683"><ele>13.0</ele><time>2026-04-19T08:34:26.336Z</time></trkpt><trkpt lat="45.8787068" lon="13.0351697"><ele>13.0</ele><time>2026-04-19T08:34:27.351Z</time></trkpt><trkpt lat="45.8787431" lon="13.0349679"><ele>13.0</ele><time>2026-04-19T08:34:28.338Z</time></trkpt><trkpt lat="45.8787838" lon="13.0347593"><ele>13.333333333333332</ele><time>2026-04-19T08:34:29.343Z</time></trkpt><trkpt lat="45.8788222" lon="13.0345432"><ele>13.666666666666668</ele><time>2026-04-19T08:34:30.332Z</time></trkpt><trkpt lat="45.878856" lon="13.0343332"><ele>14.0</ele><time>2026-04-19T08:34:31.329Z</time></trkpt><trkpt lat="45.8788954" lon="13.034116"><ele>14.0</ele><time>2026-04-19T08:34:32.336Z</time></trkpt><trkpt lat="45.8789311" lon="13.0339001"><ele>14.0</ele><time>2026-04-19T08:34:33.35Z</time></trkpt><trkpt lat="45.8789692" lon="13.0336886"><ele>14.0</ele><time>2026-04-19T08:34:34.329Z</time></trkpt><trkpt lat="45.8790073" lon="13.0334734"><ele>13.333333333333334</ele><time>2026-04-19T08:34:35.372Z</time></trkpt><trkpt lat="45.8790458" lon="13.0332628"><ele>12.666666666666668</ele><time>2026-04-19T08:34:36.335Z</time></trkpt><trkpt lat="45.8790866" lon="13.0330415"><ele>12.0</ele><time>2026-04-19T08:34:37.338Z</time></trkpt><trkpt lat="45.8791277" lon="13.0328212"><ele>12.0</ele><time>2026-04-19T08:34:38.352Z</time></trkpt><trkpt lat="45.8791689" lon="13.0325986"><ele>12.0</ele><time>2026-04-19T08:34:39.341Z</time></trkpt><trkpt lat="45.8792118" lon="13.0323755"><ele>12.0</ele><time>2026-04-19T08:34:40.346Z</time></trkpt><trkpt lat="45.8792509" lon="13.0321544"><ele>12.333333333333332</ele><time>2026-04-19T08:34:41.345Z</time></trkpt><trkpt lat="45.8792874" lon="13.0319313"><ele>12.666666666666666</ele><time>2026-04-19T08:34:42.338Z</time></trkpt><trkpt lat="45.8793252" lon="13.031709"><ele>13.0</ele><time>2026-04-19T08:34:43.35Z</time></trkpt><trkpt lat="45.8793624" lon="13.0314886"><ele>13.0</ele><time>2026-04-19T08:34:44.342Z</time></trkpt><trkpt lat="45.8793997" lon="13.0312703"><ele>13.0</ele><time>2026-04-19T08:34:45.353Z</time></trkpt><trkpt lat="45.879435" lon="13.0310553"><ele>13.0</ele><time>2026-04-19T08:34:46.344Z</time></trkpt><trkpt lat="45.8794748" lon="13.0308445"><ele>13.666666666666666</ele><time>2026-04-19T08:34:47.345Z</time></trkpt><trkpt lat="45.8795101" lon="13.0306284"><ele>14.333333333333332</ele><time>2026-04-19T08:34:48.339Z</time></trkpt><trkpt lat="45.8795442" lon="13.0304158"><ele>15.0</ele><time>2026-04-19T08:34:49.337Z</time></trkpt><trkpt lat="45.879583" lon="13.030199"><ele>15.0</ele><time>2026-04-19T08:34:50.341Z</time></trkpt><trkpt lat="45.8796206" lon="13.0299812"><ele>15.0</ele><time>2026-04-19T08:34:51.338Z</time></trkpt><trkpt lat="45.8796607" lon="13.0297619"><ele>15.0</ele><time>2026-04-19T08:34:52.336Z</time></trkpt><trkpt lat="45.8796978" lon="13.0295425"><ele>14.666666666666668</ele><time>2026-04-19T08:34:53.354Z</time></trkpt><trkpt lat="45.8797397" lon="13.0293247"><ele>14.333333333333334</ele><time>2026-04-19T08:34:54.335Z</time></trkpt><trkpt lat="45.8797791" lon="13.0291031"><ele>14.0</ele><time>2026-04-19T08:34:55.346Z</time></trkpt><trkpt lat="45.8798207" lon="13.0288753"><ele>13.666666666666668</ele><time>2026-04-19T08:34:56.337Z</time></trkpt><trkpt lat="45.8798629" lon="13.0286456"><ele>13.333333333333332</ele><time>2026-04-19T08:34:57.343Z</time></trkpt><trkpt lat="45.8799033" lon="13.0284156"><ele>13.0</ele><time>2026-04-19T08:34:58.362Z</time></trkpt><trkpt lat="45.8799449" lon="13.0281833"><ele>13.0</ele><time>2026-04-19T08:34:59.347Z</time></trkpt><trkpt lat="45.8799878" lon="13.0279459"><ele>13.0</ele><time>2026-04-19T08:35:00.334Z</time></trkpt><trkpt lat="45.8800329" lon="13.0277093"><ele>13.0</ele><time>2026-04-19T08:35:01.343Z</time></trkpt><trkpt lat="45.8800733" lon="13.0274723"><ele>13.333333333333332</ele><time>2026-04-19T08:35:02.35Z</time></trkpt><trkpt lat="45.8801172" lon="13.0272358"><ele>13.666666666666668</ele><time>2026-04-19T08:35:03.353Z</time></trkpt><trkpt lat="45.8801613" lon="13.026998"><ele>14.0</ele><time>2026-04-19T08:35:04.333Z</time></trkpt><trkpt lat="45.8802038" lon="13.0267528"><ele>13.333333333333334</ele><time>2026-04-19T08:35:05.339Z</time></trkpt><trkpt lat="45.8802434" lon="13.0265071"><ele>12.666666666666668</ele><time>2026-04-19T08:35:06.332Z</time></trkpt><trkpt lat="45.8802841" lon="13.0262653"><ele>12.0</ele><time>2026-04-19T08:35:07.351Z</time></trkpt><trkpt lat="45.8803242" lon="13.0260213"><ele>12.0</ele><time>2026-04-19T08:35:08.344Z</time></trkpt><trkpt lat="45.8803635" lon="13.0257801"><ele>12.0</ele><time>2026-04-19T08:35:09.342Z</time></trkpt><trkpt lat="45.8804066" lon="13.0255381"><ele>12.0</ele><time>2026-04-19T08:35:10.333Z</time></trkpt><trkpt lat="45.8804524" lon="13.0252918"><ele>12.0</ele><time>2026-04-19T08:35:11.339Z</time></trkpt><trkpt lat="45.8804955" lon="13.0250506"><ele>12.0</ele><time>2026-04-19T08:35:12.344Z</time></trkpt><trkpt lat="45.8805408" lon="13.0248069"><ele>12.0</ele><time>2026-04-19T08:35:13.34Z</time></trkpt><trkpt lat="45.880585" lon="13.0245623"><ele>12.333333333333332</ele><time>2026-04-19T08:35:14.347Z</time></trkpt><trkpt lat="45.8806248" lon="13.0243172"><ele>12.666666666666666</ele><time>2026-04-19T08:35:15.352Z</time></trkpt><trkpt lat="45.880669" lon="13.0240727"><ele>13.0</ele><time>2026-04-19T08:35:16.34Z</time></trkpt><trkpt lat="45.8807133" lon="13.0238264"><ele>13.333333333333332</ele><time>2026-04-19T08:35:17.349Z</time></trkpt><trkpt lat="45.8807585" lon="13.0235775"><ele>13.666666666666668</ele><time>2026-04-19T08:35:18.345Z</time></trkpt><trkpt lat="45.8808038" lon="13.0233322"><ele>14.0</ele><time>2026-04-19T08:35:19.346Z</time></trkpt><trkpt lat="45.8808485" lon="13.0230834"><ele>14.0</ele><time>2026-04-19T08:35:20.34Z</time></trkpt><trkpt lat="45.8808936" lon="13.0228339"><ele>14.0</ele><time>2026-04-19T08:35:21.338Z</time></trkpt><trkpt lat="45.8809356" lon="13.0225859"><ele>14.0</ele><time>2026-04-19T08:35:22.337Z</time></trkpt><trkpt lat="45.8809807" lon="13.0223382"><ele>13.333333333333334</ele><time>2026-04-19T08:35:23.355Z</time></trkpt><trkpt lat="45.8810246" lon="13.0220927"><ele>12.666666666666668</ele><time>2026-04-19T08:35:24.337Z</time></trkpt><trkpt lat="45.8810711" lon="13.0218455"><ele>12.0</ele><time>2026-04-19T08:35:25.357Z</time></trkpt><trkpt lat="45.8811145" lon="13.0216016"><ele>12.0</ele><time>2026-04-19T08:35:26.351Z</time></trkpt><trkpt lat="45.8811606" lon="13.0213489"><ele>12.0</ele><time>2026-04-19T08:35:27.335Z</time></trkpt><trkpt lat="45.8812036" lon="13.0211029"><ele>12.0</ele><time>2026-04-19T08:35:28.355Z</time></trkpt><trkpt lat="45.8812465" lon="13.0208611"><ele>12.666666666666668</ele><time>2026-04-19T08:35:29.34Z</time></trkpt><trkpt lat="45.8812895" lon="13.0206142"><ele>13.333333333333334</ele><time>2026-04-19T08:35:30.341Z</time></trkpt><trkpt lat="45.8813334" lon="13.0203707"><ele>14.0</ele><time>2026-04-19T08:35:31.338Z</time></trkpt><trkpt lat="45.8813778" lon="13.0201207"><ele>13.666666666666668</ele><time>2026-04-19T08:35:32.34Z</time></trkpt><trkpt lat="45.8814194" lon="13.01988"><ele>13.333333333333332</ele><time>2026-04-19T08:35:33.347Z</time></trkpt><trkpt lat="45.8814627" lon="13.0196311"><ele>13.0</ele><time>2026-04-19T08:35:34.338Z</time></trkpt><trkpt lat="45.8815053" lon="13.0193846"><ele>13.666666666666666</ele><time>2026-04-19T08:35:35.339Z</time></trkpt><trkpt lat="45.88155" lon="13.0191389"><ele>14.333333333333332</ele><time>2026-04-19T08:35:36.341Z</time></trkpt><trkpt lat="45.8815963" lon="13.0188938"><ele>15.0</ele><time>2026-04-19T08:35:37.348Z</time></trkpt><trkpt lat="45.8816393" lon="13.018649"><ele>15.0</ele><time>2026-04-19T08:35:38.349Z</time></trkpt><trkpt lat="45.8816807" lon="13.0183989"><ele>15.0</ele><time>2026-04-19T08:35:39.332Z</time></trkpt><trkpt lat="45.8817287" lon="13.0181466"><ele>15.0</ele><time>2026-04-19T08:35:40.349Z</time></trkpt><trkpt lat="45.8817724" lon="13.0178946"><ele>14.666666666666668</ele><time>2026-04-19T08:35:41.346Z</time></trkpt><trkpt lat="45.8818141" lon="13.0176461"><ele>14.333333333333334</ele><time>2026-04-19T08:35:42.341Z</time></trkpt><trkpt lat="45.8818592" lon="13.0173971"><ele>14.0</ele><time>2026-04-19T08:35:43.354Z</time></trkpt><trkpt lat="45.8819007" lon="13.0171478"><ele>14.666666666666668</ele><time>2026-04-19T08:35:44.34Z</time></trkpt><trkpt lat="45.8819434" lon="13.0169018"><ele>15.333333333333332</ele><time>2026-04-19T08:35:45.35Z</time></trkpt><trkpt lat="45.881985" lon="13.0166531"><ele>16.0</ele><time>2026-04-19T08:35:46.342Z</time></trkpt><trkpt lat="45.8820282" lon="13.0164088"><ele>16.333333333333332</ele><time>2026-04-19T08:35:47.35Z</time></trkpt><trkpt lat="45.8820711" lon="13.0161597"><ele>16.666666666666668</ele><time>2026-04-19T08:35:48.343Z</time></trkpt><trkpt lat="45.8821138" lon="13.0159096"><ele>17.0</ele><time>2026-04-19T08:35:49.338Z</time></trkpt><trkpt lat="45.8821561" lon="13.0156669"><ele>16.333333333333336</ele><time>2026-04-19T08:35:50.338Z</time></trkpt><trkpt lat="45.8821992" lon="13.0154182"><ele>15.666666666666668</ele><time>2026-04-19T08:35:51.376Z</time></trkpt><trkpt lat="45.8822445" lon="13.015169"><ele>15.0</ele><time>2026-04-19T08:35:52.352Z</time></trkpt><trkpt lat="45.8822868" lon="13.0149199"><ele>14.666666666666668</ele><time>2026-04-19T08:35:53.36Z</time></trkpt><trkpt lat="45.8823325" lon="13.0146733"><ele>14.333333333333334</ele><time>2026-04-19T08:35:54.338Z</time></trkpt><trkpt lat="45.8823758" lon="13.0144309"><ele>14.0</ele><time>2026-04-19T08:35:55.342Z</time></trkpt><trkpt lat="45.8824195" lon="13.0141869"><ele>13.666666666666668</ele><time>2026-04-19T08:35:56.334Z</time></trkpt><trkpt lat="45.8824631" lon="13.0139437"><ele>13.333333333333332</ele><time>2026-04-19T08:35:57.335Z</time></trkpt><trkpt lat="45.882503" lon="13.0137086"><ele>13.0</ele><time>2026-04-19T08:35:58.331Z</time></trkpt><trkpt lat="45.8825387" lon="13.0134846"><ele>13.666666666666666</ele><time>2026-04-19T08:35:59.339Z</time></trkpt><trkpt lat="45.8825611" lon="13.013267"><ele>14.333333333333332</ele><time>2026-04-19T08:36:00.343Z</time></trkpt><trkpt lat="45.8825668" lon="13.013051"><ele>15.0</ele><time>2026-04-19T08:36:01.347Z</time></trkpt><trkpt lat="45.8825639" lon="13.0128384"><ele>15.0</ele><time>2026-04-19T08:36:02.348Z</time></trkpt><trkpt lat="45.8825624" lon="13.0126359"><ele>15.0</ele><time>2026-04-19T08:36:03.359Z</time></trkpt><trkpt lat="45.8825748" lon="13.0124376"><ele>15.0</ele><time>2026-04-19T08:36:04.343Z</time></trkpt><trkpt lat="45.8826" lon="13.0122494"><ele>15.0</ele><time>2026-04-19T08:36:05.333Z</time></trkpt><trkpt lat="45.8826447" lon="13.0120705"><ele>15.4</ele><time>2026-04-19T08:36:06.327Z</time></trkpt><trkpt lat="45.8826911" lon="13.0119117"><ele>15.8</ele><time>2026-04-19T08:36:07.347Z</time></trkpt><trkpt lat="45.8827364" lon="13.0117712"><ele>16.2</ele><time>2026-04-19T08:36:08.336Z</time></trkpt><trkpt lat="45.8827753" lon="13.0116578"><ele>16.6</ele><time>2026-04-19T08:36:09.344Z</time></trkpt><trkpt lat="45.8828146" lon="13.0115772"><ele>17.0</ele><time>2026-04-19T08:36:10.349Z</time></trkpt><trkpt lat="45.8828705" lon="13.0114673"><ele>17.0</ele><time>2026-04-19T08:36:12.346Z</time></trkpt><trkpt lat="45.8829763" lon="13.0113989"><ele>17.0</ele><time>2026-04-19T08:36:14.332Z</time></trkpt><trkpt lat="45.883053" lon="13.0113523"><ele>17.0</ele><time>2026-04-19T08:36:15.353Z</time></trkpt><trkpt lat="45.8831252" lon="13.0112834"><ele>17.0</ele><time>2026-04-19T08:36:16.33Z</time></trkpt><trkpt lat="45.8831777" lon="13.0111807"><ele>17.0</ele><time>2026-04-19T08:36:17.353Z</time></trkpt><trkpt lat="45.8832123" lon="13.0110586"><ele>17.0</ele><time>2026-04-19T08:36:18.349Z</time></trkpt><trkpt lat="45.8832113" lon="13.0109199"><ele>17.0</ele><time>2026-04-19T08:36:19.336Z</time></trkpt><trkpt lat="45.8831861" lon="13.0107929"><ele>17.0</ele><time>2026-04-19T08:36:20.338Z</time></trkpt><trkpt lat="45.8831578" lon="13.0106596"><ele>17.0</ele><time>2026-04-19T08:36:21.337Z</time></trkpt><trkpt lat="45.8831467" lon="13.0105147"><ele>17.0</ele><time>2026-04-19T08:36:22.35Z</time></trkpt><trkpt lat="45.8831587" lon="13.0103739"><ele>16.6</ele><time>2026-04-19T08:36:23.341Z</time></trkpt><trkpt lat="45.8832028" lon="13.0102345"><ele>16.2</ele><time>2026-04-19T08:36:24.348Z</time></trkpt><trkpt lat="45.8832602" lon="13.0101065"><ele>15.8</ele><time>2026-04-19T08:36:25.338Z</time></trkpt><trkpt lat="45.8833144" lon="13.0099774"><ele>15.4</ele><time>2026-04-19T08:36:26.347Z</time></trkpt><trkpt lat="45.8833551" lon="13.0098491"><ele>15.0</ele><time>2026-04-19T08:36:27.342Z</time></trkpt><trkpt lat="45.8833832" lon="13.0097165"><ele>14.75</ele><time>2026-04-19T08:36:28.354Z</time></trkpt><trkpt lat="45.8833994" lon="13.0095711"><ele>14.5</ele><time>2026-04-19T08:36:29.34Z</time></trkpt><trkpt lat="45.8834033" lon="13.0094075"><ele>14.25</ele><time>2026-04-19T08:36:30.347Z</time></trkpt><trkpt lat="45.8834022" lon="13.0092341"><ele>14.0</ele><time>2026-04-19T08:36:31.342Z</time></trkpt><trkpt lat="45.8833955" lon="13.0090526"><ele>14.0</ele><time>2026-04-19T08:36:32.339Z</time></trkpt><trkpt lat="45.8833988" lon="13.0088643"><ele>14.0</ele><time>2026-04-19T08:36:33.353Z</time></trkpt><trkpt lat="45.8834096" lon="13.0086731"><ele>14.0</ele><time>2026-04-19T08:36:34.35Z</time></trkpt><trkpt lat="45.8834287" lon="13.0084841"><ele>14.0</ele><time>2026-04-19T08:36:35.337Z</time></trkpt><trkpt lat="45.8834558" lon="13.0082852"><ele>14.0</ele><time>2026-04-19T08:36:36.337Z</time></trkpt><trkpt lat="45.8834872" lon="13.0080834"><ele>14.0</ele><time>2026-04-19T08:36:37.344Z</time></trkpt><trkpt lat="45.8835269" lon="13.0078777"><ele>14.0</ele><time>2026-04-19T08:36:38.352Z</time></trkpt><trkpt lat="45.8835647" lon="13.0076677"><ele>14.0</ele><time>2026-04-19T08:36:39.341Z</time></trkpt><trkpt lat="45.8836021" lon="13.0074633"><ele>14.0</ele><time>2026-04-19T08:36:40.349Z</time></trkpt><trkpt lat="45.8836373" lon="13.0072639"><ele>14.0</ele><time>2026-04-19T08:36:41.331Z</time></trkpt><trkpt lat="45.8836716" lon="13.0070584"><ele>14.0</ele><time>2026-04-19T08:36:42.353Z</time></trkpt><trkpt lat="45.883711" lon="13.0068419"><ele>14.0</ele><time>2026-04-19T08:36:43.346Z</time></trkpt><trkpt lat="45.8837525" lon="13.0066239"><ele>14.666666666666668</ele><time>2026-04-19T08:36:44.337Z</time></trkpt><trkpt lat="45.8837893" lon="13.0064059"><ele>15.333333333333332</ele><time>2026-04-19T08:36:45.344Z</time></trkpt><trkpt lat="45.8838289" lon="13.0061839"><ele>16.0</ele><time>2026-04-19T08:36:46.337Z</time></trkpt><trkpt lat="45.8838675" lon="13.0059624"><ele>15.666666666666666</ele><time>2026-04-19T08:36:47.347Z</time></trkpt><trkpt lat="45.8839069" lon="13.0057376"><ele>15.333333333333332</ele><time>2026-04-19T08:36:48.346Z</time></trkpt><trkpt lat="45.8839485" lon="13.005508"><ele>15.0</ele><time>2026-04-19T08:36:49.35Z</time></trkpt><trkpt lat="45.8839921" lon="13.005274"><ele>15.0</ele><time>2026-04-19T08:36:50.338Z</time></trkpt><trkpt lat="45.8840348" lon="13.0050344"><ele>15.0</ele><time>2026-04-19T08:36:51.336Z</time></trkpt><trkpt lat="45.8840758" lon="13.004796"><ele>15.0</ele><time>2026-04-19T08:36:52.343Z</time></trkpt><trkpt lat="45.8841132" lon="13.0045626"><ele>15.0</ele><time>2026-04-19T08:36:53.364Z</time></trkpt><trkpt lat="45.8841555" lon="13.0043219"><ele>15.0</ele><time>2026-04-19T08:36:54.346Z</time></trkpt><trkpt lat="45.8841974" lon="13.004081"><ele>15.0</ele><time>2026-04-19T08:36:55.39Z</time></trkpt><trkpt lat="45.8842377" lon="13.0038432"><ele>14.666666666666668</ele><time>2026-04-19T08:36:56.341Z</time></trkpt><trkpt lat="45.8842796" lon="13.0036047"><ele>14.333333333333334</ele><time>2026-04-19T08:36:57.345Z</time></trkpt><trkpt lat="45.8843202" lon="13.0033641"><ele>14.0</ele><time>2026-04-19T08:36:58.344Z</time></trkpt><trkpt lat="45.8843624" lon="13.0031232"><ele>14.0</ele><time>2026-04-19T08:36:59.359Z</time></trkpt><trkpt lat="45.8844054" lon="13.0028834"><ele>14.0</ele><time>2026-04-19T08:37:00.343Z</time></trkpt><trkpt lat="45.8844489" lon="13.0026389"><ele>14.0</ele><time>2026-04-19T08:37:01.35Z</time></trkpt><trkpt lat="45.8844907" lon="13.0023964"><ele>14.333333333333334</ele><time>2026-04-19T08:37:02.348Z</time></trkpt><trkpt lat="45.8845322" lon="13.0021487"><ele>14.666666666666668</ele><time>2026-04-19T08:37:03.357Z</time></trkpt><trkpt lat="45.884577" lon="13.0018947"><ele>15.0</ele><time>2026-04-19T08:37:04.343Z</time></trkpt><trkpt lat="45.8846181" lon="13.001647"><ele>15.333333333333332</ele><time>2026-04-19T08:37:05.346Z</time></trkpt><trkpt lat="45.8846607" lon="13.0014013"><ele>15.666666666666666</ele><time>2026-04-19T08:37:06.34Z</time></trkpt><trkpt lat="45.8847037" lon="13.0011612"><ele>16.0</ele><time>2026-04-19T08:37:07.348Z</time></trkpt><trkpt lat="45.884745" lon="13.0009125"><ele>16.666666666666664</ele><time>2026-04-19T08:37:08.334Z</time></trkpt><trkpt lat="45.8847846" lon="13.0006699"><ele>17.333333333333332</ele><time>2026-04-19T08:37:09.337Z</time></trkpt><trkpt lat="45.884826" lon="13.0004304"><ele>18.0</ele><time>2026-04-19T08:37:10.34Z</time></trkpt><trkpt lat="45.8848646" lon="13.0001934"><ele>18.0</ele><time>2026-04-19T08:37:11.353Z</time></trkpt><trkpt lat="45.8849055" lon="12.9999578"><ele>18.0</ele><time>2026-04-19T08:37:12.339Z</time></trkpt><trkpt lat="45.8849496" lon="12.9997254"><ele>18.0</ele><time>2026-04-19T08:37:13.34Z</time></trkpt><trkpt lat="45.8849904" lon="12.9994911"><ele>18.0</ele><time>2026-04-19T08:37:14.343Z</time></trkpt><trkpt lat="45.8850343" lon="12.9992609"><ele>18.0</ele><time>2026-04-19T08:37:15.337Z</time></trkpt><trkpt lat="45.8850757" lon="12.9990334"><ele>18.0</ele><time>2026-04-19T08:37:16.34Z</time></trkpt><trkpt lat="45.8851184" lon="12.9987999"><ele>17.666666666666668</ele><time>2026-04-19T08:37:17.331Z</time></trkpt><trkpt lat="45.8851545" lon="12.9985719"><ele>17.333333333333336</ele><time>2026-04-19T08:37:18.337Z</time></trkpt><trkpt lat="45.8851943" lon="12.9983434"><ele>17.0</ele><time>2026-04-19T08:37:19.342Z</time></trkpt><trkpt lat="45.8852365" lon="12.9981096"><ele>17.0</ele><time>2026-04-19T08:37:20.34Z</time></trkpt><trkpt lat="45.8852779" lon="12.9978781"><ele>17.0</ele><time>2026-04-19T08:37:21.349Z</time></trkpt><trkpt lat="45.8853184" lon="12.9976527"><ele>17.0</ele><time>2026-04-19T08:37:22.338Z</time></trkpt><trkpt lat="45.8853559" lon="12.9974262"><ele>17.0</ele><time>2026-04-19T08:37:23.35Z</time></trkpt><trkpt lat="45.8853958" lon="12.9972068"><ele>17.0</ele><time>2026-04-19T08:37:24.332Z</time></trkpt><trkpt lat="45.8854354" lon="12.9969923"><ele>17.0</ele><time>2026-04-19T08:37:25.346Z</time></trkpt><trkpt lat="45.8854712" lon="12.9967805"><ele>17.0</ele><time>2026-04-19T08:37:26.342Z</time></trkpt><trkpt lat="45.8855047" lon="12.9965759"><ele>17.0</ele><time>2026-04-19T08:37:27.345Z</time></trkpt><trkpt lat="45.8855299" lon="12.9963748"><ele>17.0</ele><time>2026-04-19T08:37:28.338Z</time></trkpt><trkpt lat="45.8855416" lon="12.9961789"><ele>17.0</ele><time>2026-04-19T08:37:29.339Z</time></trkpt><trkpt lat="45.8855391" lon="12.995984"><ele>16.5</ele><time>2026-04-19T08:37:30.338Z</time></trkpt><trkpt lat="45.8855255" lon="12.9957906"><ele>16.0</ele><time>2026-04-19T08:37:31.341Z</time></trkpt><trkpt lat="45.8855011" lon="12.995594"><ele>15.5</ele><time>2026-04-19T08:37:32.34Z</time></trkpt><trkpt lat="45.8854695" lon="12.9953966"><ele>15.0</ele><time>2026-04-19T08:37:33.35Z</time></trkpt><trkpt lat="45.8854288" lon="12.9951977"><ele>14.75</ele><time>2026-04-19T08:37:34.323Z</time></trkpt><trkpt lat="45.8853833" lon="12.9949987"><ele>14.5</ele><time>2026-04-19T08:37:35.342Z</time></trkpt><trkpt lat="45.8853402" lon="12.9948089"><ele>14.25</ele><time>2026-04-19T08:37:36.355Z</time></trkpt><trkpt lat="45.8853003" lon="12.9946281"><ele>14.0</ele><time>2026-04-19T08:37:37.34Z</time></trkpt><trkpt lat="45.8852617" lon="12.9944489"><ele>14.0</ele><time>2026-04-19T08:37:38.351Z</time></trkpt><trkpt lat="45.8852195" lon="12.9942804"><ele>14.0</ele><time>2026-04-19T08:37:39.337Z</time></trkpt><trkpt lat="45.8851775" lon="12.9941227"><ele>14.0</ele><time>2026-04-19T08:37:40.344Z</time></trkpt><trkpt lat="45.8851336" lon="12.9939729"><ele>14.0</ele><time>2026-04-19T08:37:41.351Z</time></trkpt><trkpt lat="45.8850915" lon="12.9938144"><ele>14.5</ele><time>2026-04-19T08:37:42.354Z</time></trkpt><trkpt lat="45.8850523" lon="12.9936482"><ele>15.0</ele><time>2026-04-19T08:37:43.366Z</time></trkpt><trkpt lat="45.8850141" lon="12.9934796"><ele>15.5</ele><time>2026-04-19T08:37:44.336Z</time></trkpt><trkpt lat="45.8849714" lon="12.9933111"><ele>16.0</ele><time>2026-04-19T08:37:45.346Z</time></trkpt><trkpt lat="45.8849377" lon="12.9931405"><ele>16.25</ele><time>2026-04-19T08:37:46.33Z</time></trkpt><trkpt lat="45.884901" lon="12.9929866"><ele>16.5</ele><time>2026-04-19T08:37:47.334Z</time></trkpt><trkpt lat="45.8848653" lon="12.9928326"><ele>16.75</ele><time>2026-04-19T08:37:48.345Z</time></trkpt><trkpt lat="45.884832" lon="12.9926777"><ele>17.0</ele><time>2026-04-19T08:37:49.344Z</time></trkpt><trkpt lat="45.8848004" lon="12.9925221"><ele>16.5</ele><time>2026-04-19T08:37:50.35Z</time></trkpt><trkpt lat="45.8847851" lon="12.9923637"><ele>16.0</ele><time>2026-04-19T08:37:51.335Z</time></trkpt><trkpt lat="45.8847921" lon="12.9922052"><ele>15.5</ele><time>2026-04-19T08:37:52.345Z</time></trkpt><trkpt lat="45.8848237" lon="12.9920448"><ele>15.0</ele><time>2026-04-19T08:37:53.357Z</time></trkpt><trkpt lat="45.8848721" lon="12.9918956"><ele>15.0</ele><time>2026-04-19T08:37:54.338Z</time></trkpt><trkpt lat="45.8849392" lon="12.9917565"><ele>15.0</ele><time>2026-04-19T08:37:55.346Z</time></trkpt><trkpt lat="45.8850208" lon="12.991633"><ele>15.0</ele><time>2026-04-19T08:37:56.355Z</time></trkpt><trkpt lat="45.8851177" lon="12.9915305"><ele>15.0</ele><time>2026-04-19T08:37:57.345Z</time></trkpt><trkpt lat="45.8852052" lon="12.9914385"><ele>15.6</ele><time>2026-04-19T08:37:58.341Z</time></trkpt><trkpt lat="45.8852887" lon="12.9913513"><ele>16.2</ele><time>2026-04-19T08:37:59.342Z</time></trkpt><trkpt lat="45.8853704" lon="12.9912616"><ele>16.8</ele><time>2026-04-19T08:38:00.338Z</time></trkpt><trkpt lat="45.8854487" lon="12.9911643"><ele>17.4</ele><time>2026-04-19T08:38:01.351Z</time></trkpt><trkpt lat="45.885521" lon="12.9910792"><ele>18.0</ele><time>2026-04-19T08:38:02.342Z</time></trkpt><trkpt lat="45.8855821" lon="12.9910032"><ele>18.0</ele><time>2026-04-19T08:38:03.351Z</time></trkpt><trkpt lat="45.885641" lon="12.9909127"><ele>18.0</ele><time>2026-04-19T08:38:04.346Z</time></trkpt><trkpt lat="45.8857098" lon="12.9908177"><ele>18.0</ele><time>2026-04-19T08:38:05.34Z</time></trkpt><trkpt lat="45.8857896" lon="12.9907329"><ele>18.0</ele><time>2026-04-19T08:38:06.347Z</time></trkpt><trkpt lat="45.885875" lon="12.9906806"><ele>18.0</ele><time>2026-04-19T08:38:07.334Z</time></trkpt><trkpt lat="45.8859605" lon="12.9906494"><ele>18.0</ele><time>2026-04-19T08:38:08.355Z</time></trkpt><trkpt lat="45.8860438" lon="12.9906042"><ele>18.0</ele><time>2026-04-19T08:38:09.346Z</time></trkpt><trkpt lat="45.886142" lon="12.990549"><ele>18.0</ele><time>2026-04-19T08:38:10.343Z</time></trkpt><trkpt lat="45.8862363" lon="12.9904856"><ele>18.0</ele><time>2026-04-19T08:38:11.34Z</time></trkpt><trkpt lat="45.8863331" lon="12.9904136"><ele>18.0</ele><time>2026-04-19T08:38:12.345Z</time></trkpt><trkpt lat="45.8864359" lon="12.9903426"><ele>18.0</ele><time>2026-04-19T08:38:13.34Z</time></trkpt><trkpt lat="45.8865433" lon="12.9902633"><ele>18.0</ele><time>2026-04-19T08:38:14.343Z</time></trkpt><trkpt lat="45.8866505" lon="12.9901924"><ele>18.0</ele><time>2026-04-19T08:38:15.343Z</time></trkpt><trkpt lat="45.8867443" lon="12.9901267"><ele>18.0</ele><time>2026-04-19T08:38:16.34Z</time></trkpt><trkpt lat="45.8868272" lon="12.9900689"><ele>18.0</ele><time>2026-04-19T08:38:17.345Z</time></trkpt><trkpt lat="45.8869074" lon="12.990007"><ele>18.0</ele><time>2026-04-19T08:38:18.332Z</time></trkpt><trkpt lat="45.8869803" lon="12.9899461"><ele>18.0</ele><time>2026-04-19T08:38:19.345Z</time></trkpt><trkpt lat="45.8870456" lon="12.9898875"><ele>18.0</ele><time>2026-04-19T08:38:20.353Z</time></trkpt><trkpt lat="45.8871016" lon="12.9898205"><ele>18.0</ele><time>2026-04-19T08:38:21.341Z</time></trkpt><trkpt lat="45.8871475" lon="12.9897522"><ele>18.0</ele><time>2026-04-19T08:38:22.344Z</time></trkpt><trkpt lat="45.8871901" lon="12.9896565"><ele>18.0</ele><time>2026-04-19T08:38:24.345Z</time></trkpt><trkpt lat="45.8872628" lon="12.9895732"><ele>18.0</ele><time>2026-04-19T08:38:27.349Z</time></trkpt><trkpt lat="45.8872398" lon="12.9894478"><ele>18.0</ele><time>2026-04-19T08:38:29.362Z</time></trkpt><trkpt lat="45.8871752" lon="12.9892994"><ele>18.0</ele><time>2026-04-19T08:38:31.338Z</time></trkpt><trkpt lat="45.8871445" lon="12.9892056"><ele>18.0</ele><time>2026-04-19T08:38:32.344Z</time></trkpt><trkpt lat="45.8871131" lon="12.9891199"><ele>18.0</ele><time>2026-04-19T08:38:33.347Z</time></trkpt><trkpt lat="45.8870804" lon="12.9890186"><ele>18.0</ele><time>2026-04-19T08:38:34.365Z</time></trkpt><trkpt lat="45.8870475" lon="12.988905"><ele>18.0</ele><time>2026-04-19T08:38:35.335Z</time></trkpt><trkpt lat="45.8870128" lon="12.9887883"><ele>18.0</ele><time>2026-04-19T08:38:36.348Z</time></trkpt><trkpt lat="45.886975" lon="12.9886722"><ele>18.0</ele><time>2026-04-19T08:38:37.339Z</time></trkpt><trkpt lat="45.886937" lon="12.9885537"><ele>18.0</ele><time>2026-04-19T08:38:38.342Z</time></trkpt><trkpt lat="45.8868973" lon="12.9884401"><ele>18.0</ele><time>2026-04-19T08:38:39.338Z</time></trkpt><trkpt lat="45.8868626" lon="12.98833"><ele>18.0</ele><time>2026-04-19T08:38:40.337Z</time></trkpt><trkpt lat="45.8868362" lon="12.9882263"><ele>17.833333333333332</ele><time>2026-04-19T08:38:41.334Z</time></trkpt><trkpt lat="45.886816" lon="12.9881283"><ele>17.666666666666668</ele><time>2026-04-19T08:38:42.333Z</time></trkpt><trkpt lat="45.886802" lon="12.9880341"><ele>17.5</ele><time>2026-04-19T08:38:43.338Z</time></trkpt><trkpt lat="45.8867964" lon="12.9879354"><ele>17.333333333333336</ele><time>2026-04-19T08:38:44.344Z</time></trkpt><trkpt lat="45.8868411" lon="12.9878058"><ele>17.166666666666668</ele><time>2026-04-19T08:38:46.352Z</time></trkpt><trkpt lat="45.8869168" lon="12.9877518"><ele>17.0</ele><time>2026-04-19T08:38:47.341Z</time></trkpt><trkpt lat="45.8869898" lon="12.9876807"><ele>17.0</ele><time>2026-04-19T08:38:48.332Z</time></trkpt><trkpt lat="45.8870657" lon="12.9876052"><ele>17.0</ele><time>2026-04-19T08:38:49.347Z</time></trkpt><trkpt lat="45.8871448" lon="12.9875239"><ele>17.0</ele><time>2026-04-19T08:38:50.349Z</time></trkpt><trkpt lat="45.8872185" lon="12.9874353"><ele>17.0</ele><time>2026-04-19T08:38:51.337Z</time></trkpt><trkpt lat="45.8872941" lon="12.9873404"><ele>17.0</ele><time>2026-04-19T08:38:52.334Z</time></trkpt><trkpt lat="45.8873676" lon="12.9872371"><ele>17.2</ele><time>2026-04-19T08:38:53.343Z</time></trkpt><trkpt lat="45.8874293" lon="12.9871255"><ele>17.4</ele><time>2026-04-19T08:38:54.329Z</time></trkpt><trkpt lat="45.8874833" lon="12.9870086"><ele>17.6</ele><time>2026-04-19T08:38:55.334Z</time></trkpt><trkpt lat="45.8875327" lon="12.9868907"><ele>17.8</ele><time>2026-04-19T08:38:56.341Z</time></trkpt><trkpt lat="45.8875783" lon="12.9867641"><ele>18.0</ele><time>2026-04-19T08:38:57.341Z</time></trkpt><trkpt lat="45.8876202" lon="12.9866349"><ele>18.0</ele><time>2026-04-19T08:38:58.339Z</time></trkpt><trkpt lat="45.8876444" lon="12.9864932"><ele>18.0</ele><time>2026-04-19T08:38:59.338Z</time></trkpt><trkpt lat="45.8876403" lon="12.9863547"><ele>18.0</ele><time>2026-04-19T08:39:00.341Z</time></trkpt><trkpt lat="45.887626" lon="12.9862052"><ele>18.0</ele><time>2026-04-19T08:39:01.331Z</time></trkpt><trkpt lat="45.887594" lon="12.9860709"><ele>18.0</ele><time>2026-04-19T08:39:02.344Z</time></trkpt><trkpt lat="45.8875574" lon="12.9859546"><ele>18.0</ele><time>2026-04-19T08:39:03.34Z</time></trkpt><trkpt lat="45.8875319" lon="12.985836"><ele>18.0</ele><time>2026-04-19T08:39:04.343Z</time></trkpt><trkpt lat="45.8875118" lon="12.9857274"><ele>18.0</ele><time>2026-04-19T08:39:05.337Z</time></trkpt><trkpt lat="45.8875029" lon="12.9856127"><ele>18.0</ele><time>2026-04-19T08:39:06.348Z</time></trkpt><trkpt lat="45.8875206" lon="12.9854853"><ele>18.0</ele><time>2026-04-19T08:39:07.332Z</time></trkpt><trkpt lat="45.8875685" lon="12.9853645"><ele>18.0</ele><time>2026-04-19T08:39:08.334Z</time></trkpt><trkpt lat="45.8876189" lon="12.9852628"><ele>18.0</ele><time>2026-04-19T08:39:09.331Z</time></trkpt><trkpt lat="45.8876784" lon="12.9851742"><ele>18.0</ele><time>2026-04-19T08:39:10.343Z</time></trkpt><trkpt lat="45.8877599" lon="12.9851044"><ele>18.0</ele><time>2026-04-19T08:39:11.352Z</time></trkpt><trkpt lat="45.8878501" lon="12.9850637"><ele>18.0</ele><time>2026-04-19T08:39:12.345Z</time></trkpt><trkpt lat="45.8879483" lon="12.9850377"><ele>18.0</ele><time>2026-04-19T08:39:13.355Z</time></trkpt><trkpt lat="45.8880501" lon="12.9850119"><ele>18.0</ele><time>2026-04-19T08:39:14.348Z</time></trkpt><trkpt lat="45.8881429" lon="12.9849742"><ele>18.0</ele><time>2026-04-19T08:39:15.34Z</time></trkpt><trkpt lat="45.8882492" lon="12.9849454"><ele>18.0</ele><time>2026-04-19T08:39:16.351Z</time></trkpt><trkpt lat="45.888353" lon="12.9849035"><ele>18.0</ele><time>2026-04-19T08:39:17.345Z</time></trkpt><trkpt lat="45.8884665" lon="12.9848724"><ele>18.0</ele><time>2026-04-19T08:39:18.334Z</time></trkpt><trkpt lat="45.8885817" lon="12.9848384"><ele>18.0</ele><time>2026-04-19T08:39:19.347Z</time></trkpt><trkpt lat="45.8886971" lon="12.9848012"><ele>18.0</ele><time>2026-04-19T08:39:20.341Z</time></trkpt><trkpt lat="45.888814" lon="12.9847635"><ele>18.0</ele><time>2026-04-19T08:39:21.346Z</time></trkpt><trkpt lat="45.8889315" lon="12.984723"><ele>18.0</ele><time>2026-04-19T08:39:22.342Z</time></trkpt><trkpt lat="45.8890434" lon="12.9846874"><ele>18.0</ele><time>2026-04-19T08:39:23.346Z</time></trkpt><trkpt lat="45.8891626" lon="12.9846515"><ele>18.0</ele><time>2026-04-19T08:39:24.343Z</time></trkpt><trkpt lat="45.8892854" lon="12.9846142"><ele>18.0</ele><time>2026-04-19T08:39:25.329Z</time></trkpt><trkpt lat="45.8894124" lon="12.984579"><ele>18.0</ele><time>2026-04-19T08:39:26.359Z</time></trkpt><trkpt lat="45.8895446" lon="12.9845436"><ele>18.0</ele><time>2026-04-19T08:39:27.332Z</time></trkpt><trkpt lat="45.8896791" lon="12.9845095"><ele>18.0</ele><time>2026-04-19T08:39:28.339Z</time></trkpt><trkpt lat="45.8898176" lon="12.9844671"><ele>18.0</ele><time>2026-04-19T08:39:29.337Z</time></trkpt><trkpt lat="45.8899573" lon="12.9844253"><ele>18.0</ele><time>2026-04-19T08:39:30.342Z</time></trkpt><trkpt lat="45.890094" lon="12.9843748"><ele>17.5</ele><time>2026-04-19T08:39:31.343Z</time></trkpt><trkpt lat="45.890218" lon="12.9843134"><ele>17.0</ele><time>2026-04-19T08:39:32.343Z</time></trkpt><trkpt lat="45.8903332" lon="12.984238"><ele>16.5</ele><time>2026-04-19T08:39:33.356Z</time></trkpt><trkpt lat="45.8904375" lon="12.9841315"><ele>16.0</ele><time>2026-04-19T08:39:34.337Z</time></trkpt><trkpt lat="45.8905251" lon="12.9840076"><ele>15.75</ele><time>2026-04-19T08:39:35.342Z</time></trkpt><trkpt lat="45.8906013" lon="12.9838657"><ele>15.5</ele><time>2026-04-19T08:39:36.341Z</time></trkpt><trkpt lat="45.8906703" lon="12.9837055"><ele>15.25</ele><time>2026-04-19T08:39:37.341Z</time></trkpt><trkpt lat="45.8907394" lon="12.9835392"><ele>15.0</ele><time>2026-04-19T08:39:38.331Z</time></trkpt><trkpt lat="45.8907997" lon="12.983385"><ele>15.5</ele><time>2026-04-19T08:39:39.337Z</time></trkpt><trkpt lat="45.8908574" lon="12.9832301"><ele>16.0</ele><time>2026-04-19T08:39:40.346Z</time></trkpt><trkpt lat="45.8909164" lon="12.9830801"><ele>16.5</ele><time>2026-04-19T08:39:41.35Z</time></trkpt><trkpt lat="45.8909752" lon="12.9829296"><ele>17.0</ele><time>2026-04-19T08:39:42.343Z</time></trkpt><trkpt lat="45.8910331" lon="12.9827843"><ele>17.0</ele><time>2026-04-19T08:39:43.346Z</time></trkpt><trkpt lat="45.8910948" lon="12.982637"><ele>17.0</ele><time>2026-04-19T08:39:44.335Z</time></trkpt><trkpt lat="45.8911639" lon="12.9824831"><ele>17.0</ele><time>2026-04-19T08:39:45.35Z</time></trkpt><trkpt lat="45.891236" lon="12.9823252"><ele>17.0</ele><time>2026-04-19T08:39:46.349Z</time></trkpt><trkpt lat="45.8913169" lon="12.9821694"><ele>17.0</ele><time>2026-04-19T08:39:47.339Z</time></trkpt><trkpt lat="45.8914076" lon="12.9820139"><ele>17.0</ele><time>2026-04-19T08:39:48.336Z</time></trkpt><trkpt lat="45.8914971" lon="12.9818649"><ele>17.0</ele><time>2026-04-19T08:39:49.335Z</time></trkpt><trkpt lat="45.8915822" lon="12.9817199"><ele>17.0</ele><time>2026-04-19T08:39:50.349Z</time></trkpt><trkpt lat="45.8916719" lon="12.9815816"><ele>17.25</ele><time>2026-04-19T08:39:51.341Z</time></trkpt><trkpt lat="45.891765" lon="12.9814295"><ele>17.5</ele><time>2026-04-19T08:39:52.339Z</time></trkpt><trkpt lat="45.8918604" lon="12.9812762"><ele>17.75</ele><time>2026-04-19T08:39:53.355Z</time></trkpt><trkpt lat="45.891951" lon="12.9811247"><ele>18.0</ele><time>2026-04-19T08:39:54.339Z</time></trkpt><trkpt lat="45.892036" lon="12.9809837"><ele>18.0</ele><time>2026-04-19T08:39:55.337Z</time></trkpt><trkpt lat="45.8921247" lon="12.9808472"><ele>18.0</ele><time>2026-04-19T08:39:56.335Z</time></trkpt><trkpt lat="45.8922157" lon="12.9807069"><ele>18.0</ele><time>2026-04-19T08:39:57.347Z</time></trkpt><trkpt lat="45.8923103" lon="12.9805737"><ele>18.0</ele><time>2026-04-19T08:39:58.362Z</time></trkpt><trkpt lat="45.8924159" lon="12.9804492"><ele>18.0</ele><time>2026-04-19T08:39:59.336Z</time></trkpt><trkpt lat="45.8925309" lon="12.9803374"><ele>18.0</ele><time>2026-04-19T08:40:00.346Z</time></trkpt><trkpt lat="45.8926509" lon="12.9802303"><ele>18.0</ele><time>2026-04-19T08:40:01.341Z</time></trkpt><trkpt lat="45.8927721" lon="12.9801311"><ele>18.0</ele><time>2026-04-19T08:40:02.331Z</time></trkpt><trkpt lat="45.892893" lon="12.9800317"><ele>18.25</ele><time>2026-04-19T08:40:03.339Z</time></trkpt><trkpt lat="45.8930135" lon="12.9799284"><ele>18.5</ele><time>2026-04-19T08:40:04.334Z</time></trkpt><trkpt lat="45.893137" lon="12.9798297"><ele>18.75</ele><time>2026-04-19T08:40:05.347Z</time></trkpt><trkpt lat="45.89325" lon="12.9797307"><ele>19.0</ele><time>2026-04-19T08:40:06.343Z</time></trkpt><trkpt lat="45.8933675" lon="12.9796336"><ele>18.5</ele><time>2026-04-19T08:40:07.34Z</time></trkpt><trkpt lat="45.8934808" lon="12.9795429"><ele>18.0</ele><time>2026-04-19T08:40:08.337Z</time></trkpt><trkpt lat="45.8935924" lon="12.9794515"><ele>17.5</ele><time>2026-04-19T08:40:09.362Z</time></trkpt><trkpt lat="45.8937011" lon="12.9793614"><ele>17.0</ele><time>2026-04-19T08:40:10.348Z</time></trkpt><trkpt lat="45.8938104" lon="12.9792713"><ele>17.0</ele><time>2026-04-19T08:40:11.329Z</time></trkpt><trkpt lat="45.8939151" lon="12.9791852"><ele>17.0</ele><time>2026-04-19T08:40:12.394Z</time></trkpt><trkpt lat="45.8940103" lon="12.9791031"><ele>17.0</ele><time>2026-04-19T08:40:13.326Z</time></trkpt><trkpt lat="45.8941069" lon="12.9790233"><ele>17.0</ele><time>2026-04-19T08:40:14.336Z</time></trkpt><trkpt lat="45.8942005" lon="12.978959"><ele>17.0</ele><time>2026-04-19T08:40:15.343Z</time></trkpt><trkpt lat="45.8942823" lon="12.9788897"><ele>17.0</ele><time>2026-04-19T08:40:16.334Z</time></trkpt><trkpt lat="45.8943613" lon="12.9788223"><ele>17.0</ele><time>2026-04-19T08:40:17.342Z</time></trkpt><trkpt lat="45.8944211" lon="12.9787532"><ele>17.0</ele><time>2026-04-19T08:40:18.325Z</time></trkpt><trkpt lat="45.8944698" lon="12.9786565"><ele>17.0</ele><time>2026-04-19T08:40:19.335Z</time></trkpt><trkpt lat="45.8945071" lon="12.9785385"><ele>17.0</ele><time>2026-04-19T08:40:20.335Z</time></trkpt><trkpt lat="45.8945073" lon="12.9784083"><ele>17.0</ele><time>2026-04-19T08:40:21.351Z</time></trkpt><trkpt lat="45.894486" lon="12.978275"><ele>17.0</ele><time>2026-04-19T08:40:22.331Z</time></trkpt><trkpt lat="45.8944667" lon="12.9781256"><ele>17.0</ele><time>2026-04-19T08:40:23.342Z</time></trkpt><trkpt lat="45.8944362" lon="12.9779782"><ele>17.0</ele><time>2026-04-19T08:40:24.337Z</time></trkpt><trkpt lat="45.8944078" lon="12.9778402"><ele>17.0</ele><time>2026-04-19T08:40:25.346Z</time></trkpt><trkpt lat="45.8943908" lon="12.9777023"><ele>17.0</ele><time>2026-04-19T08:40:26.343Z</time></trkpt><trkpt lat="45.8943762" lon="12.9775563"><ele>17.25</ele><time>2026-04-19T08:40:27.331Z</time></trkpt><trkpt lat="45.8943577" lon="12.9774029"><ele>17.5</ele><time>2026-04-19T08:40:28.34Z</time></trkpt><trkpt lat="45.8943377" lon="12.9772412"><ele>17.75</ele><time>2026-04-19T08:40:29.331Z</time></trkpt><trkpt lat="45.8943164" lon="12.9770635"><ele>18.0</ele><time>2026-04-19T08:40:30.333Z</time></trkpt><trkpt lat="45.8942882" lon="12.9768839"><ele>18.0</ele><time>2026-04-19T08:40:31.34Z</time></trkpt><trkpt lat="45.894264" lon="12.976701"><ele>18.0</ele><time>2026-04-19T08:40:32.343Z</time></trkpt><trkpt lat="45.8942423" lon="12.9765263"><ele>18.0</ele><time>2026-04-19T08:40:33.334Z</time></trkpt><trkpt lat="45.8942199" lon="12.9763525"><ele>18.0</ele><time>2026-04-19T08:40:34.343Z</time></trkpt><trkpt lat="45.8941967" lon="12.9761683"><ele>18.0</ele><time>2026-04-19T08:40:35.332Z</time></trkpt><trkpt lat="45.8941718" lon="12.9759831"><ele>18.0</ele><time>2026-04-19T08:40:36.335Z</time></trkpt><trkpt lat="45.8941467" lon="12.975798"><ele>18.0</ele><time>2026-04-19T08:40:37.33Z</time></trkpt><trkpt lat="45.8941228" lon="12.975612"><ele>18.0</ele><time>2026-04-19T08:40:38.335Z</time></trkpt><trkpt lat="45.8940976" lon="12.975423"><ele>18.0</ele><time>2026-04-19T08:40:39.345Z</time></trkpt><trkpt lat="45.8940718" lon="12.9752332"><ele>18.0</ele><time>2026-04-19T08:40:40.346Z</time></trkpt><trkpt lat="45.8940465" lon="12.9750412"><ele>18.0</ele><time>2026-04-19T08:40:41.342Z</time></trkpt><trkpt lat="45.8940195" lon="12.9748477"><ele>18.0</ele><time>2026-04-19T08:40:42.341Z</time></trkpt><trkpt lat="45.8939935" lon="12.974655"><ele>17.75</ele><time>2026-04-19T08:40:43.34Z</time></trkpt><trkpt lat="45.8939676" lon="12.9744565"><ele>17.5</ele><time>2026-04-19T08:40:44.345Z</time></trkpt><trkpt lat="45.8939407" lon="12.9742583"><ele>17.25</ele><time>2026-04-19T08:40:45.349Z</time></trkpt><trkpt lat="45.8939135" lon="12.9740604"><ele>17.0</ele><time>2026-04-19T08:40:46.342Z</time></trkpt><trkpt lat="45.8938882" lon="12.9738588"><ele>17.0</ele><time>2026-04-19T08:40:47.34Z</time></trkpt><trkpt lat="45.8938576" lon="12.9736523"><ele>17.0</ele><time>2026-04-19T08:40:48.34Z</time></trkpt><trkpt lat="45.8938246" lon="12.9734432"><ele>17.0</ele><time>2026-04-19T08:40:49.345Z</time></trkpt><trkpt lat="45.8937949" lon="12.9732296"><ele>17.0</ele><time>2026-04-19T08:40:50.339Z</time></trkpt><trkpt lat="45.8937668" lon="12.9730154"><ele>17.0</ele><time>2026-04-19T08:40:51.343Z</time></trkpt><trkpt lat="45.8937352" lon="12.9727968"><ele>17.0</ele><time>2026-04-19T08:40:52.338Z</time></trkpt><trkpt lat="45.8937061" lon="12.9725739"><ele>17.0</ele><time>2026-04-19T08:40:53.339Z</time></trkpt><trkpt lat="45.8936818" lon="12.9723532"><ele>17.0</ele><time>2026-04-19T08:40:54.342Z</time></trkpt><trkpt lat="45.8936509" lon="12.9721394"><ele>17.0</ele><time>2026-04-19T08:40:55.34Z</time></trkpt><trkpt lat="45.8936186" lon="12.9719168"><ele>17.0</ele><time>2026-04-19T08:40:56.36Z</time></trkpt><trkpt lat="45.8935887" lon="12.9716931"><ele>17.0</ele><time>2026-04-19T08:40:57.344Z</time></trkpt><trkpt lat="45.8935617" lon="12.9714692"><ele>17.0</ele><time>2026-04-19T08:40:58.34Z</time></trkpt><trkpt lat="45.8935353" lon="12.971256"><ele>17.0</ele><time>2026-04-19T08:40:59.332Z</time></trkpt><trkpt lat="45.8935076" lon="12.9710327"><ele>16.666666666666668</ele><time>2026-04-19T08:41:00.336Z</time></trkpt><trkpt lat="45.893478" lon="12.970815"><ele>16.333333333333332</ele><time>2026-04-19T08:41:01.345Z</time></trkpt><trkpt lat="45.8934487" lon="12.9705959"><ele>16.0</ele><time>2026-04-19T08:41:02.346Z</time></trkpt><trkpt lat="45.8934218" lon="12.9703763"><ele>15.333333333333332</ele><time>2026-04-19T08:41:03.339Z</time></trkpt><trkpt lat="45.8933927" lon="12.9701545"><ele>14.666666666666668</ele><time>2026-04-19T08:41:04.335Z</time></trkpt><trkpt lat="45.8933592" lon="12.9699308"><ele>14.0</ele><time>2026-04-19T08:41:05.337Z</time></trkpt><trkpt lat="45.8933298" lon="12.969703"><ele>14.25</ele><time>2026-04-19T08:41:06.35Z</time></trkpt><trkpt lat="45.8932978" lon="12.9694908"><ele>14.5</ele><time>2026-04-19T08:41:07.34Z</time></trkpt><trkpt lat="45.8932646" lon="12.9692889"><ele>14.75</ele><time>2026-04-19T08:41:08.355Z</time></trkpt><trkpt lat="45.893233" lon="12.9690888"><ele>15.0</ele><time>2026-04-19T08:41:09.341Z</time></trkpt><trkpt lat="45.8932026" lon="12.9688853"><ele>15.0</ele><time>2026-04-19T08:41:10.332Z</time></trkpt><trkpt lat="45.8931689" lon="12.9686761"><ele>15.0</ele><time>2026-04-19T08:41:11.347Z</time></trkpt><trkpt lat="45.8931334" lon="12.9684653"><ele>15.0</ele><time>2026-04-19T08:41:12.332Z</time></trkpt><trkpt lat="45.8931029" lon="12.9682538"><ele>15.333333333333332</ele><time>2026-04-19T08:41:13.339Z</time></trkpt><trkpt lat="45.8930735" lon="12.9680419"><ele>15.666666666666666</ele><time>2026-04-19T08:41:14.346Z</time></trkpt><trkpt lat="45.8930461" lon="12.9678222"><ele>16.0</ele><time>2026-04-19T08:41:15.347Z</time></trkpt><trkpt lat="45.8930118" lon="12.9676167"><ele>15.75</ele><time>2026-04-19T08:41:16.341Z</time></trkpt><trkpt lat="45.8929799" lon="12.9674068"><ele>15.5</ele><time>2026-04-19T08:41:17.346Z</time></trkpt><trkpt lat="45.8929505" lon="12.967195"><ele>15.25</ele><time>2026-04-19T08:41:18.346Z</time></trkpt><trkpt lat="45.8929199" lon="12.966987"><ele>15.0</ele><time>2026-04-19T08:41:19.335Z</time></trkpt><trkpt lat="45.8928887" lon="12.9667861"><ele>15.0</ele><time>2026-04-19T08:41:20.339Z</time></trkpt><trkpt lat="45.8928598" lon="12.9665843"><ele>15.0</ele><time>2026-04-19T08:41:21.337Z</time></trkpt><trkpt lat="45.8928284" lon="12.9663833"><ele>15.0</ele><time>2026-04-19T08:41:22.336Z</time></trkpt><trkpt lat="45.8927951" lon="12.9661797"><ele>15.0</ele><time>2026-04-19T08:41:23.346Z</time></trkpt><trkpt lat="45.8927656" lon="12.9659814"><ele>15.25</ele><time>2026-04-19T08:41:24.346Z</time></trkpt><trkpt lat="45.8927313" lon="12.9657845"><ele>15.5</ele><time>2026-04-19T08:41:25.329Z</time></trkpt><trkpt lat="45.8926915" lon="12.96559"><ele>15.75</ele><time>2026-04-19T08:41:26.338Z</time></trkpt><trkpt lat="45.8926591" lon="12.9653857"><ele>16.0</ele><time>2026-04-19T08:41:27.336Z</time></trkpt><trkpt lat="45.892622" lon="12.9651875"><ele>16.0</ele><time>2026-04-19T08:41:28.339Z</time></trkpt><trkpt lat="45.8925927" lon="12.964997"><ele>16.0</ele><time>2026-04-19T08:41:29.339Z</time></trkpt><trkpt lat="45.8925581" lon="12.964812"><ele>16.0</ele><time>2026-04-19T08:41:30.332Z</time></trkpt><trkpt lat="45.892523" lon="12.9646331"><ele>16.0</ele><time>2026-04-19T08:41:31.339Z</time></trkpt><trkpt lat="45.8924896" lon="12.9644596"><ele>16.0</ele><time>2026-04-19T08:41:32.339Z</time></trkpt><trkpt lat="45.8924582" lon="12.9642911"><ele>16.0</ele><time>2026-04-19T08:41:33.356Z</time></trkpt><trkpt lat="45.8924242" lon="12.9641321"><ele>16.0</ele><time>2026-04-19T08:41:34.337Z</time></trkpt><trkpt lat="45.8923862" lon="12.9639793"><ele>16.0</ele><time>2026-04-19T08:41:35.337Z</time></trkpt><trkpt lat="45.892339" lon="12.9638324"><ele>15.75</ele><time>2026-04-19T08:41:36.331Z</time></trkpt><trkpt lat="45.89229" lon="12.9636791"><ele>15.5</ele><time>2026-04-19T08:41:37.334Z</time></trkpt><trkpt lat="45.8922419" lon="12.9635274"><ele>15.25</ele><time>2026-04-19T08:41:38.349Z</time></trkpt><trkpt lat="45.8921957" lon="12.9633716"><ele>15.0</ele><time>2026-04-19T08:41:39.337Z</time></trkpt><trkpt lat="45.8921502" lon="12.9632145"><ele>15.0</ele><time>2026-04-19T08:41:40.338Z</time></trkpt><trkpt lat="45.8921025" lon="12.9630615"><ele>15.0</ele><time>2026-04-19T08:41:41.338Z</time></trkpt><trkpt lat="45.8920592" lon="12.9629172"><ele>15.0</ele><time>2026-04-19T08:41:42.33Z</time></trkpt><trkpt lat="45.8920243" lon="12.9627846"><ele>15.0</ele><time>2026-04-19T08:41:43.359Z</time></trkpt><trkpt lat="45.8919929" lon="12.9626464"><ele>15.0</ele><time>2026-04-19T08:41:44.345Z</time></trkpt><trkpt lat="45.8919567" lon="12.9625064"><ele>15.2</ele><time>2026-04-19T08:41:45.338Z</time></trkpt><trkpt lat="45.891935" lon="12.9623596"><ele>15.4</ele><time>2026-04-19T08:41:46.339Z</time></trkpt><trkpt lat="45.8919172" lon="12.9622126"><ele>15.600000000000001</ele><time>2026-04-19T08:41:47.333Z</time></trkpt><trkpt lat="45.8919084" lon="12.9620611"><ele>15.8</ele><time>2026-04-19T08:41:48.333Z</time></trkpt><trkpt lat="45.8919044" lon="12.961913"><ele>16.0</ele><time>2026-04-19T08:41:49.375Z</time></trkpt><trkpt lat="45.891899" lon="12.9617637"><ele>16.400000000000002</ele><time>2026-04-19T08:41:50.347Z</time></trkpt><trkpt lat="45.8918863" lon="12.9616226"><ele>16.8</ele><time>2026-04-19T08:41:51.338Z</time></trkpt><trkpt lat="45.8918575" lon="12.9614752"><ele>17.200000000000003</ele><time>2026-04-19T08:41:52.335Z</time></trkpt><trkpt lat="45.8918251" lon="12.9613278"><ele>17.6</ele><time>2026-04-19T08:41:53.334Z</time></trkpt><trkpt lat="45.8917881" lon="12.9611788"><ele>18.0</ele><time>2026-04-19T08:41:54.344Z</time></trkpt><trkpt lat="45.8917502" lon="12.9610312"><ele>18.0</ele><time>2026-04-19T08:41:55.336Z</time></trkpt><trkpt lat="45.8917006" lon="12.9608885"><ele>18.0</ele><time>2026-04-19T08:41:56.34Z</time></trkpt><trkpt lat="45.8916396" lon="12.9607485"><ele>18.0</ele><time>2026-04-19T08:41:57.36Z</time></trkpt><trkpt lat="45.8915735" lon="12.9606043"><ele>18.0</ele><time>2026-04-19T08:41:58.351Z</time></trkpt><trkpt lat="45.8915066" lon="12.9604647"><ele>18.0</ele><time>2026-04-19T08:41:59.342Z</time></trkpt><trkpt lat="45.8914407" lon="12.9603242"><ele>18.0</ele><time>2026-04-19T08:42:00.344Z</time></trkpt><trkpt lat="45.8913826" lon="12.9601729"><ele>18.0</ele><time>2026-04-19T08:42:01.351Z</time></trkpt><trkpt lat="45.8913348" lon="12.9600077"><ele>18.0</ele><time>2026-04-19T08:42:02.359Z</time></trkpt><trkpt lat="45.8912989" lon="12.9598471"><ele>18.0</ele><time>2026-04-19T08:42:03.346Z</time></trkpt><trkpt lat="45.8912897" lon="12.9596818"><ele>18.0</ele><time>2026-04-19T08:42:04.346Z</time></trkpt><trkpt lat="45.8912965" lon="12.9595073"><ele>18.0</ele><time>2026-04-19T08:42:05.329Z</time></trkpt><trkpt lat="45.8913226" lon="12.9593338"><ele>18.0</ele><time>2026-04-19T08:42:06.355Z</time></trkpt><trkpt lat="45.8913522" lon="12.9591659"><ele>17.5</ele><time>2026-04-19T08:42:07.333Z</time></trkpt><trkpt lat="45.8913855" lon="12.9589899"><ele>17.0</ele><time>2026-04-19T08:42:08.328Z</time></trkpt><trkpt lat="45.8914251" lon="12.958806"><ele>16.5</ele><time>2026-04-19T08:42:09.34Z</time></trkpt><trkpt lat="45.8914604" lon="12.9586309"><ele>16.0</ele><time>2026-04-19T08:42:10.341Z</time></trkpt><trkpt lat="45.8914975" lon="12.9584514"><ele>16.0</ele><time>2026-04-19T08:42:11.363Z</time></trkpt><trkpt lat="45.8915303" lon="12.9582705"><ele>16.0</ele><time>2026-04-19T08:42:12.334Z</time></trkpt><trkpt lat="45.8915687" lon="12.9580912"><ele>16.0</ele><time>2026-04-19T08:42:13.335Z</time></trkpt><trkpt lat="45.8916058" lon="12.9579167"><ele>16.0</ele><time>2026-04-19T08:42:14.336Z</time></trkpt><trkpt lat="45.8916426" lon="12.9577396"><ele>16.0</ele><time>2026-04-19T08:42:15.338Z</time></trkpt><trkpt lat="45.8916881" lon="12.9575723"><ele>16.0</ele><time>2026-04-19T08:42:16.347Z</time></trkpt><trkpt lat="45.8917385" lon="12.957408"><ele>16.0</ele><time>2026-04-19T08:42:17.344Z</time></trkpt><trkpt lat="45.8918057" lon="12.9572402"><ele>16.0</ele><time>2026-04-19T08:42:18.346Z</time></trkpt><trkpt lat="45.8918763" lon="12.957079"><ele>16.0</ele><time>2026-04-19T08:42:19.331Z</time></trkpt><trkpt lat="45.8919585" lon="12.9569281"><ele>16.0</ele><time>2026-04-19T08:42:20.344Z</time></trkpt><trkpt lat="45.8920424" lon="12.9567703"><ele>16.0</ele><time>2026-04-19T08:42:21.347Z</time></trkpt><trkpt lat="45.8921258" lon="12.9566203"><ele>16.0</ele><time>2026-04-19T08:42:22.339Z</time></trkpt><trkpt lat="45.8922089" lon="12.9564614"><ele>16.0</ele><time>2026-04-19T08:42:23.348Z</time></trkpt><trkpt lat="45.8922958" lon="12.9563034"><ele>16.0</ele><time>2026-04-19T08:42:24.337Z</time></trkpt><trkpt lat="45.8923858" lon="12.9561399"><ele>16.0</ele><time>2026-04-19T08:42:25.348Z</time></trkpt><trkpt lat="45.8924742" lon="12.9559794"><ele>16.0</ele><time>2026-04-19T08:42:26.352Z</time></trkpt><trkpt lat="45.892562" lon="12.9558202"><ele>16.25</ele><time>2026-04-19T08:42:27.339Z</time></trkpt><trkpt lat="45.8926502" lon="12.9556605"><ele>16.5</ele><time>2026-04-19T08:42:28.355Z</time></trkpt><trkpt lat="45.8927383" lon="12.9554996"><ele>16.75</ele><time>2026-04-19T08:42:29.353Z</time></trkpt><trkpt lat="45.8928266" lon="12.9553461"><ele>17.0</ele><time>2026-04-19T08:42:30.346Z</time></trkpt><trkpt lat="45.8929162" lon="12.9551864"><ele>17.0</ele><time>2026-04-19T08:42:31.344Z</time></trkpt><trkpt lat="45.8929995" lon="12.955033"><ele>17.0</ele><time>2026-04-19T08:42:32.343Z</time></trkpt><trkpt lat="45.8930899" lon="12.9548846"><ele>17.0</ele><time>2026-04-19T08:42:33.363Z</time></trkpt><trkpt lat="45.8931877" lon="12.9547407"><ele>17.0</ele><time>2026-04-19T08:42:34.348Z</time></trkpt><trkpt lat="45.8932928" lon="12.9546119"><ele>17.0</ele><time>2026-04-19T08:42:35.337Z</time></trkpt><trkpt lat="45.8934032" lon="12.9544897"><ele>17.0</ele><time>2026-04-19T08:42:36.346Z</time></trkpt><trkpt lat="45.8935212" lon="12.9543768"><ele>17.0</ele><time>2026-04-19T08:42:37.338Z</time></trkpt><trkpt lat="45.8936467" lon="12.9542718"><ele>17.0</ele><time>2026-04-19T08:42:38.351Z</time></trkpt><trkpt lat="45.8937767" lon="12.9541784"><ele>17.0</ele><time>2026-04-19T08:42:39.347Z</time></trkpt><trkpt lat="45.8939097" lon="12.9540891"><ele>17.0</ele><time>2026-04-19T08:42:40.34Z</time></trkpt><trkpt lat="45.8940439" lon="12.9540065"><ele>17.0</ele><time>2026-04-19T08:42:41.341Z</time></trkpt><trkpt lat="45.8941753" lon="12.9539205"><ele>17.0</ele><time>2026-04-19T08:42:42.346Z</time></trkpt><trkpt lat="45.8943084" lon="12.9538407"><ele>17.0</ele><time>2026-04-19T08:42:43.341Z</time></trkpt><trkpt lat="45.8944354" lon="12.953762"><ele>17.0</ele><time>2026-04-19T08:42:44.345Z</time></trkpt><trkpt lat="45.8945633" lon="12.9536766"><ele>17.0</ele><time>2026-04-19T08:42:45.35Z</time></trkpt><trkpt lat="45.8946952" lon="12.953585"><ele>17.0</ele><time>2026-04-19T08:42:46.349Z</time></trkpt><trkpt lat="45.8948234" lon="12.9534802"><ele>17.0</ele><time>2026-04-19T08:42:47.352Z</time></trkpt><trkpt lat="45.8949456" lon="12.9533618"><ele>17.0</ele><time>2026-04-19T08:42:48.342Z</time></trkpt><trkpt lat="45.8950548" lon="12.9532367"><ele>17.0</ele><time>2026-04-19T08:42:49.343Z</time></trkpt><trkpt lat="45.8951615" lon="12.9531018"><ele>17.0</ele><time>2026-04-19T08:42:50.338Z</time></trkpt><trkpt lat="45.8952613" lon="12.9529511"><ele>17.0</ele><time>2026-04-19T08:42:51.343Z</time></trkpt><trkpt lat="45.895353" lon="12.9527969"><ele>17.0</ele><time>2026-04-19T08:42:52.342Z</time></trkpt><trkpt lat="45.8954365" lon="12.9526415"><ele>17.0</ele><time>2026-04-19T08:42:53.342Z</time></trkpt><trkpt lat="45.8955178" lon="12.9524769"><ele>17.0</ele><time>2026-04-19T08:42:54.349Z</time></trkpt><trkpt lat="45.8955918" lon="12.952307"><ele>17.25</ele><time>2026-04-19T08:42:55.335Z</time></trkpt><trkpt lat="45.8956702" lon="12.9521336"><ele>17.5</ele><time>2026-04-19T08:42:56.34Z</time></trkpt><trkpt lat="45.8957419" lon="12.951963"><ele>17.75</ele><time>2026-04-19T08:42:57.336Z</time></trkpt><trkpt lat="45.8958182" lon="12.9517943"><ele>18.0</ele><time>2026-04-19T08:42:58.342Z</time></trkpt><trkpt lat="45.8958884" lon="12.9516284"><ele>18.5</ele><time>2026-04-19T08:42:59.341Z</time></trkpt><trkpt lat="45.8959627" lon="12.9514574"><ele>19.0</ele><time>2026-04-19T08:43:00.338Z</time></trkpt><trkpt lat="45.8960357" lon="12.9512899"><ele>19.5</ele><time>2026-04-19T08:43:01.333Z</time></trkpt><trkpt lat="45.8961085" lon="12.9511254"><ele>20.0</ele><time>2026-04-19T08:43:02.348Z</time></trkpt><trkpt lat="45.8961769" lon="12.9509646"><ele>20.8</ele><time>2026-04-19T08:43:03.342Z</time></trkpt><trkpt lat="45.89624" lon="12.9508123"><ele>21.6</ele><time>2026-04-19T08:43:04.348Z</time></trkpt><trkpt lat="45.8963" lon="12.9506716"><ele>22.4</ele><time>2026-04-19T08:43:05.341Z</time></trkpt><trkpt lat="45.8963531" lon="12.9505465"><ele>23.2</ele><time>2026-04-19T08:43:06.342Z</time></trkpt><trkpt lat="45.8964018" lon="12.9504231"><ele>24.0</ele><time>2026-04-19T08:43:07.34Z</time></trkpt><trkpt lat="45.8964465" lon="12.9503135"><ele>24.0</ele><time>2026-04-19T08:43:08.335Z</time></trkpt><trkpt lat="45.8964884" lon="12.9502145"><ele>24.0</ele><time>2026-04-19T08:43:09.346Z</time></trkpt><trkpt lat="45.8965255" lon="12.9501289"><ele>24.0</ele><time>2026-04-19T08:43:10.331Z</time></trkpt><trkpt lat="45.8966098" lon="12.9500175"><ele>24.0</ele><time>2026-04-19T08:43:12.336Z</time></trkpt><trkpt lat="45.8967229" lon="12.9500429"><ele>24.0</ele><time>2026-04-19T08:43:14.332Z</time></trkpt><trkpt lat="45.8967812" lon="12.9500945"><ele>24.0</ele><time>2026-04-19T08:43:15.335Z</time></trkpt><trkpt lat="45.896833" lon="12.9501463"><ele>23.333333333333332</ele><time>2026-04-19T08:43:16.341Z</time></trkpt><trkpt lat="45.8968902" lon="12.9502111"><ele>22.666666666666668</ele><time>2026-04-19T08:43:17.339Z</time></trkpt><trkpt lat="45.8969603" lon="12.9502695"><ele>22.0</ele><time>2026-04-19T08:43:18.343Z</time></trkpt><trkpt lat="45.8970393" lon="12.9503195"><ele>21.333333333333336</ele><time>2026-04-19T08:43:19.339Z</time></trkpt><trkpt lat="45.8971108" lon="12.9503714"><ele>20.666666666666668</ele><time>2026-04-19T08:43:20.328Z</time></trkpt><trkpt lat="45.8971907" lon="12.9503936"><ele>20.0</ele><time>2026-04-19T08:43:21.35Z</time></trkpt><trkpt lat="45.8972809" lon="12.9503742"><ele>20.0</ele><time>2026-04-19T08:43:22.336Z</time></trkpt><trkpt lat="45.8973732" lon="12.9503401"><ele>20.0</ele><time>2026-04-19T08:43:23.342Z</time></trkpt><trkpt lat="45.8974484" lon="12.950294"><ele>20.0</ele><time>2026-04-19T08:43:24.339Z</time></trkpt><trkpt lat="45.8975165" lon="12.9502426"><ele>20.0</ele><time>2026-04-19T08:43:25.34Z</time></trkpt><trkpt lat="45.8975988" lon="12.9501867"><ele>20.0</ele><time>2026-04-19T08:43:26.338Z</time></trkpt><trkpt lat="45.8976848" lon="12.9501322"><ele>20.0</ele><time>2026-04-19T08:43:27.338Z</time></trkpt><trkpt lat="45.8977678" lon="12.9500627"><ele>19.8</ele><time>2026-04-19T08:43:28.337Z</time></trkpt><trkpt lat="45.8978469" lon="12.949979"><ele>19.6</ele><time>2026-04-19T08:43:29.344Z</time></trkpt><trkpt lat="45.8979225" lon="12.9498904"><ele>19.4</ele><time>2026-04-19T08:43:30.341Z</time></trkpt><trkpt lat="45.8979966" lon="12.9497844"><ele>19.2</ele><time>2026-04-19T08:43:31.337Z</time></trkpt><trkpt lat="45.898067" lon="12.949663"><ele>19.0</ele><time>2026-04-19T08:43:32.342Z</time></trkpt><trkpt lat="45.8981356" lon="12.9495406"><ele>19.0</ele><time>2026-04-19T08:43:33.344Z</time></trkpt><trkpt lat="45.8982075" lon="12.9494203"><ele>19.0</ele><time>2026-04-19T08:43:34.346Z</time></trkpt><trkpt lat="45.8982853" lon="12.9492953"><ele>19.0</ele><time>2026-04-19T08:43:35.344Z</time></trkpt><trkpt lat="45.8983646" lon="12.9491766"><ele>19.0</ele><time>2026-04-19T08:43:36.337Z</time></trkpt><trkpt lat="45.8984354" lon="12.949055"><ele>19.25</ele><time>2026-04-19T08:43:37.34Z</time></trkpt><trkpt lat="45.8985113" lon="12.9489405"><ele>19.5</ele><time>2026-04-19T08:43:38.342Z</time></trkpt><trkpt lat="45.8985847" lon="12.9488233"><ele>19.75</ele><time>2026-04-19T08:43:39.349Z</time></trkpt><trkpt lat="45.8986548" lon="12.9486869"><ele>20.0</ele><time>2026-04-19T08:43:40.343Z</time></trkpt><trkpt lat="45.8987275" lon="12.9485468"><ele>20.0</ele><time>2026-04-19T08:43:41.364Z</time></trkpt><trkpt lat="45.8988015" lon="12.9484084"><ele>20.0</ele><time>2026-04-19T08:43:42.342Z</time></trkpt><trkpt lat="45.898877" lon="12.9482668"><ele>20.0</ele><time>2026-04-19T08:43:43.345Z</time></trkpt><trkpt lat="45.8989545" lon="12.9481227"><ele>20.0</ele><time>2026-04-19T08:43:44.34Z</time></trkpt><trkpt lat="45.8990344" lon="12.9479757"><ele>20.0</ele><time>2026-04-19T08:43:45.343Z</time></trkpt><trkpt lat="45.8991134" lon="12.9478244"><ele>20.0</ele><time>2026-04-19T08:43:46.355Z</time></trkpt><trkpt lat="45.8991912" lon="12.9476722"><ele>20.0</ele><time>2026-04-19T08:43:47.338Z</time></trkpt><trkpt lat="45.8992697" lon="12.9475181"><ele>20.0</ele><time>2026-04-19T08:43:48.339Z</time></trkpt><trkpt lat="45.8993538" lon="12.9473599"><ele>19.5</ele><time>2026-04-19T08:43:49.339Z</time></trkpt><trkpt lat="45.8994369" lon="12.9471968"><ele>19.0</ele><time>2026-04-19T08:43:50.345Z</time></trkpt><trkpt lat="45.8995186" lon="12.9470397"><ele>18.5</ele><time>2026-04-19T08:43:51.339Z</time></trkpt><trkpt lat="45.8996051" lon="12.9468758"><ele>18.0</ele><time>2026-04-19T08:43:52.334Z</time></trkpt><trkpt lat="45.8996906" lon="12.946717"><ele>18.25</ele><time>2026-04-19T08:43:53.337Z</time></trkpt><trkpt lat="45.8997814" lon="12.9465499"><ele>18.5</ele><time>2026-04-19T08:43:54.355Z</time></trkpt><trkpt lat="45.8998683" lon="12.9463797"><ele>18.75</ele><time>2026-04-19T08:43:55.339Z</time></trkpt><trkpt lat="45.8999596" lon="12.9462057"><ele>19.0</ele><time>2026-04-19T08:43:56.343Z</time></trkpt><trkpt lat="45.9000514" lon="12.9460292"><ele>19.0</ele><time>2026-04-19T08:43:57.347Z</time></trkpt><trkpt lat="45.9001418" lon="12.9458519"><ele>19.0</ele><time>2026-04-19T08:43:58.348Z</time></trkpt><trkpt lat="45.9002282" lon="12.9456783"><ele>19.0</ele><time>2026-04-19T08:43:59.341Z</time></trkpt><trkpt lat="45.9003123" lon="12.9455087"><ele>19.0</ele><time>2026-04-19T08:44:00.345Z</time></trkpt><trkpt lat="45.9004029" lon="12.945333"><ele>19.0</ele><time>2026-04-19T08:44:01.345Z</time></trkpt><trkpt lat="45.9004965" lon="12.9451536"><ele>19.0</ele><time>2026-04-19T08:44:02.338Z</time></trkpt><trkpt lat="45.9005891" lon="12.9449723"><ele>19.0</ele><time>2026-04-19T08:44:03.353Z</time></trkpt><trkpt lat="45.9006841" lon="12.9447849"><ele>19.333333333333332</ele><time>2026-04-19T08:44:04.354Z</time></trkpt><trkpt lat="45.9007806" lon="12.944599"><ele>19.666666666666668</ele><time>2026-04-19T08:44:05.36Z</time></trkpt><trkpt lat="45.9008779" lon="12.9444101"><ele>20.0</ele><time>2026-04-19T08:44:06.35Z</time></trkpt><trkpt lat="45.9009726" lon="12.9442201"><ele>19.666666666666668</ele><time>2026-04-19T08:44:07.34Z</time></trkpt><trkpt lat="45.9010716" lon="12.9440249"><ele>19.333333333333332</ele><time>2026-04-19T08:44:08.354Z</time></trkpt><trkpt lat="45.9011757" lon="12.9438345"><ele>19.0</ele><time>2026-04-19T08:44:09.345Z</time></trkpt><trkpt lat="45.9012775" lon="12.943641"><ele>19.0</ele><time>2026-04-19T08:44:10.345Z</time></trkpt><trkpt lat="45.9013775" lon="12.9434492"><ele>19.0</ele><time>2026-04-19T08:44:11.338Z</time></trkpt><trkpt lat="45.901475" lon="12.9432569"><ele>19.0</ele><time>2026-04-19T08:44:12.347Z</time></trkpt><trkpt lat="45.901576" lon="12.9430634"><ele>19.666666666666664</ele><time>2026-04-19T08:44:13.348Z</time></trkpt><trkpt lat="45.901679" lon="12.9428746"><ele>20.333333333333332</ele><time>2026-04-19T08:44:14.337Z</time></trkpt><trkpt lat="45.9017783" lon="12.9426917"><ele>21.0</ele><time>2026-04-19T08:44:15.351Z</time></trkpt><trkpt lat="45.9018716" lon="12.9425085"><ele>21.333333333333332</ele><time>2026-04-19T08:44:16.338Z</time></trkpt><trkpt lat="45.9019639" lon="12.942328"><ele>21.666666666666664</ele><time>2026-04-19T08:44:17.348Z</time></trkpt><trkpt lat="45.9020561" lon="12.9421539"><ele>22.0</ele><time>2026-04-19T08:44:18.341Z</time></trkpt><trkpt lat="45.9021465" lon="12.9419784"><ele>22.0</ele><time>2026-04-19T08:44:19.34Z</time></trkpt><trkpt lat="45.902238" lon="12.9418044"><ele>22.0</ele><time>2026-04-19T08:44:20.34Z</time></trkpt><trkpt lat="45.9023289" lon="12.9416362"><ele>22.0</ele><time>2026-04-19T08:44:21.345Z</time></trkpt><trkpt lat="45.9024191" lon="12.9414641"><ele>22.0</ele><time>2026-04-19T08:44:22.344Z</time></trkpt><trkpt lat="45.9025044" lon="12.9412904"><ele>22.0</ele><time>2026-04-19T08:44:23.343Z</time></trkpt><trkpt lat="45.9025857" lon="12.9411286"><ele>22.0</ele><time>2026-04-19T08:44:24.342Z</time></trkpt><trkpt lat="45.9026617" lon="12.9409781"><ele>22.0</ele><time>2026-04-19T08:44:25.332Z</time></trkpt><trkpt lat="45.9027363" lon="12.9408343"><ele>22.5</ele><time>2026-04-19T08:44:26.345Z</time></trkpt><trkpt lat="45.9028286" lon="12.9406926"><ele>23.0</ele><time>2026-04-19T08:44:27.346Z</time></trkpt><trkpt lat="45.9029303" lon="12.9405622"><ele>23.5</ele><time>2026-04-19T08:44:28.348Z</time></trkpt><trkpt lat="45.903055" lon="12.9404622"><ele>24.0</ele><time>2026-04-19T08:44:29.347Z</time></trkpt><trkpt lat="45.9031864" lon="12.9403771"><ele>24.0</ele><time>2026-04-19T08:44:30.334Z</time></trkpt><trkpt lat="45.9033263" lon="12.9403076"><ele>24.0</ele><time>2026-04-19T08:44:31.363Z</time></trkpt><trkpt lat="45.90347" lon="12.9402435"><ele>24.0</ele><time>2026-04-19T08:44:32.341Z</time></trkpt><trkpt lat="45.9036134" lon="12.9401838"><ele>24.0</ele><time>2026-04-19T08:44:33.337Z</time></trkpt><trkpt lat="45.9037568" lon="12.9401217"><ele>23.75</ele><time>2026-04-19T08:44:34.337Z</time></trkpt><trkpt lat="45.9038967" lon="12.9400576"><ele>23.5</ele><time>2026-04-19T08:44:35.343Z</time></trkpt><trkpt lat="45.9040338" lon="12.9399993"><ele>23.25</ele><time>2026-04-19T08:44:36.341Z</time></trkpt><trkpt lat="45.9041743" lon="12.9399334"><ele>23.0</ele><time>2026-04-19T08:44:37.345Z</time></trkpt><trkpt lat="45.9043218" lon="12.9398679"><ele>22.666666666666668</ele><time>2026-04-19T08:44:38.344Z</time></trkpt><trkpt lat="45.9044683" lon="12.9398037"><ele>22.333333333333332</ele><time>2026-04-19T08:44:39.339Z</time></trkpt><trkpt lat="45.9046189" lon="12.939739"><ele>22.0</ele><time>2026-04-19T08:44:40.348Z</time></trkpt><trkpt lat="45.9047678" lon="12.939671"><ele>22.0</ele><time>2026-04-19T08:44:41.337Z</time></trkpt><trkpt lat="45.9049204" lon="12.9396048"><ele>22.0</ele><time>2026-04-19T08:44:42.34Z</time></trkpt><trkpt lat="45.9050734" lon="12.9395346"><ele>22.0</ele><time>2026-04-19T08:44:43.347Z</time></trkpt><trkpt lat="45.9052263" lon="12.939463"><ele>22.0</ele><time>2026-04-19T08:44:44.343Z</time></trkpt><trkpt lat="45.9053776" lon="12.9393888"><ele>22.0</ele><time>2026-04-19T08:44:45.343Z</time></trkpt><trkpt lat="45.9055322" lon="12.9393262"><ele>22.0</ele><time>2026-04-19T08:44:46.341Z</time></trkpt><trkpt lat="45.9056875" lon="12.9392633"><ele>22.333333333333332</ele><time>2026-04-19T08:44:47.346Z</time></trkpt><trkpt lat="45.9058382" lon="12.9392009"><ele>22.666666666666668</ele><time>2026-04-19T08:44:48.349Z</time></trkpt><trkpt lat="45.9059943" lon="12.9391288"><ele>23.0</ele><time>2026-04-19T08:44:49.352Z</time></trkpt><trkpt lat="45.9061507" lon="12.9390583"><ele>23.0</ele><time>2026-04-19T08:44:50.347Z</time></trkpt><trkpt lat="45.9063096" lon="12.9389884"><ele>23.0</ele><time>2026-04-19T08:44:51.337Z</time></trkpt><trkpt lat="45.9064681" lon="12.9389154"><ele>23.0</ele><time>2026-04-19T08:44:52.341Z</time></trkpt><trkpt lat="45.9066261" lon="12.9388492"><ele>23.0</ele><time>2026-04-19T08:44:53.351Z</time></trkpt><trkpt lat="45.9067793" lon="12.9387816"><ele>23.0</ele><time>2026-04-19T08:44:54.353Z</time></trkpt><trkpt lat="45.9069339" lon="12.9387115"><ele>23.0</ele><time>2026-04-19T08:44:55.343Z</time></trkpt><trkpt lat="45.9070873" lon="12.938645"><ele>23.0</ele><time>2026-04-19T08:44:56.345Z</time></trkpt><trkpt lat="45.9072421" lon="12.9385725"><ele>23.0</ele><time>2026-04-19T08:44:57.353Z</time></trkpt><trkpt lat="45.9073957" lon="12.9385022"><ele>23.0</ele><time>2026-04-19T08:44:58.344Z</time></trkpt><trkpt lat="45.9075495" lon="12.9384374"><ele>23.0</ele><time>2026-04-19T08:44:59.368Z</time></trkpt><trkpt lat="45.9077033" lon="12.9383713"><ele>23.0</ele><time>2026-04-19T08:45:00.352Z</time></trkpt><trkpt lat="45.9078534" lon="12.9383018"><ele>23.0</ele><time>2026-04-19T08:45:01.34Z</time></trkpt><trkpt lat="45.9079979" lon="12.9382329"><ele>23.0</ele><time>2026-04-19T08:45:02.346Z</time></trkpt><trkpt lat="45.9081481" lon="12.9381697"><ele>23.0</ele><time>2026-04-19T08:45:03.345Z</time></trkpt><trkpt lat="45.9082941" lon="12.9381075"><ele>23.0</ele><time>2026-04-19T08:45:04.345Z</time></trkpt><trkpt lat="45.9084392" lon="12.9380457"><ele>23.666666666666668</ele><time>2026-04-19T08:45:05.342Z</time></trkpt><trkpt lat="45.9085824" lon="12.9379762"><ele>24.333333333333336</ele><time>2026-04-19T08:45:06.35Z</time></trkpt><trkpt lat="45.9087247" lon="12.9379099"><ele>25.0</ele><time>2026-04-19T08:45:07.346Z</time></trkpt><trkpt lat="45.9088749" lon="12.9378426"><ele>25.0</ele><time>2026-04-19T08:45:08.353Z</time></trkpt><trkpt lat="45.9090208" lon="12.9377794"><ele>25.0</ele><time>2026-04-19T08:45:09.34Z</time></trkpt><trkpt lat="45.9091589" lon="12.9377198"><ele>25.0</ele><time>2026-04-19T08:45:10.416Z</time></trkpt><trkpt lat="45.9092973" lon="12.9376579"><ele>25.0</ele><time>2026-04-19T08:45:11.34Z</time></trkpt><trkpt lat="45.909441" lon="12.9375908"><ele>24.75</ele><time>2026-04-19T08:45:12.342Z</time></trkpt><trkpt lat="45.9095763" lon="12.9375319"><ele>24.5</ele><time>2026-04-19T08:45:13.347Z</time></trkpt><trkpt lat="45.9097037" lon="12.9374805"><ele>24.25</ele><time>2026-04-19T08:45:14.347Z</time></trkpt><trkpt lat="45.9098272" lon="12.9374313"><ele>24.0</ele><time>2026-04-19T08:45:15.346Z</time></trkpt><trkpt lat="45.9099432" lon="12.9373795"><ele>24.0</ele><time>2026-04-19T08:45:16.345Z</time></trkpt><trkpt lat="45.9100505" lon="12.9373324"><ele>24.0</ele><time>2026-04-19T08:45:17.334Z</time></trkpt><trkpt lat="45.9101472" lon="12.9372903"><ele>24.0</ele><time>2026-04-19T08:45:18.34Z</time></trkpt><trkpt lat="45.9102364" lon="12.9372496"><ele>24.0</ele><time>2026-04-19T08:45:19.351Z</time></trkpt><trkpt lat="45.9103166" lon="12.9372028"><ele>24.0</ele><time>2026-04-19T08:45:20.35Z</time></trkpt><trkpt lat="45.9103892" lon="12.9371358"><ele>23.799999999999997</ele><time>2026-04-19T08:45:21.338Z</time></trkpt><trkpt lat="45.9104563" lon="12.9370447"><ele>23.599999999999998</ele><time>2026-04-19T08:45:22.358Z</time></trkpt><trkpt lat="45.9105179" lon="12.9369502"><ele>23.4</ele><time>2026-04-19T08:45:23.347Z</time></trkpt><trkpt lat="45.9105896" lon="12.9368745"><ele>23.2</ele><time>2026-04-19T08:45:24.347Z</time></trkpt><trkpt lat="45.910672" lon="12.9368112"><ele>23.0</ele><time>2026-04-19T08:45:25.335Z</time></trkpt><trkpt lat="45.9107574" lon="12.9367646"><ele>23.0</ele><time>2026-04-19T08:45:26.346Z</time></trkpt><trkpt lat="45.910855" lon="12.9367449"><ele>23.0</ele><time>2026-04-19T08:45:27.342Z</time></trkpt><trkpt lat="45.9109522" lon="12.936736"><ele>23.0</ele><time>2026-04-19T08:45:28.335Z</time></trkpt><trkpt lat="45.9110609" lon="12.9367551"><ele>23.0</ele><time>2026-04-19T08:45:29.334Z</time></trkpt><trkpt lat="45.9111725" lon="12.936787"><ele>23.0</ele><time>2026-04-19T08:45:30.344Z</time></trkpt><trkpt lat="45.9112825" lon="12.9368156"><ele>23.25</ele><time>2026-04-19T08:45:31.347Z</time></trkpt><trkpt lat="45.9114003" lon="12.9368363"><ele>23.5</ele><time>2026-04-19T08:45:32.342Z</time></trkpt><trkpt lat="45.9115234" lon="12.9368656"><ele>23.75</ele><time>2026-04-19T08:45:33.359Z</time></trkpt><trkpt lat="45.9116396" lon="12.9368917"><ele>24.0</ele><time>2026-04-19T08:45:34.336Z</time></trkpt><trkpt lat="45.9117585" lon="12.9369158"><ele>24.25</ele><time>2026-04-19T08:45:35.353Z</time></trkpt><trkpt lat="45.9118755" lon="12.9369362"><ele>24.5</ele><time>2026-04-19T08:45:36.349Z</time></trkpt><trkpt lat="45.9120004" lon="12.936966"><ele>24.75</ele><time>2026-04-19T08:45:37.341Z</time></trkpt><trkpt lat="45.9121257" lon="12.9370013"><ele>25.0</ele><time>2026-04-19T08:45:38.339Z</time></trkpt><trkpt lat="45.912256" lon="12.9370308"><ele>25.0</ele><time>2026-04-19T08:45:39.341Z</time></trkpt><trkpt lat="45.9123843" lon="12.9370551"><ele>25.0</ele><time>2026-04-19T08:45:40.344Z</time></trkpt><trkpt lat="45.9125142" lon="12.9370803"><ele>25.0</ele><time>2026-04-19T08:45:41.344Z</time></trkpt><trkpt lat="45.9126422" lon="12.9371054"><ele>25.0</ele><time>2026-04-19T08:45:42.351Z</time></trkpt><trkpt lat="45.9127645" lon="12.9371327"><ele>24.75</ele><time>2026-04-19T08:45:43.355Z</time></trkpt><trkpt lat="45.9128846" lon="12.937157"><ele>24.5</ele><time>2026-04-19T08:45:44.337Z</time></trkpt><trkpt lat="45.9130006" lon="12.9371829"><ele>24.25</ele><time>2026-04-19T08:45:45.344Z</time></trkpt><trkpt lat="45.9131154" lon="12.9372116"><ele>24.0</ele><time>2026-04-19T08:45:46.338Z</time></trkpt><trkpt lat="45.9132305" lon="12.9372435"><ele>24.0</ele><time>2026-04-19T08:45:47.351Z</time></trkpt><trkpt lat="45.9133424" lon="12.9372743"><ele>24.0</ele><time>2026-04-19T08:45:48.344Z</time></trkpt><trkpt lat="45.9134513" lon="12.9373187"><ele>24.0</ele><time>2026-04-19T08:45:49.343Z</time></trkpt><trkpt lat="45.9135582" lon="12.9373727"><ele>24.0</ele><time>2026-04-19T08:45:50.342Z</time></trkpt><trkpt lat="45.9136616" lon="12.9374283"><ele>24.25</ele><time>2026-04-19T08:45:51.346Z</time></trkpt><trkpt lat="45.9137654" lon="12.9374858"><ele>24.5</ele><time>2026-04-19T08:45:52.345Z</time></trkpt><trkpt lat="45.9138719" lon="12.9375504"><ele>24.75</ele><time>2026-04-19T08:45:53.343Z</time></trkpt><trkpt lat="45.9139844" lon="12.9376193"><ele>25.0</ele><time>2026-04-19T08:45:54.344Z</time></trkpt><trkpt lat="45.9140976" lon="12.9376874"><ele>25.0</ele><time>2026-04-19T08:45:55.341Z</time></trkpt><trkpt lat="45.9142128" lon="12.9377626"><ele>25.0</ele><time>2026-04-19T08:45:56.358Z</time></trkpt><trkpt lat="45.9143235" lon="12.937834"><ele>25.0</ele><time>2026-04-19T08:45:57.339Z</time></trkpt><trkpt lat="45.9144381" lon="12.9379032"><ele>25.0</ele><time>2026-04-19T08:45:58.347Z</time></trkpt><trkpt lat="45.9145537" lon="12.9379721"><ele>25.25</ele><time>2026-04-19T08:45:59.351Z</time></trkpt><trkpt lat="45.9146725" lon="12.9380334"><ele>25.5</ele><time>2026-04-19T08:46:00.351Z</time></trkpt><trkpt lat="45.9147966" lon="12.938096"><ele>25.75</ele><time>2026-04-19T08:46:01.342Z</time></trkpt><trkpt lat="45.9149183" lon="12.9381562"><ele>26.0</ele><time>2026-04-19T08:46:02.331Z</time></trkpt><trkpt lat="45.9150556" lon="12.9382207"><ele>26.0</ele><time>2026-04-19T08:46:03.343Z</time></trkpt><trkpt lat="45.9151895" lon="12.9382836"><ele>26.0</ele><time>2026-04-19T08:46:04.35Z</time></trkpt><trkpt lat="45.9153212" lon="12.9383481"><ele>26.0</ele><time>2026-04-19T08:46:05.341Z</time></trkpt><trkpt lat="45.9154572" lon="12.9384053"><ele>26.0</ele><time>2026-04-19T08:46:06.347Z</time></trkpt><trkpt lat="45.9155967" lon="12.9384704"><ele>25.666666666666664</ele><time>2026-04-19T08:46:07.343Z</time></trkpt><trkpt lat="45.9157383" lon="12.9385303"><ele>25.333333333333336</ele><time>2026-04-19T08:46:08.347Z</time></trkpt><trkpt lat="45.9158805" lon="12.9385927"><ele>25.0</ele><time>2026-04-19T08:46:09.341Z</time></trkpt><trkpt lat="45.9160266" lon="12.9386631"><ele>26.0</ele><time>2026-04-19T08:46:10.345Z</time></trkpt><trkpt lat="45.9161776" lon="12.9387309"><ele>27.0</ele><time>2026-04-19T08:46:11.342Z</time></trkpt><trkpt lat="45.916324" lon="12.9388021"><ele>28.0</ele><time>2026-04-19T08:46:12.347Z</time></trkpt><trkpt lat="45.9164714" lon="12.938874"><ele>28.0</ele><time>2026-04-19T08:46:13.353Z</time></trkpt><trkpt lat="45.9166174" lon="12.9389397"><ele>28.0</ele><time>2026-04-19T08:46:14.347Z</time></trkpt><trkpt lat="45.9167606" lon="12.9390036"><ele>28.0</ele><time>2026-04-19T08:46:15.342Z</time></trkpt><trkpt lat="45.9169012" lon="12.9390725"><ele>28.0</ele><time>2026-04-19T08:46:16.346Z</time></trkpt><trkpt lat="45.9170452" lon="12.9391376"><ele>28.0</ele><time>2026-04-19T08:46:17.342Z</time></trkpt><trkpt lat="45.9171848" lon="12.939208"><ele>28.0</ele><time>2026-04-19T08:46:18.344Z</time></trkpt><trkpt lat="45.9173184" lon="12.9392718"><ele>28.0</ele><time>2026-04-19T08:46:19.349Z</time></trkpt><trkpt lat="45.9174582" lon="12.939336"><ele>27.666666666666668</ele><time>2026-04-19T08:46:20.342Z</time></trkpt><trkpt lat="45.9176009" lon="12.9393995"><ele>27.333333333333336</ele><time>2026-04-19T08:46:21.34Z</time></trkpt><trkpt lat="45.917746" lon="12.9394643"><ele>27.0</ele><time>2026-04-19T08:46:22.343Z</time></trkpt><trkpt lat="45.9178917" lon="12.9395304"><ele>27.0</ele><time>2026-04-19T08:46:23.345Z</time></trkpt><trkpt lat="45.9180264" lon="12.9395958"><ele>27.0</ele><time>2026-04-19T08:46:24.343Z</time></trkpt><trkpt lat="45.9181522" lon="12.9396576"><ele>27.0</ele><time>2026-04-19T08:46:25.348Z</time></trkpt><trkpt lat="45.9182762" lon="12.9397133"><ele>27.0</ele><time>2026-04-19T08:46:26.348Z</time></trkpt><trkpt lat="45.9183976" lon="12.9397669"><ele>27.0</ele><time>2026-04-19T08:46:27.349Z</time></trkpt><trkpt lat="45.9185227" lon="12.9398238"><ele>27.0</ele><time>2026-04-19T08:46:28.352Z</time></trkpt><trkpt lat="45.9186495" lon="12.9398839"><ele>27.0</ele><time>2026-04-19T08:46:29.34Z</time></trkpt><trkpt lat="45.9187804" lon="12.9399468"><ele>27.0</ele><time>2026-04-19T08:46:30.342Z</time></trkpt><trkpt lat="45.9189175" lon="12.9400098"><ele>27.25</ele><time>2026-04-19T08:46:31.335Z</time></trkpt><trkpt lat="45.9190551" lon="12.9400761"><ele>27.5</ele><time>2026-04-19T08:46:32.351Z</time></trkpt><trkpt lat="45.9191894" lon="12.9401423"><ele>27.75</ele><time>2026-04-19T08:46:33.341Z</time></trkpt><trkpt lat="45.9193202" lon="12.9402009"><ele>28.0</ele><time>2026-04-19T08:46:34.341Z</time></trkpt><trkpt lat="45.9194524" lon="12.9402593"><ele>28.0</ele><time>2026-04-19T08:46:35.348Z</time></trkpt><trkpt lat="45.9195838" lon="12.9403141"><ele>28.0</ele><time>2026-04-19T08:46:36.334Z</time></trkpt><trkpt lat="45.9197201" lon="12.9403799"><ele>28.0</ele><time>2026-04-19T08:46:37.336Z</time></trkpt><trkpt lat="45.9198614" lon="12.9404501"><ele>28.0</ele><time>2026-04-19T08:46:38.35Z</time></trkpt><trkpt lat="45.9200021" lon="12.9405217"><ele>28.0</ele><time>2026-04-19T08:46:39.342Z</time></trkpt><trkpt lat="45.9201435" lon="12.9405921"><ele>28.0</ele><time>2026-04-19T08:46:40.343Z</time></trkpt><trkpt lat="45.920284" lon="12.9406658"><ele>28.0</ele><time>2026-04-19T08:46:41.339Z</time></trkpt><trkpt lat="45.9204268" lon="12.9407459"><ele>28.0</ele><time>2026-04-19T08:46:42.343Z</time></trkpt><trkpt lat="45.9205717" lon="12.9408258"><ele>28.0</ele><time>2026-04-19T08:46:43.333Z</time></trkpt><trkpt lat="45.9207146" lon="12.9409066"><ele>28.0</ele><time>2026-04-19T08:46:44.339Z</time></trkpt><trkpt lat="45.9208581" lon="12.9409876"><ele>27.666666666666668</ele><time>2026-04-19T08:46:45.344Z</time></trkpt><trkpt lat="45.921003" lon="12.9410703"><ele>27.333333333333336</ele><time>2026-04-19T08:46:46.345Z</time></trkpt><trkpt lat="45.9211486" lon="12.9411545"><ele>27.0</ele><time>2026-04-19T08:46:47.351Z</time></trkpt><trkpt lat="45.9212945" lon="12.9412376"><ele>27.0</ele><time>2026-04-19T08:46:48.345Z</time></trkpt><trkpt lat="45.9214365" lon="12.941322"><ele>27.0</ele><time>2026-04-19T08:46:49.347Z</time></trkpt><trkpt lat="45.9215768" lon="12.941408"><ele>27.0</ele><time>2026-04-19T08:46:50.362Z</time></trkpt><trkpt lat="45.9217164" lon="12.9414914"><ele>27.0</ele><time>2026-04-19T08:46:51.348Z</time></trkpt><trkpt lat="45.9218631" lon="12.9415795"><ele>27.0</ele><time>2026-04-19T08:46:52.343Z</time></trkpt><trkpt lat="45.9220095" lon="12.9416659"><ele>27.0</ele><time>2026-04-19T08:46:53.337Z</time></trkpt><trkpt lat="45.9221519" lon="12.9417529"><ele>27.0</ele><time>2026-04-19T08:46:54.361Z</time></trkpt><trkpt lat="45.922291" lon="12.9418411"><ele>27.0</ele><time>2026-04-19T08:46:55.343Z</time></trkpt><trkpt lat="45.9224326" lon="12.9419218"><ele>27.0</ele><time>2026-04-19T08:46:56.333Z</time></trkpt><trkpt lat="45.9225764" lon="12.9419972"><ele>26.75</ele><time>2026-04-19T08:46:57.346Z</time></trkpt><trkpt lat="45.9227071" lon="12.9420661"><ele>26.5</ele><time>2026-04-19T08:46:58.368Z</time></trkpt><trkpt lat="45.9228311" lon="12.9421349"><ele>26.25</ele><time>2026-04-19T08:46:59.345Z</time></trkpt><trkpt lat="45.9229509" lon="12.9422006"><ele>26.0</ele><time>2026-04-19T08:47:00.347Z</time></trkpt><trkpt lat="45.9230687" lon="12.942271"><ele>26.0</ele><time>2026-04-19T08:47:01.339Z</time></trkpt><trkpt lat="45.923184" lon="12.9423411"><ele>26.0</ele><time>2026-04-19T08:47:02.342Z</time></trkpt><trkpt lat="45.9232981" lon="12.9424087"><ele>26.0</ele><time>2026-04-19T08:47:03.354Z</time></trkpt><trkpt lat="45.9234013" lon="12.9424666"><ele>26.0</ele><time>2026-04-19T08:47:04.338Z</time></trkpt><trkpt lat="45.9235053" lon="12.9425234"><ele>26.8</ele><time>2026-04-19T08:47:05.346Z</time></trkpt><trkpt lat="45.9236033" lon="12.9425825"><ele>27.6</ele><time>2026-04-19T08:47:06.337Z</time></trkpt><trkpt lat="45.923697" lon="12.9426346"><ele>28.4</ele><time>2026-04-19T08:47:07.337Z</time></trkpt><trkpt lat="45.9237806" lon="12.9426857"><ele>29.2</ele><time>2026-04-19T08:47:08.349Z</time></trkpt><trkpt lat="45.9238558" lon="12.9427365"><ele>30.0</ele><time>2026-04-19T08:47:09.334Z</time></trkpt><trkpt lat="45.9239249" lon="12.9427817"><ele>30.0</ele><time>2026-04-19T08:47:10.343Z</time></trkpt><trkpt lat="45.9239997" lon="12.9428673"><ele>30.0</ele><time>2026-04-19T08:47:12.355Z</time></trkpt><trkpt lat="45.9240125" lon="12.9429667"><ele>30.0</ele><time>2026-04-19T08:47:14.345Z</time></trkpt><trkpt lat="45.9240286" lon="12.9430561"><ele>30.0</ele><time>2026-04-19T08:47:18.343Z</time></trkpt><trkpt lat="45.9241203" lon="12.9430817"><ele>30.0</ele><time>2026-04-19T08:54:28.345Z</time></trkpt><trkpt lat="45.9241916" lon="12.9430237"><ele>30.0</ele><time>2026-04-19T08:54:31.356Z</time></trkpt><trkpt lat="45.9242817" lon="12.9429947"><ele>30.333333333333332</ele><time>2026-04-19T08:54:59.345Z</time></trkpt><trkpt lat="45.9243909" lon="12.9430725"><ele>30.666666666666664</ele><time>2026-04-19T08:55:01.349Z</time></trkpt><trkpt lat="45.9244491" lon="12.9431111"><ele>31.0</ele><time>2026-04-19T08:55:02.332Z</time></trkpt><trkpt lat="45.9245134" lon="12.9431538"><ele>31.333333333333332</ele><time>2026-04-19T08:55:03.336Z</time></trkpt><trkpt lat="45.9245815" lon="12.9431946"><ele>31.666666666666664</ele><time>2026-04-19T08:55:04.339Z</time></trkpt><trkpt lat="45.9246548" lon="12.9432442"><ele>32.0</ele><time>2026-04-19T08:55:05.338Z</time></trkpt><trkpt lat="45.9247274" lon="12.9432859"><ele>31.999999999999996</ele><time>2026-04-19T08:55:06.342Z</time></trkpt><trkpt lat="45.9247856" lon="12.9433411"><ele>32.0</ele><time>2026-04-19T08:55:07.339Z</time></trkpt><trkpt lat="45.9248511" lon="12.9433961"><ele>32.0</ele><time>2026-04-19T08:55:08.343Z</time></trkpt><trkpt lat="45.9249225" lon="12.9434502"><ele>32.0</ele><time>2026-04-19T08:55:09.343Z</time></trkpt><trkpt lat="45.9249956" lon="12.9435142"><ele>31.999999999999996</ele><time>2026-04-19T08:55:10.346Z</time></trkpt><trkpt lat="45.9250758" lon="12.9435851"><ele>32.0</ele><time>2026-04-19T08:55:11.346Z</time></trkpt><trkpt lat="45.9251604" lon="12.9436529"><ele>31.6</ele><time>2026-04-19T08:55:12.344Z</time></trkpt><trkpt lat="45.9252428" lon="12.943699"><ele>31.200000000000003</ele><time>2026-04-19T08:55:13.344Z</time></trkpt><trkpt lat="45.9253279" lon="12.9437491"><ele>30.8</ele><time>2026-04-19T08:55:14.329Z</time></trkpt><trkpt lat="45.925422" lon="12.9437867"><ele>30.4</ele><time>2026-04-19T08:55:15.336Z</time></trkpt><trkpt lat="45.925517" lon="12.9438206"><ele>30.0</ele><time>2026-04-19T08:55:16.348Z</time></trkpt><trkpt lat="45.9256122" lon="12.9438455"><ele>30.0</ele><time>2026-04-19T08:55:17.331Z</time></trkpt><trkpt lat="45.9257077" lon="12.9438663"><ele>30.0</ele><time>2026-04-19T08:55:18.34Z</time></trkpt><trkpt lat="45.925809" lon="12.9438838"><ele>30.0</ele><time>2026-04-19T08:55:19.347Z</time></trkpt><trkpt lat="45.9258998" lon="12.9438892"><ele>30.0</ele><time>2026-04-19T08:55:20.339Z</time></trkpt><trkpt lat="45.9260017" lon="12.9438965"><ele>30.0</ele><time>2026-04-19T08:55:21.337Z</time></trkpt><trkpt lat="45.9261006" lon="12.9439015"><ele>30.0</ele><time>2026-04-19T08:55:22.344Z</time></trkpt><trkpt lat="45.9262" lon="12.9439042"><ele>30.0</ele><time>2026-04-19T08:55:23.341Z</time></trkpt><trkpt lat="45.926295" lon="12.9439048"><ele>30.0</ele><time>2026-04-19T08:55:24.337Z</time></trkpt><trkpt lat="45.9263881" lon="12.9439109"><ele>30.0</ele><time>2026-04-19T08:55:25.345Z</time></trkpt><trkpt lat="45.9264789" lon="12.9439278"><ele>30.0</ele><time>2026-04-19T08:55:26.351Z</time></trkpt><trkpt lat="45.9265682" lon="12.9439553"><ele>30.0</ele><time>2026-04-19T08:55:27.35Z</time></trkpt><trkpt lat="45.9266546" lon="12.9439937"><ele>30.0</ele><time>2026-04-19T08:55:28.342Z</time></trkpt><trkpt lat="45.9267331" lon="12.9440554"><ele>30.0</ele><time>2026-04-19T08:55:29.341Z</time></trkpt><trkpt lat="45.9268105" lon="12.9441219"><ele>30.0</ele><time>2026-04-19T08:55:30.339Z</time></trkpt><trkpt lat="45.9268905" lon="12.9441896"><ele>30.0</ele><time>2026-04-19T08:55:31.336Z</time></trkpt><trkpt lat="45.9269667" lon="12.9442497"><ele>30.0</ele><time>2026-04-19T08:55:32.347Z</time></trkpt><trkpt lat="45.9270386" lon="12.9443135"><ele>30.0</ele><time>2026-04-19T08:55:33.334Z</time></trkpt><trkpt lat="45.9271198" lon="12.9443751"><ele>30.0</ele><time>2026-04-19T08:55:34.336Z</time></trkpt><trkpt lat="45.927202" lon="12.9444328"><ele>30.0</ele><time>2026-04-19T08:55:35.34Z</time></trkpt><trkpt lat="45.9272783" lon="12.9444899"><ele>30.0</ele><time>2026-04-19T08:55:36.346Z</time></trkpt><trkpt lat="45.9273377" lon="12.9445494"><ele>30.0</ele><time>2026-04-19T08:55:37.338Z</time></trkpt><trkpt lat="45.9273889" lon="12.944611"><ele>30.0</ele><time>2026-04-19T08:55:38.35Z</time></trkpt><trkpt lat="45.9274407" lon="12.9447628"><ele>30.0</ele><time>2026-04-19T08:55:40.347Z</time></trkpt><trkpt lat="45.9275295" lon="12.9448365"><ele>30.0</ele><time>2026-04-19T08:55:42.337Z</time></trkpt><trkpt lat="45.9275977" lon="12.9448181"><ele>30.0</ele><time>2026-04-19T08:55:43.346Z</time></trkpt><trkpt lat="45.9276649" lon="12.9447976"><ele>30.0</ele><time>2026-04-19T08:55:44.349Z</time></trkpt><trkpt lat="45.9277383" lon="12.944779"><ele>30.0</ele><time>2026-04-19T08:55:45.365Z</time></trkpt><trkpt lat="45.9278137" lon="12.9447804"><ele>30.166666666666668</ele><time>2026-04-19T08:55:46.335Z</time></trkpt><trkpt lat="45.9278882" lon="12.9447832"><ele>30.333333333333336</ele><time>2026-04-19T08:55:47.338Z</time></trkpt><trkpt lat="45.9279738" lon="12.9447817"><ele>30.5</ele><time>2026-04-19T08:55:48.338Z</time></trkpt><trkpt lat="45.9280607" lon="12.9447814"><ele>30.666666666666668</ele><time>2026-04-19T08:55:49.344Z</time></trkpt><trkpt lat="45.9281577" lon="12.9447741"><ele>30.833333333333336</ele><time>2026-04-19T08:55:50.339Z</time></trkpt><trkpt lat="45.9282585" lon="12.9447713"><ele>31.0</ele><time>2026-04-19T08:55:51.342Z</time></trkpt><trkpt lat="45.9283637" lon="12.9447715"><ele>31.4</ele><time>2026-04-19T08:55:52.346Z</time></trkpt><trkpt lat="45.9284665" lon="12.944775"><ele>31.8</ele><time>2026-04-19T08:55:53.328Z</time></trkpt><trkpt lat="45.9285656" lon="12.9447751"><ele>32.199999999999996</ele><time>2026-04-19T08:55:54.342Z</time></trkpt><trkpt lat="45.9286734" lon="12.9447787"><ele>32.6</ele><time>2026-04-19T08:55:55.341Z</time></trkpt><trkpt lat="45.9287818" lon="12.9447784"><ele>33.0</ele><time>2026-04-19T08:55:56.353Z</time></trkpt><trkpt lat="45.9288987" lon="12.944778"><ele>33.0</ele><time>2026-04-19T08:55:57.333Z</time></trkpt><trkpt lat="45.9290178" lon="12.9447784"><ele>33.0</ele><time>2026-04-19T08:55:58.345Z</time></trkpt><trkpt lat="45.9291366" lon="12.9447782"><ele>33.0</ele><time>2026-04-19T08:55:59.351Z</time></trkpt><trkpt lat="45.9292559" lon="12.9447844"><ele>33.0</ele><time>2026-04-19T08:56:00.342Z</time></trkpt><trkpt lat="45.9293723" lon="12.9447864"><ele>32.75</ele><time>2026-04-19T08:56:01.357Z</time></trkpt><trkpt lat="45.9294855" lon="12.9447883"><ele>32.5</ele><time>2026-04-19T08:56:02.341Z</time></trkpt><trkpt lat="45.9296048" lon="12.944792"><ele>32.25</ele><time>2026-04-19T08:56:03.339Z</time></trkpt><trkpt lat="45.9297223" lon="12.9447906"><ele>32.0</ele><time>2026-04-19T08:56:04.337Z</time></trkpt><trkpt lat="45.9298445" lon="12.9447889"><ele>32.0</ele><time>2026-04-19T08:56:05.337Z</time></trkpt><trkpt lat="45.92997" lon="12.944786"><ele>32.0</ele><time>2026-04-19T08:56:06.338Z</time></trkpt><trkpt lat="45.9300976" lon="12.9447822"><ele>32.0</ele><time>2026-04-19T08:56:07.347Z</time></trkpt><trkpt lat="45.9302267" lon="12.9447834"><ele>32.0</ele><time>2026-04-19T08:56:08.343Z</time></trkpt><trkpt lat="45.9303553" lon="12.9447849"><ele>32.0</ele><time>2026-04-19T08:56:09.34Z</time></trkpt><trkpt lat="45.9304882" lon="12.944787"><ele>32.0</ele><time>2026-04-19T08:56:10.343Z</time></trkpt><trkpt lat="45.9306176" lon="12.9447844"><ele>32.0</ele><time>2026-04-19T08:56:11.341Z</time></trkpt><trkpt lat="45.9307501" lon="12.9447875"><ele>32.0</ele><time>2026-04-19T08:56:12.339Z</time></trkpt><trkpt lat="45.9308823" lon="12.9447912"><ele>32.25</ele><time>2026-04-19T08:56:13.338Z</time></trkpt><trkpt lat="45.9310124" lon="12.9447931"><ele>32.5</ele><time>2026-04-19T08:56:14.331Z</time></trkpt><trkpt lat="45.9311408" lon="12.9447967"><ele>32.75</ele><time>2026-04-19T08:56:15.362Z</time></trkpt><trkpt lat="45.9312635" lon="12.9448001"><ele>33.0</ele><time>2026-04-19T08:56:16.337Z</time></trkpt><trkpt lat="45.9313833" lon="12.9447919"><ele>33.0</ele><time>2026-04-19T08:56:17.354Z</time></trkpt><trkpt lat="45.931496" lon="12.9447791"><ele>33.0</ele><time>2026-04-19T08:56:18.339Z</time></trkpt><trkpt lat="45.9316137" lon="12.9447621"><ele>33.0</ele><time>2026-04-19T08:56:19.335Z</time></trkpt><trkpt lat="45.9317306" lon="12.94473"><ele>33.0</ele><time>2026-04-19T08:56:20.337Z</time></trkpt><trkpt lat="45.9318477" lon="12.9446818"><ele>32.75</ele><time>2026-04-19T08:56:21.341Z</time></trkpt><trkpt lat="45.9319651" lon="12.9446153"><ele>32.5</ele><time>2026-04-19T08:56:22.341Z</time></trkpt><trkpt lat="45.9320782" lon="12.9445329"><ele>32.25</ele><time>2026-04-19T08:56:23.338Z</time></trkpt><trkpt lat="45.9321866" lon="12.9444366"><ele>32.0</ele><time>2026-04-19T08:56:24.339Z</time></trkpt><trkpt lat="45.9322924" lon="12.9443291"><ele>32.0</ele><time>2026-04-19T08:56:25.354Z</time></trkpt><trkpt lat="45.9323975" lon="12.9442163"><ele>32.0</ele><time>2026-04-19T08:56:26.337Z</time></trkpt><trkpt lat="45.9324979" lon="12.9441001"><ele>32.0</ele><time>2026-04-19T08:56:27.337Z</time></trkpt><trkpt lat="45.9325966" lon="12.9439758"><ele>32.0</ele><time>2026-04-19T08:56:28.339Z</time></trkpt><trkpt lat="45.9326902" lon="12.9438486"><ele>32.0</ele><time>2026-04-19T08:56:29.341Z</time></trkpt><trkpt lat="45.932786" lon="12.9437281"><ele>32.0</ele><time>2026-04-19T08:56:30.333Z</time></trkpt><trkpt lat="45.9328838" lon="12.9436014"><ele>32.0</ele><time>2026-04-19T08:56:31.357Z</time></trkpt><trkpt lat="45.9329839" lon="12.9434815"><ele>32.0</ele><time>2026-04-19T08:56:32.346Z</time></trkpt><trkpt lat="45.9330881" lon="12.9433681"><ele>32.0</ele><time>2026-04-19T08:56:33.334Z</time></trkpt><trkpt lat="45.933194" lon="12.9432644"><ele>32.0</ele><time>2026-04-19T08:56:34.341Z</time></trkpt><trkpt lat="45.9333081" lon="12.9431671"><ele>32.0</ele><time>2026-04-19T08:56:35.346Z</time></trkpt><trkpt lat="45.9334262" lon="12.943076"><ele>32.0</ele><time>2026-04-19T08:56:36.347Z</time></trkpt><trkpt lat="45.9335513" lon="12.9430037"><ele>32.0</ele><time>2026-04-19T08:56:37.333Z</time></trkpt><trkpt lat="45.9336756" lon="12.9429398"><ele>32.0</ele><time>2026-04-19T08:56:38.34Z</time></trkpt><trkpt lat="45.933807" lon="12.9428885"><ele>32.0</ele><time>2026-04-19T08:56:39.359Z</time></trkpt><trkpt lat="45.9339396" lon="12.9428469"><ele>32.0</ele><time>2026-04-19T08:56:40.344Z</time></trkpt><trkpt lat="45.9340764" lon="12.9428047"><ele>32.0</ele><time>2026-04-19T08:56:41.368Z</time></trkpt><trkpt lat="45.9342064" lon="12.9427543"><ele>32.0</ele><time>2026-04-19T08:56:42.343Z</time></trkpt><trkpt lat="45.9343326" lon="12.942695"><ele>32.0</ele><time>2026-04-19T08:56:43.341Z</time></trkpt><trkpt lat="45.9344579" lon="12.9426218"><ele>32.0</ele><time>2026-04-19T08:56:44.336Z</time></trkpt><trkpt lat="45.9345775" lon="12.9425326"><ele>32.0</ele><time>2026-04-19T08:56:45.34Z</time></trkpt><trkpt lat="45.9346933" lon="12.9424296"><ele>32.0</ele><time>2026-04-19T08:56:46.342Z</time></trkpt><trkpt lat="45.9347975" lon="12.942304"><ele>32.0</ele><time>2026-04-19T08:56:47.326Z</time></trkpt><trkpt lat="45.9349" lon="12.9421684"><ele>32.0</ele><time>2026-04-19T08:56:48.349Z</time></trkpt><trkpt lat="45.9350031" lon="12.942047"><ele>32.0</ele><time>2026-04-19T08:56:49.336Z</time></trkpt><trkpt lat="45.9351073" lon="12.9419215"><ele>32.0</ele><time>2026-04-19T08:56:50.344Z</time></trkpt><trkpt lat="45.9352072" lon="12.9417938"><ele>32.0</ele><time>2026-04-19T08:56:51.344Z</time></trkpt><trkpt lat="45.9353051" lon="12.9416737"><ele>32.0</ele><time>2026-04-19T08:56:52.339Z</time></trkpt><trkpt lat="45.9354047" lon="12.9415495"><ele>32.0</ele><time>2026-04-19T08:56:53.342Z</time></trkpt><trkpt lat="45.9355038" lon="12.941425"><ele>32.0</ele><time>2026-04-19T08:56:54.338Z</time></trkpt><trkpt lat="45.9356045" lon="12.9413028"><ele>32.0</ele><time>2026-04-19T08:56:55.34Z</time></trkpt><trkpt lat="45.9357068" lon="12.9411841"><ele>32.0</ele><time>2026-04-19T08:56:56.368Z</time></trkpt><trkpt lat="45.9358093" lon="12.9410579"><ele>32.25</ele><time>2026-04-19T08:56:57.348Z</time></trkpt><trkpt lat="45.9359083" lon="12.9409334"><ele>32.5</ele><time>2026-04-19T08:56:58.337Z</time></trkpt><trkpt lat="45.9360066" lon="12.9408036"><ele>32.75</ele><time>2026-04-19T08:56:59.343Z</time></trkpt><trkpt lat="45.9361004" lon="12.9406731"><ele>33.0</ele><time>2026-04-19T08:57:00.348Z</time></trkpt><trkpt lat="45.9361931" lon="12.9405341"><ele>33.0</ele><time>2026-04-19T08:57:01.335Z</time></trkpt><trkpt lat="45.936286" lon="12.940398"><ele>33.0</ele><time>2026-04-19T08:57:02.336Z</time></trkpt><trkpt lat="45.9363772" lon="12.9402643"><ele>33.0</ele><time>2026-04-19T08:57:03.338Z</time></trkpt><trkpt lat="45.9364706" lon="12.9401294"><ele>33.0</ele><time>2026-04-19T08:57:04.345Z</time></trkpt><trkpt lat="45.9365626" lon="12.9399835"><ele>33.0</ele><time>2026-04-19T08:57:05.348Z</time></trkpt><trkpt lat="45.9366577" lon="12.9398467"><ele>33.0</ele><time>2026-04-19T08:57:06.345Z</time></trkpt><trkpt lat="45.9367498" lon="12.939714"><ele>33.0</ele><time>2026-04-19T08:57:07.349Z</time></trkpt><trkpt lat="45.9368441" lon="12.9395937"><ele>33.0</ele><time>2026-04-19T08:57:08.347Z</time></trkpt><trkpt lat="45.936947" lon="12.9394821"><ele>33.25</ele><time>2026-04-19T08:57:09.337Z</time></trkpt><trkpt lat="45.9370593" lon="12.9393754"><ele>33.5</ele><time>2026-04-19T08:57:10.34Z</time></trkpt><trkpt lat="45.9371811" lon="12.9392816"><ele>33.75</ele><time>2026-04-19T08:57:11.353Z</time></trkpt><trkpt lat="45.9373111" lon="12.9392036"><ele>34.0</ele><time>2026-04-19T08:57:12.338Z</time></trkpt><trkpt lat="45.9374391" lon="12.9391377"><ele>34.0</ele><time>2026-04-19T08:57:13.339Z</time></trkpt><trkpt lat="45.9375662" lon="12.9390697"><ele>34.0</ele><time>2026-04-19T08:57:14.337Z</time></trkpt><trkpt lat="45.9376853" lon="12.9390178"><ele>34.0</ele><time>2026-04-19T08:57:15.343Z</time></trkpt><trkpt lat="45.9378027" lon="12.9389653"><ele>34.0</ele><time>2026-04-19T08:57:16.33Z</time></trkpt><trkpt lat="45.937913" lon="12.9389078"><ele>34.0</ele><time>2026-04-19T08:57:17.346Z</time></trkpt><trkpt lat="45.9380198" lon="12.9388264"><ele>34.0</ele><time>2026-04-19T08:57:18.349Z</time></trkpt><trkpt lat="45.9381236" lon="12.9387325"><ele>34.0</ele><time>2026-04-19T08:57:19.333Z</time></trkpt><trkpt lat="45.9382177" lon="12.938624"><ele>34.0</ele><time>2026-04-19T08:57:20.335Z</time></trkpt><trkpt lat="45.9383042" lon="12.9384973"><ele>34.5</ele><time>2026-04-19T08:57:21.322Z</time></trkpt><trkpt lat="45.9383909" lon="12.9383719"><ele>35.0</ele><time>2026-04-19T08:57:22.339Z</time></trkpt><trkpt lat="45.9384754" lon="12.9382439"><ele>35.5</ele><time>2026-04-19T08:57:23.344Z</time></trkpt><trkpt lat="45.9385612" lon="12.9381193"><ele>36.0</ele><time>2026-04-19T08:57:24.332Z</time></trkpt><trkpt lat="45.9386409" lon="12.9380006"><ele>36.0</ele><time>2026-04-19T08:57:25.34Z</time></trkpt><trkpt lat="45.9387223" lon="12.9378836"><ele>36.0</ele><time>2026-04-19T08:57:26.337Z</time></trkpt><trkpt lat="45.9387964" lon="12.937769"><ele>36.0</ele><time>2026-04-19T08:57:27.342Z</time></trkpt><trkpt lat="45.9388631" lon="12.9376605"><ele>36.0</ele><time>2026-04-19T08:57:28.336Z</time></trkpt><trkpt lat="45.9389215" lon="12.9375609"><ele>36.0</ele><time>2026-04-19T08:57:29.336Z</time></trkpt><trkpt lat="45.9389805" lon="12.9374591"><ele>35.8</ele><time>2026-04-19T08:57:30.341Z</time></trkpt><trkpt lat="45.9390515" lon="12.9373693"><ele>35.6</ele><time>2026-04-19T08:57:31.339Z</time></trkpt><trkpt lat="45.9391267" lon="12.9373194"><ele>35.4</ele><time>2026-04-19T08:57:32.359Z</time></trkpt><trkpt lat="45.9392519" lon="12.9373055"><ele>35.2</ele><time>2026-04-19T08:57:34.331Z</time></trkpt><trkpt lat="45.9393592" lon="12.9373816"><ele>35.0</ele><time>2026-04-19T08:57:36.334Z</time></trkpt><trkpt lat="45.9394193" lon="12.9374398"><ele>35.0</ele><time>2026-04-19T08:57:37.333Z</time></trkpt><trkpt lat="45.9394866" lon="12.9374987"><ele>35.0</ele><time>2026-04-19T08:57:38.346Z</time></trkpt><trkpt lat="45.9395601" lon="12.9375504"><ele>35.0</ele><time>2026-04-19T08:57:39.338Z</time></trkpt><trkpt lat="45.9396155" lon="12.9376111"><ele>35.0</ele><time>2026-04-19T08:57:40.335Z</time></trkpt><trkpt lat="45.9396644" lon="12.9376863"><ele>35.0</ele><time>2026-04-19T08:57:41.339Z</time></trkpt><trkpt lat="45.9397299" lon="12.9377674"><ele>35.0</ele><time>2026-04-19T08:57:42.339Z</time></trkpt><trkpt lat="45.9398004" lon="12.9378276"><ele>35.0</ele><time>2026-04-19T08:57:43.335Z</time></trkpt><trkpt lat="45.9398762" lon="12.9378829"><ele>35.0</ele><time>2026-04-19T08:57:44.342Z</time></trkpt><trkpt lat="45.9399529" lon="12.9379306"><ele>35.0</ele><time>2026-04-19T08:57:45.342Z</time></trkpt><trkpt lat="45.94005" lon="12.937953"><ele>35.0</ele><time>2026-04-19T08:57:46.341Z</time></trkpt><trkpt lat="45.9401477" lon="12.9379613"><ele>35.0</ele><time>2026-04-19T08:57:47.353Z</time></trkpt><trkpt lat="45.9402482" lon="12.9379754"><ele>34.8</ele><time>2026-04-19T08:57:48.34Z</time></trkpt><trkpt lat="45.9403599" lon="12.9379793"><ele>34.6</ele><time>2026-04-19T08:57:49.338Z</time></trkpt><trkpt lat="45.9404719" lon="12.9379779"><ele>34.4</ele><time>2026-04-19T08:57:50.332Z</time></trkpt><trkpt lat="45.9405865" lon="12.9379639"><ele>34.2</ele><time>2026-04-19T08:57:51.333Z</time></trkpt><trkpt lat="45.9406951" lon="12.9379377"><ele>34.0</ele><time>2026-04-19T08:57:52.34Z</time></trkpt><trkpt lat="45.9408166" lon="12.9379083"><ele>34.5</ele><time>2026-04-19T08:57:53.334Z</time></trkpt><trkpt lat="45.9409415" lon="12.9378814"><ele>35.0</ele><time>2026-04-19T08:57:54.351Z</time></trkpt><trkpt lat="45.9410686" lon="12.9378524"><ele>35.5</ele><time>2026-04-19T08:57:55.344Z</time></trkpt><trkpt lat="45.9411995" lon="12.9378194"><ele>36.0</ele><time>2026-04-19T08:57:56.339Z</time></trkpt><trkpt lat="45.9413285" lon="12.937787"><ele>36.0</ele><time>2026-04-19T08:57:57.331Z</time></trkpt><trkpt lat="45.9414522" lon="12.9377628"><ele>36.0</ele><time>2026-04-19T08:57:58.331Z</time></trkpt><trkpt lat="45.9415701" lon="12.9377415"><ele>36.0</ele><time>2026-04-19T08:57:59.347Z</time></trkpt><trkpt lat="45.9416826" lon="12.937717"><ele>36.0</ele><time>2026-04-19T08:58:00.341Z</time></trkpt><trkpt lat="45.9417996" lon="12.9377048"><ele>36.25</ele><time>2026-04-19T08:58:01.342Z</time></trkpt><trkpt lat="45.9419107" lon="12.9377264"><ele>36.5</ele><time>2026-04-19T08:58:02.339Z</time></trkpt><trkpt lat="45.9420252" lon="12.9377739"><ele>36.75</ele><time>2026-04-19T08:58:03.347Z</time></trkpt><trkpt lat="45.9421324" lon="12.9378504"><ele>37.0</ele><time>2026-04-19T08:58:04.333Z</time></trkpt><trkpt lat="45.9422353" lon="12.9379496"><ele>37.0</ele><time>2026-04-19T08:58:05.328Z</time></trkpt><trkpt lat="45.9423408" lon="12.9380601"><ele>37.0</ele><time>2026-04-19T08:58:06.338Z</time></trkpt><trkpt lat="45.9424456" lon="12.93817"><ele>37.0</ele><time>2026-04-19T08:58:07.334Z</time></trkpt><trkpt lat="45.9425526" lon="12.9382857"><ele>37.0</ele><time>2026-04-19T08:58:08.356Z</time></trkpt><trkpt lat="45.9426647" lon="12.9384015"><ele>36.75</ele><time>2026-04-19T08:58:09.329Z</time></trkpt><trkpt lat="45.9427798" lon="12.9385094"><ele>36.5</ele><time>2026-04-19T08:58:10.353Z</time></trkpt><trkpt lat="45.9428937" lon="12.9386251"><ele>36.25</ele><time>2026-04-19T08:58:11.345Z</time></trkpt><trkpt lat="45.9430077" lon="12.938742"><ele>36.0</ele><time>2026-04-19T08:58:12.338Z</time></trkpt><trkpt lat="45.9431216" lon="12.9388572"><ele>36.0</ele><time>2026-04-19T08:58:13.347Z</time></trkpt><trkpt lat="45.9432424" lon="12.9389646"><ele>36.0</ele><time>2026-04-19T08:58:14.338Z</time></trkpt><trkpt lat="45.9433658" lon="12.9390635"><ele>36.0</ele><time>2026-04-19T08:58:15.348Z</time></trkpt><trkpt lat="45.9434948" lon="12.9391543"><ele>36.0</ele><time>2026-04-19T08:58:16.338Z</time></trkpt><trkpt lat="45.9436261" lon="12.9392365"><ele>35.75</ele><time>2026-04-19T08:58:17.347Z</time></trkpt><trkpt lat="45.9437596" lon="12.9393182"><ele>35.5</ele><time>2026-04-19T08:58:18.337Z</time></trkpt><trkpt lat="45.9438922" lon="12.9393971"><ele>35.25</ele><time>2026-04-19T08:58:19.35Z</time></trkpt><trkpt lat="45.9440216" lon="12.9394767"><ele>35.0</ele><time>2026-04-19T08:58:20.341Z</time></trkpt><trkpt lat="45.9441541" lon="12.9395506"><ele>35.5</ele><time>2026-04-19T08:58:21.371Z</time></trkpt><trkpt lat="45.9442875" lon="12.9396281"><ele>36.0</ele><time>2026-04-19T08:58:22.345Z</time></trkpt><trkpt lat="45.9444212" lon="12.9397064"><ele>36.5</ele><time>2026-04-19T08:58:23.342Z</time></trkpt><trkpt lat="45.9445562" lon="12.9397841"><ele>37.0</ele><time>2026-04-19T08:58:24.348Z</time></trkpt><trkpt lat="45.9446918" lon="12.9398653"><ele>37.0</ele><time>2026-04-19T08:58:25.342Z</time></trkpt><trkpt lat="45.9448241" lon="12.9399406"><ele>37.0</ele><time>2026-04-19T08:58:26.336Z</time></trkpt><trkpt lat="45.9449559" lon="12.9400146"><ele>37.0</ele><time>2026-04-19T08:58:27.349Z</time></trkpt><trkpt lat="45.9450855" lon="12.9400729"><ele>37.0</ele><time>2026-04-19T08:58:28.344Z</time></trkpt><trkpt lat="45.9452195" lon="12.9401166"><ele>36.75</ele><time>2026-04-19T08:58:29.346Z</time></trkpt><trkpt lat="45.9453572" lon="12.9401426"><ele>36.5</ele><time>2026-04-19T08:58:30.35Z</time></trkpt><trkpt lat="45.9454974" lon="12.9401508"><ele>36.25</ele><time>2026-04-19T08:58:31.345Z</time></trkpt><trkpt lat="45.9456411" lon="12.9401457"><ele>36.0</ele><time>2026-04-19T08:58:32.334Z</time></trkpt><trkpt lat="45.9457769" lon="12.9401159"><ele>36.0</ele><time>2026-04-19T08:58:33.339Z</time></trkpt><trkpt lat="45.9459144" lon="12.9400767"><ele>36.0</ele><time>2026-04-19T08:58:34.332Z</time></trkpt><trkpt lat="45.9460495" lon="12.9400284"><ele>36.0</ele><time>2026-04-19T08:58:35.338Z</time></trkpt><trkpt lat="45.9461835" lon="12.9399818"><ele>36.0</ele><time>2026-04-19T08:58:36.336Z</time></trkpt><trkpt lat="45.946321" lon="12.9399342"><ele>36.0</ele><time>2026-04-19T08:58:37.342Z</time></trkpt><trkpt lat="45.9464577" lon="12.9398851"><ele>36.0</ele><time>2026-04-19T08:58:38.346Z</time></trkpt><trkpt lat="45.9465909" lon="12.939843"><ele>36.0</ele><time>2026-04-19T08:58:39.34Z</time></trkpt><trkpt lat="45.9467241" lon="12.9397947"><ele>36.0</ele><time>2026-04-19T08:58:40.336Z</time></trkpt><trkpt lat="45.946857" lon="12.9397617"><ele>36.5</ele><time>2026-04-19T08:58:41.343Z</time></trkpt><trkpt lat="45.9469922" lon="12.939737"><ele>37.0</ele><time>2026-04-19T08:58:42.339Z</time></trkpt><trkpt lat="45.9471253" lon="12.9397381"><ele>37.5</ele><time>2026-04-19T08:58:43.346Z</time></trkpt><trkpt lat="45.9472587" lon="12.9397576"><ele>38.0</ele><time>2026-04-19T08:58:44.336Z</time></trkpt><trkpt lat="45.9473959" lon="12.9397914"><ele>38.0</ele><time>2026-04-19T08:58:45.333Z</time></trkpt><trkpt lat="45.947529" lon="12.939822"><ele>38.0</ele><time>2026-04-19T08:58:46.348Z</time></trkpt><trkpt lat="45.9476529" lon="12.9398489"><ele>38.0</ele><time>2026-04-19T08:58:47.347Z</time></trkpt><trkpt lat="45.9477701" lon="12.9398706"><ele>38.0</ele><time>2026-04-19T08:58:48.348Z</time></trkpt><trkpt lat="45.9478951" lon="12.9398708"><ele>38.25</ele><time>2026-04-19T08:58:49.34Z</time></trkpt><trkpt lat="45.9480229" lon="12.9398491"><ele>38.5</ele><time>2026-04-19T08:58:50.341Z</time></trkpt><trkpt lat="45.9481458" lon="12.93981"><ele>38.75</ele><time>2026-04-19T08:58:51.341Z</time></trkpt><trkpt lat="45.9482753" lon="12.9397639"><ele>39.0</ele><time>2026-04-19T08:58:52.35Z</time></trkpt><trkpt lat="45.9484028" lon="12.9397214"><ele>39.25</ele><time>2026-04-19T08:58:53.34Z</time></trkpt><trkpt lat="45.9485237" lon="12.9396863"><ele>39.5</ele><time>2026-04-19T08:58:54.341Z</time></trkpt><trkpt lat="45.9486423" lon="12.9396509"><ele>39.75</ele><time>2026-04-19T08:58:55.351Z</time></trkpt><trkpt lat="45.948756" lon="12.9396211"><ele>40.0</ele><time>2026-04-19T08:58:56.335Z</time></trkpt><trkpt lat="45.9488676" lon="12.9395883"><ele>40.0</ele><time>2026-04-19T08:58:57.345Z</time></trkpt><trkpt lat="45.9489718" lon="12.939567"><ele>40.0</ele><time>2026-04-19T08:58:58.342Z</time></trkpt><trkpt lat="45.9490725" lon="12.939553"><ele>40.0</ele><time>2026-04-19T08:58:59.336Z</time></trkpt><trkpt lat="45.9491723" lon="12.939545"><ele>40.0</ele><time>2026-04-19T08:59:00.347Z</time></trkpt><trkpt lat="45.9492726" lon="12.9395279"><ele>40.0</ele><time>2026-04-19T08:59:01.341Z</time></trkpt><trkpt lat="45.949375" lon="12.9394853"><ele>39.8</ele><time>2026-04-19T08:59:02.327Z</time></trkpt><trkpt lat="45.9494774" lon="12.939433"><ele>39.6</ele><time>2026-04-19T08:59:03.332Z</time></trkpt><trkpt lat="45.9495745" lon="12.9393633"><ele>39.4</ele><time>2026-04-19T08:59:04.338Z</time></trkpt><trkpt lat="45.9496755" lon="12.9392955"><ele>39.2</ele><time>2026-04-19T08:59:05.329Z</time></trkpt><trkpt lat="45.9497692" lon="12.9392329"><ele>39.0</ele><time>2026-04-19T08:59:06.339Z</time></trkpt><trkpt lat="45.9498572" lon="12.9391766"><ele>39.0</ele><time>2026-04-19T08:59:07.334Z</time></trkpt><trkpt lat="45.9499505" lon="12.939111"><ele>39.0</ele><time>2026-04-19T08:59:08.338Z</time></trkpt><trkpt lat="45.950033" lon="12.9390243"><ele>39.0</ele><time>2026-04-19T08:59:09.343Z</time></trkpt><trkpt lat="45.950106" lon="12.9389236"><ele>39.0</ele><time>2026-04-19T08:59:10.344Z</time></trkpt><trkpt lat="45.9501628" lon="12.9387982"><ele>39.0</ele><time>2026-04-19T08:59:11.338Z</time></trkpt><trkpt lat="45.950204" lon="12.9386589"><ele>39.0</ele><time>2026-04-19T08:59:12.334Z</time></trkpt><trkpt lat="45.9502316" lon="12.9385094"><ele>39.0</ele><time>2026-04-19T08:59:13.346Z</time></trkpt><trkpt lat="45.9502541" lon="12.9383651"><ele>39.0</ele><time>2026-04-19T08:59:14.33Z</time></trkpt><trkpt lat="45.9502803" lon="12.9382336"><ele>39.0</ele><time>2026-04-19T08:59:15.342Z</time></trkpt><trkpt lat="45.9503174" lon="12.9381142"><ele>39.0</ele><time>2026-04-19T08:59:16.34Z</time></trkpt><trkpt lat="45.9503642" lon="12.9379965"><ele>39.2</ele><time>2026-04-19T08:59:17.336Z</time></trkpt><trkpt lat="45.9504302" lon="12.9378835"><ele>39.4</ele><time>2026-04-19T08:59:18.335Z</time></trkpt><trkpt lat="45.950509" lon="12.9377974"><ele>39.6</ele><time>2026-04-19T08:59:19.35Z</time></trkpt><trkpt lat="45.9505989" lon="12.9377368"><ele>39.8</ele><time>2026-04-19T08:59:20.352Z</time></trkpt><trkpt lat="45.9506984" lon="12.9376899"><ele>40.0</ele><time>2026-04-19T08:59:21.345Z</time></trkpt><trkpt lat="45.9508039" lon="12.937654"><ele>39.75</ele><time>2026-04-19T08:59:22.338Z</time></trkpt><trkpt lat="45.9509153" lon="12.9376208"><ele>39.5</ele><time>2026-04-19T08:59:23.347Z</time></trkpt><trkpt lat="45.9510283" lon="12.9375859"><ele>39.25</ele><time>2026-04-19T08:59:24.347Z</time></trkpt><trkpt lat="45.951141" lon="12.9375498"><ele>39.0</ele><time>2026-04-19T08:59:25.339Z</time></trkpt><trkpt lat="45.9512515" lon="12.937525"><ele>39.0</ele><time>2026-04-19T08:59:26.348Z</time></trkpt><trkpt lat="45.951353" lon="12.9374994"><ele>39.0</ele><time>2026-04-19T08:59:27.356Z</time></trkpt><trkpt lat="45.951461" lon="12.937478"><ele>39.0</ele><time>2026-04-19T08:59:28.333Z</time></trkpt><trkpt lat="45.9515695" lon="12.9374498"><ele>39.0</ele><time>2026-04-19T08:59:29.34Z</time></trkpt><trkpt lat="45.951681" lon="12.937416"><ele>39.0</ele><time>2026-04-19T08:59:30.33Z</time></trkpt><trkpt lat="45.9517981" lon="12.937384"><ele>39.2</ele><time>2026-04-19T08:59:31.382Z</time></trkpt><trkpt lat="45.9519088" lon="12.9373538"><ele>39.4</ele><time>2026-04-19T08:59:32.333Z</time></trkpt><trkpt lat="45.9520187" lon="12.9373251"><ele>39.6</ele><time>2026-04-19T08:59:33.342Z</time></trkpt><trkpt lat="45.9521261" lon="12.9373043"><ele>39.8</ele><time>2026-04-19T08:59:34.333Z</time></trkpt><trkpt lat="45.9522306" lon="12.9372753"><ele>40.0</ele><time>2026-04-19T08:59:35.349Z</time></trkpt><trkpt lat="45.9523378" lon="12.9372453"><ele>40.0</ele><time>2026-04-19T08:59:36.34Z</time></trkpt><trkpt lat="45.9524479" lon="12.937217"><ele>40.0</ele><time>2026-04-19T08:59:37.34Z</time></trkpt><trkpt lat="45.9525594" lon="12.937207"><ele>40.0</ele><time>2026-04-19T08:59:38.34Z</time></trkpt><trkpt lat="45.952677" lon="12.9372073"><ele>40.0</ele><time>2026-04-19T08:59:39.351Z</time></trkpt><trkpt lat="45.9527892" lon="12.9372132"><ele>40.2</ele><time>2026-04-19T08:59:40.348Z</time></trkpt><trkpt lat="45.9528955" lon="12.937222"><ele>40.4</ele><time>2026-04-19T08:59:41.338Z</time></trkpt><trkpt lat="45.9529993" lon="12.9372257"><ele>40.599999999999994</ele><time>2026-04-19T08:59:42.335Z</time></trkpt><trkpt lat="45.9531053" lon="12.9372349"><ele>40.8</ele><time>2026-04-19T08:59:43.341Z</time></trkpt><trkpt lat="45.9532228" lon="12.9372436"><ele>41.0</ele><time>2026-04-19T08:59:44.34Z</time></trkpt><trkpt lat="45.9533403" lon="12.9372487"><ele>41.0</ele><time>2026-04-19T08:59:45.347Z</time></trkpt><trkpt lat="45.9534549" lon="12.9372572"><ele>41.0</ele><time>2026-04-19T08:59:46.341Z</time></trkpt><trkpt lat="45.9535711" lon="12.9372668"><ele>41.0</ele><time>2026-04-19T08:59:47.337Z</time></trkpt><trkpt lat="45.9536896" lon="12.9372749"><ele>41.0</ele><time>2026-04-19T08:59:48.351Z</time></trkpt><trkpt lat="45.9538026" lon="12.9372819"><ele>41.0</ele><time>2026-04-19T08:59:49.341Z</time></trkpt><trkpt lat="45.953904" lon="12.9372876"><ele>41.0</ele><time>2026-04-19T08:59:50.338Z</time></trkpt><trkpt lat="45.9540023" lon="12.9372901"><ele>41.0</ele><time>2026-04-19T08:59:51.34Z</time></trkpt><trkpt lat="45.9541014" lon="12.9373004"><ele>41.0</ele><time>2026-04-19T08:59:52.341Z</time></trkpt><trkpt lat="45.9541907" lon="12.9373137"><ele>41.0</ele><time>2026-04-19T08:59:53.338Z</time></trkpt><trkpt lat="45.9542801" lon="12.9373231"><ele>41.0</ele><time>2026-04-19T08:59:54.351Z</time></trkpt><trkpt lat="45.9543661" lon="12.9373328"><ele>41.0</ele><time>2026-04-19T08:59:55.356Z</time></trkpt><trkpt lat="45.9544509" lon="12.9373323"><ele>41.0</ele><time>2026-04-19T08:59:56.343Z</time></trkpt><trkpt lat="45.9545275" lon="12.937337"><ele>41.0</ele><time>2026-04-19T08:59:57.342Z</time></trkpt><trkpt lat="45.9546295" lon="12.9373216"><ele>41.0</ele><time>2026-04-19T08:59:59.338Z</time></trkpt><trkpt lat="45.9547033" lon="12.9373072"><ele>41.0</ele><time>2026-04-19T09:00:02.344Z</time></trkpt><trkpt lat="45.9547351" lon="12.9372049"><ele>41.0</ele><time>2026-04-19T09:00:06.355Z</time></trkpt><trkpt lat="45.9547284" lon="12.9370534"><ele>41.0</ele><time>2026-04-19T09:00:08.338Z</time></trkpt><trkpt lat="45.9547077" lon="12.9368656"><ele>41.0</ele><time>2026-04-19T09:00:10.342Z</time></trkpt><trkpt lat="45.9546977" lon="12.9367527"><ele>41.0</ele><time>2026-04-19T09:00:11.339Z</time></trkpt><trkpt lat="45.9546859" lon="12.9366429"><ele>41.0</ele><time>2026-04-19T09:00:12.338Z</time></trkpt><trkpt lat="45.9546762" lon="12.9365205"><ele>41.0</ele><time>2026-04-19T09:00:13.342Z</time></trkpt><trkpt lat="45.9546597" lon="12.936388"><ele>41.0</ele><time>2026-04-19T09:00:14.355Z</time></trkpt><trkpt lat="45.95464" lon="12.9362523"><ele>41.0</ele><time>2026-04-19T09:00:15.33Z</time></trkpt><trkpt lat="45.9546248" lon="12.936122"><ele>41.0</ele><time>2026-04-19T09:00:16.341Z</time></trkpt><trkpt lat="45.9546074" lon="12.9359933"><ele>41.0</ele><time>2026-04-19T09:00:17.341Z</time></trkpt><trkpt lat="45.9545907" lon="12.9358505"><ele>41.0</ele><time>2026-04-19T09:00:18.344Z</time></trkpt><trkpt lat="45.9545734" lon="12.9356978"><ele>41.0</ele><time>2026-04-19T09:00:19.339Z</time></trkpt><trkpt lat="45.9545508" lon="12.9355459"><ele>41.0</ele><time>2026-04-19T09:00:20.338Z</time></trkpt><trkpt lat="45.9545326" lon="12.9353896"><ele>41.0</ele><time>2026-04-19T09:00:21.358Z</time></trkpt><trkpt lat="45.9545163" lon="12.9352328"><ele>41.0</ele><time>2026-04-19T09:00:22.339Z</time></trkpt><trkpt lat="45.9544986" lon="12.9350711"><ele>41.25</ele><time>2026-04-19T09:00:23.337Z</time></trkpt><trkpt lat="45.9544777" lon="12.9349076"><ele>41.5</ele><time>2026-04-19T09:00:24.338Z</time></trkpt><trkpt lat="45.9544527" lon="12.934737"><ele>41.75</ele><time>2026-04-19T09:00:25.338Z</time></trkpt><trkpt lat="45.9544309" lon="12.934572"><ele>42.0</ele><time>2026-04-19T09:00:26.351Z</time></trkpt><trkpt lat="45.9544107" lon="12.9344026"><ele>42.0</ele><time>2026-04-19T09:00:27.348Z</time></trkpt><trkpt lat="45.9543906" lon="12.9342419"><ele>42.0</ele><time>2026-04-19T09:00:28.342Z</time></trkpt><trkpt lat="45.9543722" lon="12.9340973"><ele>42.0</ele><time>2026-04-19T09:00:29.33Z</time></trkpt><trkpt lat="45.9543505" lon="12.9339482"><ele>42.0</ele><time>2026-04-19T09:00:30.337Z</time></trkpt><trkpt lat="45.9543311" lon="12.9338104"><ele>42.0</ele><time>2026-04-19T09:00:31.348Z</time></trkpt><trkpt lat="45.9543144" lon="12.9336815"><ele>41.833333333333336</ele><time>2026-04-19T09:00:32.345Z</time></trkpt><trkpt lat="45.9543039" lon="12.9335473"><ele>41.666666666666664</ele><time>2026-04-19T09:00:33.339Z</time></trkpt><trkpt lat="45.9542932" lon="12.9334149"><ele>41.5</ele><time>2026-04-19T09:00:34.34Z</time></trkpt><trkpt lat="45.9542765" lon="12.9332962"><ele>41.33333333333333</ele><time>2026-04-19T09:00:35.34Z</time></trkpt><trkpt lat="45.9542586" lon="12.9331857"><ele>41.166666666666664</ele><time>2026-04-19T09:00:36.332Z</time></trkpt><trkpt lat="45.9542465" lon="12.9330877"><ele>41.0</ele><time>2026-04-19T09:00:37.337Z</time></trkpt><trkpt lat="45.9542326" lon="12.9329898"><ele>41.0</ele><time>2026-04-19T09:00:38.344Z</time></trkpt><trkpt lat="45.9542205" lon="12.9328902"><ele>41.0</ele><time>2026-04-19T09:00:39.338Z</time></trkpt><trkpt lat="45.954212" lon="12.9327926"><ele>41.0</ele><time>2026-04-19T09:00:40.347Z</time></trkpt><trkpt lat="45.9542008" lon="12.9326454"><ele>41.0</ele><time>2026-04-19T09:00:42.346Z</time></trkpt><trkpt lat="45.9542436" lon="12.9325373"><ele>41.0</ele><time>2026-04-19T09:00:44.337Z</time></trkpt><trkpt lat="45.9543091" lon="12.9325014"><ele>41.0</ele><time>2026-04-19T09:00:45.354Z</time></trkpt><trkpt lat="45.9543806" lon="12.9324839"><ele>40.83333333333333</ele><time>2026-04-19T09:00:46.34Z</time></trkpt><trkpt lat="45.954444" lon="12.9324769"><ele>40.666666666666664</ele><time>2026-04-19T09:00:47.331Z</time></trkpt><trkpt lat="45.9545137" lon="12.932463"><ele>40.5</ele><time>2026-04-19T09:00:48.335Z</time></trkpt><trkpt lat="45.9545967" lon="12.9324539"><ele>40.333333333333336</ele><time>2026-04-19T09:00:49.342Z</time></trkpt><trkpt lat="45.9546779" lon="12.9324376"><ele>40.16666666666667</ele><time>2026-04-19T09:00:50.336Z</time></trkpt><trkpt lat="45.9547633" lon="12.9324154"><ele>40.0</ele><time>2026-04-19T09:00:51.353Z</time></trkpt><trkpt lat="45.95485" lon="12.9324015"><ele>40.0</ele><time>2026-04-19T09:00:52.335Z</time></trkpt><trkpt lat="45.9549367" lon="12.9323871"><ele>40.0</ele><time>2026-04-19T09:00:53.342Z</time></trkpt><trkpt lat="45.9550341" lon="12.9323703"><ele>40.0</ele><time>2026-04-19T09:00:54.337Z</time></trkpt><trkpt lat="45.9551347" lon="12.93235"><ele>40.0</ele><time>2026-04-19T09:00:55.342Z</time></trkpt><trkpt lat="45.9552374" lon="12.9323185"><ele>40.0</ele><time>2026-04-19T09:00:56.339Z</time></trkpt><trkpt lat="45.9553446" lon="12.932292"><ele>40.25</ele><time>2026-04-19T09:00:57.345Z</time></trkpt><trkpt lat="45.955457" lon="12.9322703"><ele>40.5</ele><time>2026-04-19T09:00:58.342Z</time></trkpt><trkpt lat="45.9555728" lon="12.9322501"><ele>40.75</ele><time>2026-04-19T09:00:59.332Z</time></trkpt><trkpt lat="45.955683" lon="12.9322256"><ele>41.0</ele><time>2026-04-19T09:01:00.343Z</time></trkpt><trkpt lat="45.955793" lon="12.9322"><ele>41.25</ele><time>2026-04-19T09:01:01.327Z</time></trkpt><trkpt lat="45.9559084" lon="12.932173"><ele>41.5</ele><time>2026-04-19T09:01:02.351Z</time></trkpt><trkpt lat="45.9560244" lon="12.9321436"><ele>41.75</ele><time>2026-04-19T09:01:03.338Z</time></trkpt><trkpt lat="45.9561485" lon="12.9321134"><ele>42.0</ele><time>2026-04-19T09:01:04.338Z</time></trkpt><trkpt lat="45.9562694" lon="12.9320799"><ele>42.0</ele><time>2026-04-19T09:01:05.333Z</time></trkpt><trkpt lat="45.9563967" lon="12.9320473"><ele>42.0</ele><time>2026-04-19T09:01:06.348Z</time></trkpt><trkpt lat="45.9565254" lon="12.9320155"><ele>42.0</ele><time>2026-04-19T09:01:07.34Z</time></trkpt><trkpt lat="45.9566533" lon="12.9319847"><ele>42.0</ele><time>2026-04-19T09:01:08.333Z</time></trkpt><trkpt lat="45.9567859" lon="12.9319497"><ele>42.0</ele><time>2026-04-19T09:01:09.336Z</time></trkpt><trkpt lat="45.9569182" lon="12.9319134"><ele>42.0</ele><time>2026-04-19T09:01:10.348Z</time></trkpt><trkpt lat="45.9570499" lon="12.9318792"><ele>42.0</ele><time>2026-04-19T09:01:11.338Z</time></trkpt><trkpt lat="45.9571831" lon="12.9318489"><ele>42.0</ele><time>2026-04-19T09:01:12.355Z</time></trkpt><trkpt lat="45.9573188" lon="12.9318144"><ele>42.0</ele><time>2026-04-19T09:01:13.353Z</time></trkpt><trkpt lat="45.9574544" lon="12.9317839"><ele>42.0</ele><time>2026-04-19T09:01:14.334Z</time></trkpt><trkpt lat="45.9575926" lon="12.9317525"><ele>42.0</ele><time>2026-04-19T09:01:15.346Z</time></trkpt><trkpt lat="45.9577282" lon="12.9317186"><ele>42.0</ele><time>2026-04-19T09:01:16.34Z</time></trkpt><trkpt lat="45.9578593" lon="12.931688"><ele>42.0</ele><time>2026-04-19T09:01:17.335Z</time></trkpt><trkpt lat="45.9579774" lon="12.9316578"><ele>42.0</ele><time>2026-04-19T09:01:18.351Z</time></trkpt><trkpt lat="45.958085" lon="12.9316256"><ele>42.0</ele><time>2026-04-19T09:01:19.345Z</time></trkpt><trkpt lat="45.9581828" lon="12.9316016"><ele>42.0</ele><time>2026-04-19T09:01:20.349Z</time></trkpt><trkpt lat="45.9582673" lon="12.9315797"><ele>42.0</ele><time>2026-04-19T09:01:21.333Z</time></trkpt><trkpt lat="45.958347" lon="12.9315584"><ele>42.166666666666664</ele><time>2026-04-19T09:01:22.338Z</time></trkpt><trkpt lat="45.9584306" lon="12.9315372"><ele>42.333333333333336</ele><time>2026-04-19T09:01:23.34Z</time></trkpt><trkpt lat="45.9585202" lon="12.9315118"><ele>42.5</ele><time>2026-04-19T09:01:24.349Z</time></trkpt><trkpt lat="45.958612" lon="12.9314906"><ele>42.66666666666667</ele><time>2026-04-19T09:01:25.349Z</time></trkpt><trkpt lat="45.9586982" lon="12.9314747"><ele>42.833333333333336</ele><time>2026-04-19T09:01:26.382Z</time></trkpt><trkpt lat="45.9587833" lon="12.9314523"><ele>43.0</ele><time>2026-04-19T09:01:27.336Z</time></trkpt><trkpt lat="45.9588775" lon="12.9314306"><ele>43.0</ele><time>2026-04-19T09:01:28.351Z</time></trkpt><trkpt lat="45.9589756" lon="12.9314088"><ele>43.0</ele><time>2026-04-19T09:01:29.345Z</time></trkpt><trkpt lat="45.9590756" lon="12.9313893"><ele>43.0</ele><time>2026-04-19T09:01:30.348Z</time></trkpt><trkpt lat="45.9591746" lon="12.9313671"><ele>43.0</ele><time>2026-04-19T09:01:31.337Z</time></trkpt><trkpt lat="45.9592791" lon="12.9313468"><ele>43.0</ele><time>2026-04-19T09:01:32.351Z</time></trkpt><trkpt lat="45.9593863" lon="12.9313287"><ele>43.2</ele><time>2026-04-19T09:01:33.334Z</time></trkpt><trkpt lat="45.959491" lon="12.9313141"><ele>43.4</ele><time>2026-04-19T09:01:34.345Z</time></trkpt><trkpt lat="45.9595891" lon="12.9312989"><ele>43.6</ele><time>2026-04-19T09:01:35.335Z</time></trkpt><trkpt lat="45.959666" lon="12.9312974"><ele>43.800000000000004</ele><time>2026-04-19T09:01:36.335Z</time></trkpt><trkpt lat="45.9597341" lon="12.9312917"><ele>44.0</ele><time>2026-04-19T09:01:37.346Z</time></trkpt><trkpt lat="45.9598495" lon="12.9312834"><ele>44.0</ele><time>2026-04-19T09:01:39.329Z</time></trkpt><trkpt lat="45.9599471" lon="12.9312821"><ele>44.0</ele><time>2026-04-19T09:01:41.339Z</time></trkpt><trkpt lat="45.9600137" lon="12.9312711"><ele>44.0</ele><time>2026-04-19T09:01:46.336Z</time></trkpt><trkpt lat="45.9599416" lon="12.9312385"><ele>44.0</ele><time>2026-04-19T09:01:54.365Z</time></trkpt><trkpt lat="45.9598794" lon="12.9312809"><ele>44.0</ele><time>2026-04-19T09:01:56.341Z</time></trkpt><trkpt lat="45.9597918" lon="12.9312732"><ele>44.0</ele><time>2026-04-19T09:01:58.337Z</time></trkpt><trkpt lat="45.9597247" lon="12.9312384"><ele>44.0</ele><time>2026-04-19T09:02:00.336Z</time></trkpt><trkpt lat="45.9597063" lon="12.9311302"><ele>44.0</ele><time>2026-04-19T09:02:02.33Z</time></trkpt><trkpt lat="45.9597069" lon="12.930979"><ele>44.0</ele><time>2026-04-19T09:02:04.332Z</time></trkpt><trkpt lat="45.95972" lon="12.930807"><ele>44.0</ele><time>2026-04-19T09:02:06.331Z</time></trkpt><trkpt lat="45.9597218" lon="12.9307147"><ele>44.0</ele><time>2026-04-19T09:02:07.341Z</time></trkpt><trkpt lat="45.9597228" lon="12.9306114"><ele>44.0</ele><time>2026-04-19T09:02:08.335Z</time></trkpt><trkpt lat="45.9597252" lon="12.9304998"><ele>44.0</ele><time>2026-04-19T09:02:09.326Z</time></trkpt><trkpt lat="45.9597295" lon="12.9303848"><ele>44.0</ele><time>2026-04-19T09:02:10.336Z</time></trkpt><trkpt lat="45.9597381" lon="12.9302701"><ele>44.0</ele><time>2026-04-19T09:02:11.339Z</time></trkpt><trkpt lat="45.9597397" lon="12.9301606"><ele>44.0</ele><time>2026-04-19T09:02:12.347Z</time></trkpt><trkpt lat="45.9597481" lon="12.9300368"><ele>44.0</ele><time>2026-04-19T09:02:13.338Z</time></trkpt><trkpt lat="45.9597518" lon="12.9299065"><ele>44.0</ele><time>2026-04-19T09:02:14.334Z</time></trkpt><trkpt lat="45.9597502" lon="12.929774"><ele>44.0</ele><time>2026-04-19T09:02:15.344Z</time></trkpt><trkpt lat="45.9597547" lon="12.9296464"><ele>44.0</ele><time>2026-04-19T09:02:16.338Z</time></trkpt><trkpt lat="45.9597524" lon="12.9295157"><ele>44.0</ele><time>2026-04-19T09:02:17.342Z</time></trkpt><trkpt lat="45.9597504" lon="12.9293788"><ele>44.0</ele><time>2026-04-19T09:02:18.336Z</time></trkpt><trkpt lat="45.9597507" lon="12.9292376"><ele>44.0</ele><time>2026-04-19T09:02:19.342Z</time></trkpt><trkpt lat="45.9597593" lon="12.9290987"><ele>43.800000000000004</ele><time>2026-04-19T09:02:20.345Z</time></trkpt><trkpt lat="45.9597671" lon="12.9289644"><ele>43.6</ele><time>2026-04-19T09:02:21.342Z</time></trkpt><trkpt lat="45.959772" lon="12.9288259"><ele>43.4</ele><time>2026-04-19T09:02:22.346Z</time></trkpt><trkpt lat="45.9597737" lon="12.9286892"><ele>43.2</ele><time>2026-04-19T09:02:23.337Z</time></trkpt><trkpt lat="45.9597772" lon="12.9285485"><ele>43.0</ele><time>2026-04-19T09:02:24.329Z</time></trkpt><trkpt lat="45.9597793" lon="12.9284179"><ele>43.16666666666667</ele><time>2026-04-19T09:02:25.329Z</time></trkpt><trkpt lat="45.9597803" lon="12.9283008"><ele>43.333333333333336</ele><time>2026-04-19T09:02:26.342Z</time></trkpt><trkpt lat="45.9597824" lon="12.9281923"><ele>43.5</ele><time>2026-04-19T09:02:27.345Z</time></trkpt><trkpt lat="45.9597837" lon="12.9280943"><ele>43.666666666666664</ele><time>2026-04-19T09:02:28.349Z</time></trkpt><trkpt lat="45.9597887" lon="12.9279975"><ele>43.83333333333333</ele><time>2026-04-19T09:02:29.344Z</time></trkpt><trkpt lat="45.9598285" lon="12.9278302"><ele>44.0</ele><time>2026-04-19T09:02:31.345Z</time></trkpt><trkpt lat="45.9598611" lon="12.9277455"><ele>44.0</ele><time>2026-04-19T09:02:32.336Z</time></trkpt><trkpt lat="45.9599022" lon="12.9276549"><ele>44.0</ele><time>2026-04-19T09:02:33.342Z</time></trkpt><trkpt lat="45.9599496" lon="12.92757"><ele>44.0</ele><time>2026-04-19T09:02:34.33Z</time></trkpt><trkpt lat="45.9599939" lon="12.9274886"><ele>44.0</ele><time>2026-04-19T09:02:35.357Z</time></trkpt><trkpt lat="45.9600403" lon="12.9274055"><ele>44.0</ele><time>2026-04-19T09:02:36.337Z</time></trkpt><trkpt lat="45.960093" lon="12.9273137"><ele>44.0</ele><time>2026-04-19T09:02:37.337Z</time></trkpt><trkpt lat="45.9601387" lon="12.9272206"><ele>43.83333333333333</ele><time>2026-04-19T09:02:38.34Z</time></trkpt><trkpt lat="45.9601798" lon="12.927127"><ele>43.666666666666664</ele><time>2026-04-19T09:02:39.33Z</time></trkpt><trkpt lat="45.9602193" lon="12.9270225"><ele>43.5</ele><time>2026-04-19T09:02:40.339Z</time></trkpt><trkpt lat="45.9602597" lon="12.9269145"><ele>43.333333333333336</ele><time>2026-04-19T09:02:41.337Z</time></trkpt><trkpt lat="45.9602893" lon="12.926814"><ele>43.16666666666667</ele><time>2026-04-19T09:02:42.342Z</time></trkpt><trkpt lat="45.9603043" lon="12.9267185"><ele>43.0</ele><time>2026-04-19T09:02:43.333Z</time></trkpt><trkpt lat="45.9603115" lon="12.926625"><ele>43.0</ele><time>2026-04-19T09:02:44.367Z</time></trkpt><trkpt lat="45.9603228" lon="12.9264622"><ele>43.0</ele><time>2026-04-19T09:02:46.343Z</time></trkpt><trkpt lat="45.9603261" lon="12.9263189"><ele>43.0</ele><time>2026-04-19T09:02:48.343Z</time></trkpt><trkpt lat="45.9603241" lon="12.9261932"><ele>43.0</ele><time>2026-04-19T09:02:50.344Z</time></trkpt><trkpt lat="45.9603243" lon="12.9260629"><ele>43.0</ele><time>2026-04-19T09:02:52.351Z</time></trkpt><trkpt lat="45.9603201" lon="12.9259391"><ele>43.0</ele><time>2026-04-19T09:02:54.341Z</time></trkpt><trkpt lat="45.9603222" lon="12.9258118"><ele>43.0</ele><time>2026-04-19T09:02:56.337Z</time></trkpt><trkpt lat="45.9603166" lon="12.9256931"><ele>43.0</ele><time>2026-04-19T09:02:58.346Z</time></trkpt><trkpt lat="45.9603061" lon="12.9255816"><ele>43.0</ele><time>2026-04-19T09:03:00.364Z</time></trkpt><trkpt lat="45.9603027" lon="12.9254829"><ele>43.0</ele><time>2026-04-19T09:03:02.341Z</time></trkpt><trkpt lat="45.9603203" lon="12.9253554"><ele>43.0</ele><time>2026-04-19T09:03:05.336Z</time></trkpt><trkpt lat="45.9603809" lon="12.9252738"><ele>43.0</ele><time>2026-04-19T09:03:08.342Z</time></trkpt><trkpt lat="45.9604731" lon="12.9252594"><ele>43.0</ele><time>2026-04-19T09:03:11.338Z</time></trkpt><trkpt lat="45.9605622" lon="12.925257"><ele>43.0</ele><time>2026-04-19T09:03:14.333Z</time></trkpt><trkpt lat="45.9606525" lon="12.9252571"><ele>43.0</ele><time>2026-04-19T09:03:17.334Z</time></trkpt><trkpt lat="45.9607382" lon="12.9252536"><ele>43.0</ele><time>2026-04-19T09:03:20.34Z</time></trkpt><trkpt lat="45.9608065" lon="12.9252124"><ele>43.0</ele><time>2026-04-19T09:03:24.341Z</time></trkpt><trkpt lat="45.9608497" lon="12.9251106"><ele>43.0</ele><time>2026-04-19T09:03:37.338Z</time></trkpt><trkpt lat="45.9608917" lon="12.9250081"><ele>43.0</ele><time>2026-04-19T09:03:40.346Z</time></trkpt><trkpt lat="45.9609005" lon="12.9249125"><ele>43.0</ele><time>2026-04-19T09:03:42.341Z</time></trkpt><trkpt lat="45.9609101" lon="12.9248037"><ele>43.0</ele><time>2026-04-19T09:03:44.342Z</time></trkpt><trkpt lat="45.960914" lon="12.9247052"><ele>43.0</ele><time>2026-04-19T09:03:46.346Z</time></trkpt><trkpt lat="45.9609137" lon="12.9245722"><ele>43.0</ele><time>2026-04-19T09:03:49.351Z</time></trkpt><trkpt lat="45.9609128" lon="12.9244717"><ele>43.00000000000001</ele><time>2026-04-19T09:03:51.358Z</time></trkpt><trkpt lat="45.9609107" lon="12.9243624"><ele>43.0</ele><time>2026-04-19T09:03:53.341Z</time></trkpt><trkpt lat="45.9609086" lon="12.9242603"><ele>43.0</ele><time>2026-04-19T09:03:55.352Z</time></trkpt><trkpt lat="45.9609088" lon="12.9241618"><ele>43.0</ele><time>2026-04-19T09:03:57.335Z</time></trkpt><trkpt lat="45.9609043" lon="12.924059"><ele>43.0</ele><time>2026-04-19T09:03:59.348Z</time></trkpt><trkpt lat="45.9608982" lon="12.9239288"><ele>43.00000000000001</ele><time>2026-04-19T09:04:02.356Z</time></trkpt><trkpt lat="45.9608959" lon="12.9238351"><ele>43.0</ele><time>2026-04-19T09:04:04.34Z</time></trkpt><trkpt lat="45.9608974" lon="12.9237226"><ele>43.142857142857146</ele><time>2026-04-19T09:04:06.337Z</time></trkpt><trkpt lat="45.960896" lon="12.923621"><ele>43.285714285714285</ele><time>2026-04-19T09:04:08.329Z</time></trkpt><trkpt lat="45.9608913" lon="12.9235259"><ele>43.42857142857143</ele><time>2026-04-19T09:04:10.338Z</time></trkpt><trkpt lat="45.9608847" lon="12.923419"><ele>43.57142857142857</ele><time>2026-04-19T09:04:12.352Z</time></trkpt><trkpt lat="45.9608813" lon="12.9233208"><ele>43.714285714285715</ele><time>2026-04-19T09:04:14.353Z</time></trkpt><trkpt lat="45.9608793" lon="12.9232257"><ele>43.85714285714286</ele><time>2026-04-19T09:04:16.344Z</time></trkpt><trkpt lat="45.9608777" lon="12.9230831"><ele>44.0</ele><time>2026-04-19T09:04:19.348Z</time></trkpt><trkpt lat="45.9608784" lon="12.9229734"><ele>44.0</ele><time>2026-04-19T09:04:21.353Z</time></trkpt><trkpt lat="45.960882" lon="12.9228776"><ele>44.0</ele><time>2026-04-19T09:04:23.361Z</time></trkpt><trkpt lat="45.9608722" lon="12.922755"><ele>44.0</ele><time>2026-04-19T09:04:26.343Z</time></trkpt><trkpt lat="45.9608627" lon="12.9226467"><ele>44.0</ele><time>2026-04-19T09:04:29.347Z</time></trkpt><trkpt lat="45.9608611" lon="12.9225155"><ele>44.0</ele><time>2026-04-19T09:04:32.351Z</time></trkpt><trkpt lat="45.9608562" lon="12.9223919"><ele>44.0</ele><time>2026-04-19T09:04:35.355Z</time></trkpt><trkpt lat="45.9608515" lon="12.9222726"><ele>43.666666666666664</ele><time>2026-04-19T09:04:38.341Z</time></trkpt><trkpt lat="45.9608417" lon="12.9221479"><ele>43.33333333333333</ele><time>2026-04-19T09:04:41.332Z</time></trkpt><trkpt lat="45.9608347" lon="12.9220224"><ele>43.0</ele><time>2026-04-19T09:04:44.341Z</time></trkpt><trkpt lat="45.9608351" lon="12.9219282"><ele>42.666666666666664</ele><time>2026-04-19T09:04:46.343Z</time></trkpt><trkpt lat="45.9608316" lon="12.9218039"><ele>42.333333333333336</ele><time>2026-04-19T09:04:49.346Z</time></trkpt><trkpt lat="45.9608355" lon="12.9216774"><ele>42.0</ele><time>2026-04-19T09:04:52.354Z</time></trkpt><trkpt lat="45.9608367" lon="12.9215438"><ele>42.0</ele><time>2026-04-19T09:04:55.349Z</time></trkpt><trkpt lat="45.9608387" lon="12.9214532"><ele>42.0</ele><time>2026-04-19T09:04:57.356Z</time></trkpt><trkpt lat="45.9608349" lon="12.9213529"><ele>42.0</ele><time>2026-04-19T09:04:59.34Z</time></trkpt><trkpt lat="45.9608342" lon="12.9212528"><ele>42.0</ele><time>2026-04-19T09:05:01.343Z</time></trkpt><trkpt lat="45.9608311" lon="12.9211188"><ele>42.0</ele><time>2026-04-19T09:05:04.35Z</time></trkpt><trkpt lat="45.9608248" lon="12.9210262"><ele>42.0</ele><time>2026-04-19T09:05:06.348Z</time></trkpt><trkpt lat="45.9608231" lon="12.920919"><ele>42.0</ele><time>2026-04-19T09:05:08.343Z</time></trkpt><trkpt lat="45.9608353" lon="12.9208102"><ele>42.166666666666664</ele><time>2026-04-19T09:05:10.343Z</time></trkpt><trkpt lat="45.960832" lon="12.9206744"><ele>42.333333333333336</ele><time>2026-04-19T09:05:13.338Z</time></trkpt><trkpt lat="45.9608218" lon="12.920562"><ele>42.5</ele><time>2026-04-19T09:05:16.348Z</time></trkpt><trkpt lat="45.9608171" lon="12.92047"><ele>42.66666666666667</ele><time>2026-04-19T09:05:18.338Z</time></trkpt><trkpt lat="45.9608141" lon="12.9203744"><ele>42.833333333333336</ele><time>2026-04-19T09:05:20.34Z</time></trkpt><trkpt lat="45.9608103" lon="12.9202727"><ele>43.0</ele><time>2026-04-19T09:05:22.354Z</time></trkpt><trkpt lat="45.9608167" lon="12.9201568"><ele>43.0</ele><time>2026-04-19T09:05:24.352Z</time></trkpt><trkpt lat="45.9608158" lon="12.9200501"><ele>43.0</ele><time>2026-04-19T09:05:26.344Z</time></trkpt><trkpt lat="45.9608067" lon="12.9199451"><ele>43.0</ele><time>2026-04-19T09:05:28.351Z</time></trkpt><trkpt lat="45.9608013" lon="12.9198419"><ele>43.0</ele><time>2026-04-19T09:05:30.343Z</time></trkpt><trkpt lat="45.9607981" lon="12.9197088"><ele>43.0</ele><time>2026-04-19T09:05:33.338Z</time></trkpt><trkpt lat="45.960797" lon="12.9196125"><ele>43.0</ele><time>2026-04-19T09:05:35.347Z</time></trkpt><trkpt lat="45.9607917" lon="12.9194903"><ele>43.0</ele><time>2026-04-19T09:05:38.357Z</time></trkpt><trkpt lat="45.9607948" lon="12.9193789"><ele>43.0</ele><time>2026-04-19T09:05:40.348Z</time></trkpt><trkpt lat="45.9607924" lon="12.9192855"><ele>43.0</ele><time>2026-04-19T09:05:42.362Z</time></trkpt><trkpt lat="45.9607835" lon="12.9191596"><ele>43.0</ele><time>2026-04-19T09:05:45.345Z</time></trkpt><trkpt lat="45.9607828" lon="12.9190299"><ele>43.0</ele><time>2026-04-19T09:05:48.337Z</time></trkpt><trkpt lat="45.9607811" lon="12.918901"><ele>43.0</ele><time>2026-04-19T09:05:51.342Z</time></trkpt><trkpt lat="45.9607769" lon="12.9187772"><ele>43.16666666666667</ele><time>2026-04-19T09:05:54.357Z</time></trkpt><trkpt lat="45.9607753" lon="12.9186507"><ele>43.333333333333336</ele><time>2026-04-19T09:05:57.338Z</time></trkpt><trkpt lat="45.9607775" lon="12.9185249"><ele>43.5</ele><time>2026-04-19T09:06:00.348Z</time></trkpt><trkpt lat="45.9607716" lon="12.9183982"><ele>43.666666666666664</ele><time>2026-04-19T09:06:03.335Z</time></trkpt><trkpt lat="45.9607724" lon="12.9182981"><ele>43.83333333333333</ele><time>2026-04-19T09:06:05.318Z</time></trkpt><trkpt lat="45.9607677" lon="12.9181591"><ele>44.0</ele><time>2026-04-19T09:06:08.337Z</time></trkpt><trkpt lat="45.9607663" lon="12.918067"><ele>43.85714285714286</ele><time>2026-04-19T09:06:10.345Z</time></trkpt><trkpt lat="45.960765" lon="12.9179668"><ele>43.714285714285715</ele><time>2026-04-19T09:06:12.335Z</time></trkpt><trkpt lat="45.960761" lon="12.9178281"><ele>43.57142857142857</ele><time>2026-04-19T09:06:15.344Z</time></trkpt><trkpt lat="45.9607602" lon="12.9177288"><ele>43.42857142857143</ele><time>2026-04-19T09:06:17.327Z</time></trkpt><trkpt lat="45.9607629" lon="12.9176289"><ele>43.285714285714285</ele><time>2026-04-19T09:06:19.349Z</time></trkpt><trkpt lat="45.9607645" lon="12.9175305"><ele>43.142857142857146</ele><time>2026-04-19T09:06:21.347Z</time></trkpt><trkpt lat="45.9607684" lon="12.9174356"><ele>43.0</ele><time>2026-04-19T09:06:23.357Z</time></trkpt><trkpt lat="45.9607662" lon="12.9173348"><ele>43.00000000000001</ele><time>2026-04-19T09:06:25.358Z</time></trkpt><trkpt lat="45.9607656" lon="12.9172274"><ele>43.0</ele><time>2026-04-19T09:06:27.348Z</time></trkpt><trkpt lat="45.9607658" lon="12.9171225"><ele>43.0</ele><time>2026-04-19T09:06:29.342Z</time></trkpt><trkpt lat="45.960769" lon="12.9170167"><ele>43.0</ele><time>2026-04-19T09:06:31.351Z</time></trkpt><trkpt lat="45.9607752" lon="12.9169081"><ele>43.0</ele><time>2026-04-19T09:06:33.345Z</time></trkpt><trkpt lat="45.9607759" lon="12.9168152"><ele>43.00000000000001</ele><time>2026-04-19T09:06:35.34Z</time></trkpt><trkpt lat="45.9607697" lon="12.916712"><ele>43.0</ele><time>2026-04-19T09:06:38.359Z</time></trkpt><trkpt lat="45.9607156" lon="12.916637"><ele>43.142857142857146</ele><time>2026-04-19T09:06:57.349Z</time></trkpt><trkpt lat="45.9606358" lon="12.9166513"><ele>43.285714285714285</ele><time>2026-04-19T09:07:00.35Z</time></trkpt><trkpt lat="45.9605693" lon="12.9166394"><ele>43.42857142857143</ele><time>2026-04-19T09:07:03.339Z</time></trkpt><trkpt lat="45.9605055" lon="12.9166408"><ele>43.57142857142857</ele><time>2026-04-19T09:08:08.338Z</time></trkpt><trkpt lat="45.9604393" lon="12.9166109"><ele>43.714285714285715</ele><time>2026-04-19T09:08:26.382Z</time></trkpt><trkpt lat="45.9603671" lon="12.9165787"><ele>43.85714285714286</ele><time>2026-04-19T09:08:29.337Z</time></trkpt><trkpt lat="45.960306" lon="12.9165532"><ele>44.0</ele><time>2026-04-19T09:08:33.845Z</time></trkpt><trkpt lat="45.9602553" lon="12.9164883"><ele>44.0</ele><time>2026-04-19T09:08:36.47Z</time></trkpt><trkpt lat="45.9601843" lon="12.9164702"><ele>44.0</ele><time>2026-04-19T09:08:40.889Z</time></trkpt><trkpt lat="45.9600904" lon="12.9165579"><ele>44.0</ele><time>2026-04-19T09:09:10.367Z</time></trkpt><trkpt lat="45.9601603" lon="12.9166331"><ele>44.0</ele><time>2026-04-19T09:09:36.345Z</time></trkpt><trkpt lat="45.9602216" lon="12.9166747"><ele>44.0</ele><time>2026-04-19T09:09:43.362Z</time></trkpt><trkpt lat="45.9602891" lon="12.9166834"><ele>44.0</ele><time>2026-04-19T09:09:47.366Z</time></trkpt><trkpt lat="45.9603415" lon="12.9166268"><ele>44.0</ele><time>2026-04-19T09:09:51.373Z</time></trkpt><trkpt lat="45.9604088" lon="12.9166056"><ele>44.0</ele><time>2026-04-19T09:09:56.306Z</time></trkpt><trkpt lat="45.9604668" lon="12.9165699"><ele>44.0</ele><time>2026-04-19T09:10:02.436Z</time></trkpt><trkpt lat="45.9604678" lon="12.916662"><ele>44.0</ele><time>2026-04-19T09:10:54.352Z</time></trkpt><trkpt lat="45.9605349" lon="12.9166334"><ele>44.0</ele><time>2026-04-19T09:11:02.377Z</time></trkpt><trkpt lat="45.9605951" lon="12.9166643"><ele>44.0</ele><time>2026-04-19T09:11:38.367Z</time></trkpt><trkpt lat="45.9607135" lon="12.9166587"><ele>44.0</ele><time>2026-04-19T09:11:40.358Z</time></trkpt><trkpt lat="45.9607991" lon="12.916647"><ele>43.400000000000006</ele><time>2026-04-19T09:11:41.378Z</time></trkpt><trkpt lat="45.9608684" lon="12.916631"><ele>42.8</ele><time>2026-04-19T09:11:42.371Z</time></trkpt><trkpt lat="45.9609723" lon="12.9166156"><ele>42.2</ele><time>2026-04-19T09:11:44.371Z</time></trkpt><trkpt lat="45.9610599" lon="12.9166121"><ele>41.599999999999994</ele><time>2026-04-19T09:11:46.403Z</time></trkpt><trkpt lat="45.9611498" lon="12.9166"><ele>41.0</ele><time>2026-04-19T09:11:48.373Z</time></trkpt><trkpt lat="45.9612565" lon="12.9165829"><ele>41.0</ele><time>2026-04-19T09:11:50.395Z</time></trkpt><trkpt lat="45.9613618" lon="12.9165725"><ele>41.0</ele><time>2026-04-19T09:11:52.377Z</time></trkpt><trkpt lat="45.961469" lon="12.9165726"><ele>41.0</ele><time>2026-04-19T09:11:54.379Z</time></trkpt><trkpt lat="45.961581" lon="12.9165812"><ele>41.0</ele><time>2026-04-19T09:11:56.385Z</time></trkpt><trkpt lat="45.9616959" lon="12.9165752"><ele>41.0</ele><time>2026-04-19T09:11:58.344Z</time></trkpt><trkpt lat="45.9618124" lon="12.9165691"><ele>41.4</ele><time>2026-04-19T09:12:00.362Z</time></trkpt><trkpt lat="45.9619293" lon="12.9165605"><ele>41.8</ele><time>2026-04-19T09:12:02.385Z</time></trkpt><trkpt lat="45.9619949" lon="12.9165504"><ele>42.199999999999996</ele><time>2026-04-19T09:12:03.396Z</time></trkpt><trkpt lat="45.9620596" lon="12.916544"><ele>42.599999999999994</ele><time>2026-04-19T09:12:04.381Z</time></trkpt><trkpt lat="45.9621829" lon="12.9165345"><ele>43.0</ele><time>2026-04-19T09:12:06.384Z</time></trkpt><trkpt lat="45.9623063" lon="12.9165373"><ele>43.00000000000001</ele><time>2026-04-19T09:12:08.347Z</time></trkpt><trkpt lat="45.9623728" lon="12.9165411"><ele>43.0</ele><time>2026-04-19T09:12:09.36Z</time></trkpt><trkpt lat="45.9624394" lon="12.9165407"><ele>43.0</ele><time>2026-04-19T09:12:10.374Z</time></trkpt><trkpt lat="45.9625091" lon="12.9165419"><ele>43.0</ele><time>2026-04-19T09:12:11.365Z</time></trkpt><trkpt lat="45.9625828" lon="12.9165473"><ele>43.0</ele><time>2026-04-19T09:12:12.379Z</time></trkpt><trkpt lat="45.9626551" lon="12.9165508"><ele>43.00000000000001</ele><time>2026-04-19T09:12:13.373Z</time></trkpt><trkpt lat="45.962726" lon="12.9165554"><ele>43.0</ele><time>2026-04-19T09:12:14.375Z</time></trkpt><trkpt lat="45.962795" lon="12.9165612"><ele>43.00000000000001</ele><time>2026-04-19T09:12:15.379Z</time></trkpt><trkpt lat="45.9628672" lon="12.9165715"><ele>43.0</ele><time>2026-04-19T09:12:16.375Z</time></trkpt><trkpt lat="45.96294" lon="12.9165821"><ele>43.0</ele><time>2026-04-19T09:12:17.367Z</time></trkpt><trkpt lat="45.9630138" lon="12.9165913"><ele>43.0</ele><time>2026-04-19T09:12:18.428Z</time></trkpt><trkpt lat="45.9630847" lon="12.9166039"><ele>43.0</ele><time>2026-04-19T09:12:19.386Z</time></trkpt><trkpt lat="45.9631589" lon="12.9166215"><ele>43.00000000000001</ele><time>2026-04-19T09:12:20.386Z</time></trkpt><trkpt lat="45.9632348" lon="12.9166433"><ele>43.0</ele><time>2026-04-19T09:12:21.393Z</time></trkpt><trkpt lat="45.9633143" lon="12.9166613"><ele>43.16666666666667</ele><time>2026-04-19T09:12:22.387Z</time></trkpt><trkpt lat="45.963397" lon="12.9166758"><ele>43.333333333333336</ele><time>2026-04-19T09:12:23.391Z</time></trkpt><trkpt lat="45.9634726" lon="12.9166902"><ele>43.5</ele><time>2026-04-19T09:12:24.354Z</time></trkpt><trkpt lat="45.9635507" lon="12.9167126"><ele>43.666666666666664</ele><time>2026-04-19T09:12:25.362Z</time></trkpt><trkpt lat="45.9636244" lon="12.9167255"><ele>43.83333333333333</ele><time>2026-04-19T09:12:26.368Z</time></trkpt><trkpt lat="45.9636998" lon="12.9167352"><ele>44.0</ele><time>2026-04-19T09:12:27.346Z</time></trkpt><trkpt lat="45.9637795" lon="12.9167408"><ele>44.0</ele><time>2026-04-19T09:12:28.349Z</time></trkpt><trkpt lat="45.9638599" lon="12.9167478"><ele>44.0</ele><time>2026-04-19T09:12:29.35Z</time></trkpt><trkpt lat="45.9639386" lon="12.9167544"><ele>44.0</ele><time>2026-04-19T09:12:30.371Z</time></trkpt><trkpt lat="45.9640191" lon="12.9167634"><ele>44.0</ele><time>2026-04-19T09:12:31.345Z</time></trkpt><trkpt lat="45.9640985" lon="12.9167735"><ele>44.0</ele><time>2026-04-19T09:12:32.375Z</time></trkpt><trkpt lat="45.9641774" lon="12.9167784"><ele>44.0</ele><time>2026-04-19T09:12:33.374Z</time></trkpt><trkpt lat="45.9642585" lon="12.9167805"><ele>43.83333333333333</ele><time>2026-04-19T09:12:34.387Z</time></trkpt><trkpt lat="45.9643388" lon="12.9167809"><ele>43.666666666666664</ele><time>2026-04-19T09:12:35.381Z</time></trkpt><trkpt lat="45.9644225" lon="12.9167778"><ele>43.5</ele><time>2026-04-19T09:12:36.367Z</time></trkpt><trkpt lat="45.9645051" lon="12.916771"><ele>43.333333333333336</ele><time>2026-04-19T09:12:37.367Z</time></trkpt><trkpt lat="45.9645843" lon="12.9167697"><ele>43.16666666666667</ele><time>2026-04-19T09:12:38.385Z</time></trkpt><trkpt lat="45.9646644" lon="12.916765"><ele>43.0</ele><time>2026-04-19T09:12:39.335Z</time></trkpt><trkpt lat="45.9647444" lon="12.9167579"><ele>43.00000000000001</ele><time>2026-04-19T09:12:40.341Z</time></trkpt><trkpt lat="45.9648215" lon="12.916754"><ele>43.0</ele><time>2026-04-19T09:12:41.382Z</time></trkpt><trkpt lat="45.9648988" lon="12.9167565"><ele>43.0</ele><time>2026-04-19T09:12:42.369Z</time></trkpt><trkpt lat="45.9649703" lon="12.9167533"><ele>43.0</ele><time>2026-04-19T09:12:43.367Z</time></trkpt><trkpt lat="45.9650426" lon="12.9167509"><ele>43.0</ele><time>2026-04-19T09:12:44.368Z</time></trkpt><trkpt lat="45.9651179" lon="12.9167522"><ele>43.00000000000001</ele><time>2026-04-19T09:12:45.374Z</time></trkpt><trkpt lat="45.9651837" lon="12.9167502"><ele>43.0</ele><time>2026-04-19T09:12:46.393Z</time></trkpt><trkpt lat="45.9652486" lon="12.9167505"><ele>43.142857142857146</ele><time>2026-04-19T09:12:47.383Z</time></trkpt><trkpt lat="45.9653168" lon="12.9167544"><ele>43.285714285714285</ele><time>2026-04-19T09:12:48.377Z</time></trkpt><trkpt lat="45.9653844" lon="12.9167598"><ele>43.42857142857143</ele><time>2026-04-19T09:12:49.378Z</time></trkpt><trkpt lat="45.9654517" lon="12.9167653"><ele>43.57142857142857</ele><time>2026-04-19T09:12:50.376Z</time></trkpt><trkpt lat="45.9655206" lon="12.9167699"><ele>43.714285714285715</ele><time>2026-04-19T09:12:51.372Z</time></trkpt><trkpt lat="45.9655861" lon="12.9167709"><ele>43.85714285714286</ele><time>2026-04-19T09:12:52.376Z</time></trkpt><trkpt lat="45.9656508" lon="12.916766"><ele>44.0</ele><time>2026-04-19T09:12:53.371Z</time></trkpt><trkpt lat="45.9657706" lon="12.9167528"><ele>44.2</ele><time>2026-04-19T09:12:55.372Z</time></trkpt><trkpt lat="45.9658695" lon="12.9167357"><ele>44.400000000000006</ele><time>2026-04-19T09:12:57.37Z</time></trkpt><trkpt lat="45.9659421" lon="12.916703"><ele>44.6</ele><time>2026-04-19T09:12:59.332Z</time></trkpt><trkpt lat="45.9660176" lon="12.9166762"><ele>44.8</ele><time>2026-04-19T09:13:02.339Z</time></trkpt><trkpt lat="45.9660731" lon="12.916793"><ele>45.0</ele><time>2026-04-19T09:13:06.367Z</time></trkpt><trkpt lat="45.9661192" lon="12.9169726"><ele>45.0</ele><time>2026-04-19T09:13:08.37Z</time></trkpt><trkpt lat="45.9661422" lon="12.9170688"><ele>45.0</ele><time>2026-04-19T09:13:09.375Z</time></trkpt><trkpt lat="45.9661691" lon="12.9171741"><ele>45.0</ele><time>2026-04-19T09:13:10.368Z</time></trkpt><trkpt lat="45.966199" lon="12.917294"><ele>45.0</ele><time>2026-04-19T09:13:11.371Z</time></trkpt><trkpt lat="45.9662319" lon="12.9174157"><ele>45.0</ele><time>2026-04-19T09:13:12.369Z</time></trkpt><trkpt lat="45.9662647" lon="12.9175454"><ele>45.0</ele><time>2026-04-19T09:13:13.372Z</time></trkpt><trkpt lat="45.9662997" lon="12.9176805"><ele>45.0</ele><time>2026-04-19T09:13:14.373Z</time></trkpt><trkpt lat="45.9663339" lon="12.917817"><ele>45.0</ele><time>2026-04-19T09:13:15.365Z</time></trkpt><trkpt lat="45.9663757" lon="12.9179538"><ele>45.0</ele><time>2026-04-19T09:13:16.384Z</time></trkpt><trkpt lat="45.9664132" lon="12.9180974"><ele>45.0</ele><time>2026-04-19T09:13:17.383Z</time></trkpt><trkpt lat="45.9664548" lon="12.9182505"><ele>45.0</ele><time>2026-04-19T09:13:18.377Z</time></trkpt><trkpt lat="45.9664985" lon="12.9184089"><ele>45.25</ele><time>2026-04-19T09:13:19.377Z</time></trkpt><trkpt lat="45.9665422" lon="12.9185679"><ele>45.5</ele><time>2026-04-19T09:13:20.373Z</time></trkpt><trkpt lat="45.9665876" lon="12.9187254"><ele>45.75</ele><time>2026-04-19T09:13:21.358Z</time></trkpt><trkpt lat="45.9666312" lon="12.9188858"><ele>46.0</ele><time>2026-04-19T09:13:22.372Z</time></trkpt><trkpt lat="45.9666731" lon="12.9190385"><ele>46.25</ele><time>2026-04-19T09:13:23.366Z</time></trkpt><trkpt lat="45.9667151" lon="12.9191867"><ele>46.5</ele><time>2026-04-19T09:13:24.376Z</time></trkpt><trkpt lat="45.9667569" lon="12.9193366"><ele>46.75</ele><time>2026-04-19T09:13:25.387Z</time></trkpt><trkpt lat="45.9667965" lon="12.9194875"><ele>47.0</ele><time>2026-04-19T09:13:26.446Z</time></trkpt><trkpt lat="45.9668419" lon="12.9196446"><ele>47.0</ele><time>2026-04-19T09:13:27.383Z</time></trkpt><trkpt lat="45.9668917" lon="12.919804"><ele>47.0</ele><time>2026-04-19T09:13:28.361Z</time></trkpt><trkpt lat="45.9669365" lon="12.9199629"><ele>47.0</ele><time>2026-04-19T09:13:29.374Z</time></trkpt><trkpt lat="45.9669813" lon="12.920121"><ele>47.0</ele><time>2026-04-19T09:13:30.37Z</time></trkpt><trkpt lat="45.967026" lon="12.9202804"><ele>47.0</ele><time>2026-04-19T09:13:31.372Z</time></trkpt><trkpt lat="45.9670722" lon="12.9204351"><ele>47.0</ele><time>2026-04-19T09:13:32.367Z</time></trkpt><trkpt lat="45.9671157" lon="12.920598"><ele>47.0</ele><time>2026-04-19T09:13:33.369Z</time></trkpt><trkpt lat="45.967163" lon="12.9207626"><ele>47.0</ele><time>2026-04-19T09:13:34.37Z</time></trkpt><trkpt lat="45.9672074" lon="12.9209229"><ele>47.0</ele><time>2026-04-19T09:13:35.369Z</time></trkpt><trkpt lat="45.9672529" lon="12.9210834"><ele>47.0</ele><time>2026-04-19T09:13:36.368Z</time></trkpt><trkpt lat="45.9673004" lon="12.9212414"><ele>47.0</ele><time>2026-04-19T09:13:37.39Z</time></trkpt><trkpt lat="45.9673453" lon="12.921403"><ele>47.0</ele><time>2026-04-19T09:13:38.381Z</time></trkpt><trkpt lat="45.9673922" lon="12.9215665"><ele>47.0</ele><time>2026-04-19T09:13:39.35Z</time></trkpt><trkpt lat="45.9674408" lon="12.9217262"><ele>47.0</ele><time>2026-04-19T09:13:40.366Z</time></trkpt><trkpt lat="45.9674879" lon="12.9218912"><ele>47.0</ele><time>2026-04-19T09:13:41.373Z</time></trkpt><trkpt lat="45.9675322" lon="12.9220463"><ele>47.0</ele><time>2026-04-19T09:13:42.361Z</time></trkpt><trkpt lat="45.967578" lon="12.9221971"><ele>46.5</ele><time>2026-04-19T09:13:43.367Z</time></trkpt><trkpt lat="45.9676252" lon="12.9223494"><ele>46.0</ele><time>2026-04-19T09:13:44.36Z</time></trkpt><trkpt lat="45.9676706" lon="12.9225092"><ele>45.5</ele><time>2026-04-19T09:13:45.371Z</time></trkpt><trkpt lat="45.9677161" lon="12.92267"><ele>45.0</ele><time>2026-04-19T09:13:46.375Z</time></trkpt><trkpt lat="45.9677587" lon="12.9228298"><ele>45.0</ele><time>2026-04-19T09:13:47.367Z</time></trkpt><trkpt lat="45.9678069" lon="12.9229943"><ele>45.0</ele><time>2026-04-19T09:13:48.373Z</time></trkpt><trkpt lat="45.9678529" lon="12.9231559"><ele>45.0</ele><time>2026-04-19T09:13:49.366Z</time></trkpt><trkpt lat="45.9678996" lon="12.9233148"><ele>45.0</ele><time>2026-04-19T09:13:50.342Z</time></trkpt><trkpt lat="45.9679437" lon="12.9234727"><ele>45.25</ele><time>2026-04-19T09:13:51.353Z</time></trkpt><trkpt lat="45.967994" lon="12.9236284"><ele>45.5</ele><time>2026-04-19T09:13:52.38Z</time></trkpt><trkpt lat="45.9680416" lon="12.9237895"><ele>45.75</ele><time>2026-04-19T09:13:53.37Z</time></trkpt><trkpt lat="45.9680867" lon="12.9239419"><ele>46.0</ele><time>2026-04-19T09:13:54.362Z</time></trkpt><trkpt lat="45.9681299" lon="12.9241003"><ele>46.25</ele><time>2026-04-19T09:13:55.373Z</time></trkpt><trkpt lat="45.968178" lon="12.9242633"><ele>46.5</ele><time>2026-04-19T09:13:56.376Z</time></trkpt><trkpt lat="45.9682236" lon="12.9244318"><ele>46.75</ele><time>2026-04-19T09:13:57.374Z</time></trkpt><trkpt lat="45.9682662" lon="12.9246002"><ele>47.0</ele><time>2026-04-19T09:13:58.365Z</time></trkpt><trkpt lat="45.9683055" lon="12.9247613"><ele>47.0</ele><time>2026-04-19T09:13:59.352Z</time></trkpt><trkpt lat="45.9683399" lon="12.9249252"><ele>47.0</ele><time>2026-04-19T09:14:00.365Z</time></trkpt><trkpt lat="45.9683727" lon="12.9250933"><ele>47.0</ele><time>2026-04-19T09:14:01.366Z</time></trkpt><trkpt lat="45.9684089" lon="12.9252617"><ele>47.0</ele><time>2026-04-19T09:14:02.367Z</time></trkpt><trkpt lat="45.9684468" lon="12.9254295"><ele>47.0</ele><time>2026-04-19T09:14:03.371Z</time></trkpt><trkpt lat="45.9684802" lon="12.9255972"><ele>47.0</ele><time>2026-04-19T09:14:04.362Z</time></trkpt><trkpt lat="45.9685115" lon="12.9257599"><ele>47.0</ele><time>2026-04-19T09:14:05.35Z</time></trkpt><trkpt lat="45.9685428" lon="12.92592"><ele>47.0</ele><time>2026-04-19T09:14:06.373Z</time></trkpt><trkpt lat="45.96857" lon="12.926084"><ele>47.2</ele><time>2026-04-19T09:14:07.325Z</time></trkpt><trkpt lat="45.9685927" lon="12.9262439"><ele>47.400000000000006</ele><time>2026-04-19T09:14:08.372Z</time></trkpt><trkpt lat="45.9686077" lon="12.9263843"><ele>47.599999999999994</ele><time>2026-04-19T09:14:09.363Z</time></trkpt><trkpt lat="45.9686204" lon="12.9265148"><ele>47.8</ele><time>2026-04-19T09:14:10.363Z</time></trkpt><trkpt lat="45.9686326" lon="12.9266276"><ele>48.0</ele><time>2026-04-19T09:14:11.385Z</time></trkpt><trkpt lat="45.9686429" lon="12.9267304"><ele>48.0</ele><time>2026-04-19T09:14:12.37Z</time></trkpt><trkpt lat="45.9686431" lon="12.9268368"><ele>48.0</ele><time>2026-04-19T09:14:13.374Z</time></trkpt><trkpt lat="45.9686311" lon="12.9269384"><ele>48.0</ele><time>2026-04-19T09:14:14.376Z</time></trkpt><trkpt lat="45.9686163" lon="12.9270421"><ele>48.0</ele><time>2026-04-19T09:14:15.396Z</time></trkpt><trkpt lat="45.9686008" lon="12.9271525"><ele>48.0</ele><time>2026-04-19T09:14:16.363Z</time></trkpt><trkpt lat="45.9686013" lon="12.9272764"><ele>48.0</ele><time>2026-04-19T09:14:17.37Z</time></trkpt><trkpt lat="45.9686192" lon="12.9274034"><ele>48.0</ele><time>2026-04-19T09:14:18.364Z</time></trkpt><trkpt lat="45.9686442" lon="12.9275325"><ele>48.0</ele><time>2026-04-19T09:14:19.369Z</time></trkpt><trkpt lat="45.968666" lon="12.9276592"><ele>48.0</ele><time>2026-04-19T09:14:20.316Z</time></trkpt><trkpt lat="45.9686864" lon="12.9277983"><ele>48.0</ele><time>2026-04-19T09:14:21.374Z</time></trkpt><trkpt lat="45.9686899" lon="12.9279322"><ele>48.0</ele><time>2026-04-19T09:14:22.356Z</time></trkpt><trkpt lat="45.9686823" lon="12.9280746"><ele>47.599999999999994</ele><time>2026-04-19T09:14:23.328Z</time></trkpt><trkpt lat="45.9686718" lon="12.9282308"><ele>47.199999999999996</ele><time>2026-04-19T09:14:24.366Z</time></trkpt><trkpt lat="45.968658" lon="12.9283868"><ele>46.8</ele><time>2026-04-19T09:14:25.355Z</time></trkpt><trkpt lat="45.9686418" lon="12.9285438"><ele>46.4</ele><time>2026-04-19T09:14:26.348Z</time></trkpt><trkpt lat="45.968621" lon="12.9287121"><ele>46.0</ele><time>2026-04-19T09:14:27.366Z</time></trkpt><trkpt lat="45.9685993" lon="12.9288694"><ele>46.0</ele><time>2026-04-19T09:14:28.36Z</time></trkpt><trkpt lat="45.9685759" lon="12.9290339"><ele>46.0</ele><time>2026-04-19T09:14:29.368Z</time></trkpt><trkpt lat="45.9685527" lon="12.9292028"><ele>46.0</ele><time>2026-04-19T09:14:30.336Z</time></trkpt><trkpt lat="45.9685321" lon="12.9293772"><ele>46.0</ele><time>2026-04-19T09:14:31.36Z</time></trkpt><trkpt lat="45.9685092" lon="12.9295518"><ele>46.0</ele><time>2026-04-19T09:14:32.369Z</time></trkpt><trkpt lat="45.9684869" lon="12.9297331"><ele>46.0</ele><time>2026-04-19T09:14:33.363Z</time></trkpt><trkpt lat="45.9684613" lon="12.9299082"><ele>46.0</ele><time>2026-04-19T09:14:34.358Z</time></trkpt><trkpt lat="45.9684367" lon="12.9300837"><ele>46.0</ele><time>2026-04-19T09:14:35.363Z</time></trkpt><trkpt lat="45.9684123" lon="12.930266"><ele>46.0</ele><time>2026-04-19T09:14:36.362Z</time></trkpt><trkpt lat="45.9683863" lon="12.9304528"><ele>46.0</ele><time>2026-04-19T09:14:37.366Z</time></trkpt><trkpt lat="45.9683611" lon="12.9306405"><ele>46.0</ele><time>2026-04-19T09:14:38.33Z</time></trkpt><trkpt lat="45.968335" lon="12.9308286"><ele>46.0</ele><time>2026-04-19T09:14:39.336Z</time></trkpt><trkpt lat="45.9683056" lon="12.9310204"><ele>45.75</ele><time>2026-04-19T09:14:40.367Z</time></trkpt><trkpt lat="45.9682724" lon="12.9312075"><ele>45.5</ele><time>2026-04-19T09:14:41.36Z</time></trkpt><trkpt lat="45.9682409" lon="12.9314001"><ele>45.25</ele><time>2026-04-19T09:14:42.362Z</time></trkpt><trkpt lat="45.9682132" lon="12.9315942"><ele>45.0</ele><time>2026-04-19T09:14:43.362Z</time></trkpt><trkpt lat="45.9681816" lon="12.9317855"><ele>45.5</ele><time>2026-04-19T09:14:44.378Z</time></trkpt><trkpt lat="45.9681537" lon="12.9319694"><ele>46.0</ele><time>2026-04-19T09:14:45.358Z</time></trkpt><trkpt lat="45.9681263" lon="12.9321534"><ele>46.5</ele><time>2026-04-19T09:14:46.363Z</time></trkpt><trkpt lat="45.9681002" lon="12.9323399"><ele>47.0</ele><time>2026-04-19T09:14:47.385Z</time></trkpt><trkpt lat="45.9680693" lon="12.9325225"><ele>46.75</ele><time>2026-04-19T09:14:48.364Z</time></trkpt><trkpt lat="45.968038" lon="12.9327069"><ele>46.5</ele><time>2026-04-19T09:14:49.376Z</time></trkpt><trkpt lat="45.9680109" lon="12.9328909"><ele>46.25</ele><time>2026-04-19T09:14:50.38Z</time></trkpt><trkpt lat="45.9679836" lon="12.9330783"><ele>46.0</ele><time>2026-04-19T09:14:51.383Z</time></trkpt><trkpt lat="45.9679573" lon="12.9332624"><ele>46.25</ele><time>2026-04-19T09:14:52.375Z</time></trkpt><trkpt lat="45.9679277" lon="12.9334421"><ele>46.5</ele><time>2026-04-19T09:14:53.368Z</time></trkpt><trkpt lat="45.9678963" lon="12.9336339"><ele>46.75</ele><time>2026-04-19T09:14:54.38Z</time></trkpt><trkpt lat="45.9678693" lon="12.9338224"><ele>47.0</ele><time>2026-04-19T09:14:55.375Z</time></trkpt><trkpt lat="45.9678448" lon="12.9340112"><ele>47.0</ele><time>2026-04-19T09:14:56.367Z</time></trkpt><trkpt lat="45.9678145" lon="12.9341905"><ele>47.0</ele><time>2026-04-19T09:14:57.317Z</time></trkpt><trkpt lat="45.9677848" lon="12.9343716"><ele>47.0</ele><time>2026-04-19T09:14:58.338Z</time></trkpt><trkpt lat="45.9677558" lon="12.9345536"><ele>47.0</ele><time>2026-04-19T09:14:59.356Z</time></trkpt><trkpt lat="45.9677263" lon="12.9347376"><ele>47.0</ele><time>2026-04-19T09:15:00.331Z</time></trkpt><trkpt lat="45.9676955" lon="12.934921"><ele>47.0</ele><time>2026-04-19T09:15:01.367Z</time></trkpt><trkpt lat="45.9676676" lon="12.9350969"><ele>47.0</ele><time>2026-04-19T09:15:02.368Z</time></trkpt><trkpt lat="45.9676427" lon="12.9352739"><ele>47.0</ele><time>2026-04-19T09:15:03.367Z</time></trkpt><trkpt lat="45.9676212" lon="12.9354509"><ele>46.5</ele><time>2026-04-19T09:15:04.373Z</time></trkpt><trkpt lat="45.9675919" lon="12.9356301"><ele>46.0</ele><time>2026-04-19T09:15:05.355Z</time></trkpt><trkpt lat="45.9675619" lon="12.9358046"><ele>45.5</ele><time>2026-04-19T09:15:06.347Z</time></trkpt><trkpt lat="45.9675316" lon="12.9359736"><ele>45.0</ele><time>2026-04-19T09:15:07.363Z</time></trkpt><trkpt lat="45.967505" lon="12.9361454"><ele>45.0</ele><time>2026-04-19T09:15:08.375Z</time></trkpt><trkpt lat="45.9674795" lon="12.9363218"><ele>45.0</ele><time>2026-04-19T09:15:09.38Z</time></trkpt><trkpt lat="45.9674578" lon="12.9364983"><ele>45.0</ele><time>2026-04-19T09:15:10.378Z</time></trkpt><trkpt lat="45.9674295" lon="12.9366744"><ele>45.0</ele><time>2026-04-19T09:15:11.379Z</time></trkpt><trkpt lat="45.9673989" lon="12.9368498"><ele>45.0</ele><time>2026-04-19T09:15:12.369Z</time></trkpt><trkpt lat="45.9673719" lon="12.9370256"><ele>45.0</ele><time>2026-04-19T09:15:13.37Z</time></trkpt><trkpt lat="45.9673461" lon="12.9372099"><ele>45.0</ele><time>2026-04-19T09:15:14.379Z</time></trkpt><trkpt lat="45.9673217" lon="12.9373935"><ele>45.0</ele><time>2026-04-19T09:15:15.376Z</time></trkpt><trkpt lat="45.9672935" lon="12.937578"><ele>45.25</ele><time>2026-04-19T09:15:16.38Z</time></trkpt><trkpt lat="45.9672686" lon="12.9377622"><ele>45.5</ele><time>2026-04-19T09:15:17.349Z</time></trkpt><trkpt lat="45.9672383" lon="12.9379491"><ele>45.75</ele><time>2026-04-19T09:15:18.349Z</time></trkpt><trkpt lat="45.9672075" lon="12.9381322"><ele>46.0</ele><time>2026-04-19T09:15:19.367Z</time></trkpt><trkpt lat="45.9671786" lon="12.9383171"><ele>46.25</ele><time>2026-04-19T09:15:20.37Z</time></trkpt><trkpt lat="45.9671498" lon="12.9385048"><ele>46.5</ele><time>2026-04-19T09:15:21.362Z</time></trkpt><trkpt lat="45.967121" lon="12.9386923"><ele>46.75</ele><time>2026-04-19T09:15:22.349Z</time></trkpt><trkpt lat="45.9670951" lon="12.9388796"><ele>47.0</ele><time>2026-04-19T09:15:23.367Z</time></trkpt><trkpt lat="45.96707" lon="12.9390661"><ele>46.75</ele><time>2026-04-19T09:15:24.357Z</time></trkpt><trkpt lat="45.967043" lon="12.9392503"><ele>46.5</ele><time>2026-04-19T09:15:25.384Z</time></trkpt><trkpt lat="45.9670204" lon="12.9394344"><ele>46.25</ele><time>2026-04-19T09:15:26.356Z</time></trkpt><trkpt lat="45.9669927" lon="12.939625"><ele>46.0</ele><time>2026-04-19T09:15:27.373Z</time></trkpt><trkpt lat="45.9669705" lon="12.9398193"><ele>46.0</ele><time>2026-04-19T09:15:28.382Z</time></trkpt><trkpt lat="45.9669426" lon="12.9400078"><ele>46.0</ele><time>2026-04-19T09:15:29.373Z</time></trkpt><trkpt lat="45.9669129" lon="12.9401964"><ele>46.0</ele><time>2026-04-19T09:15:30.367Z</time></trkpt><trkpt lat="45.9668869" lon="12.9403929"><ele>46.0</ele><time>2026-04-19T09:15:31.374Z</time></trkpt><trkpt lat="45.9668641" lon="12.9405917"><ele>46.0</ele><time>2026-04-19T09:15:32.355Z</time></trkpt><trkpt lat="45.9668356" lon="12.9407913"><ele>46.0</ele><time>2026-04-19T09:15:33.345Z</time></trkpt><trkpt lat="45.9668057" lon="12.9409839"><ele>46.0</ele><time>2026-04-19T09:15:34.356Z</time></trkpt><trkpt lat="45.9667783" lon="12.9411842"><ele>46.0</ele><time>2026-04-19T09:15:35.378Z</time></trkpt><trkpt lat="45.9667511" lon="12.9413884"><ele>46.0</ele><time>2026-04-19T09:15:36.379Z</time></trkpt><trkpt lat="45.9667172" lon="12.9415802"><ele>46.0</ele><time>2026-04-19T09:15:37.372Z</time></trkpt><trkpt lat="45.9666869" lon="12.9417776"><ele>46.0</ele><time>2026-04-19T09:15:38.371Z</time></trkpt><trkpt lat="45.9666604" lon="12.9419758"><ele>46.0</ele><time>2026-04-19T09:15:39.36Z</time></trkpt><trkpt lat="45.9666291" lon="12.942168"><ele>45.75</ele><time>2026-04-19T09:15:40.375Z</time></trkpt><trkpt lat="45.9665968" lon="12.9423621"><ele>45.5</ele><time>2026-04-19T09:15:41.316Z</time></trkpt><trkpt lat="45.9665678" lon="12.9425591"><ele>45.25</ele><time>2026-04-19T09:15:42.385Z</time></trkpt><trkpt lat="45.9665397" lon="12.9427559"><ele>45.0</ele><time>2026-04-19T09:15:43.333Z</time></trkpt><trkpt lat="45.9665108" lon="12.9429473"><ele>45.0</ele><time>2026-04-19T09:15:44.371Z</time></trkpt><trkpt lat="45.9664783" lon="12.9431409"><ele>45.0</ele><time>2026-04-19T09:15:45.369Z</time></trkpt><trkpt lat="45.9664466" lon="12.943331"><ele>45.0</ele><time>2026-04-19T09:15:46.373Z</time></trkpt><trkpt lat="45.9664166" lon="12.9435205"><ele>45.0</ele><time>2026-04-19T09:15:47.359Z</time></trkpt><trkpt lat="45.9663904" lon="12.9437135"><ele>44.75</ele><time>2026-04-19T09:15:48.364Z</time></trkpt><trkpt lat="45.9663642" lon="12.9438986"><ele>44.5</ele><time>2026-04-19T09:15:49.389Z</time></trkpt><trkpt lat="45.9663383" lon="12.9440757"><ele>44.25</ele><time>2026-04-19T09:15:50.37Z</time></trkpt><trkpt lat="45.9663153" lon="12.9442411"><ele>44.0</ele><time>2026-04-19T09:15:51.369Z</time></trkpt><trkpt lat="45.9662948" lon="12.9443899"><ele>44.0</ele><time>2026-04-19T09:15:52.374Z</time></trkpt><trkpt lat="45.9662789" lon="12.9445156"><ele>44.0</ele><time>2026-04-19T09:15:53.365Z</time></trkpt><trkpt lat="45.9662643" lon="12.9446195"><ele>44.0</ele><time>2026-04-19T09:15:54.376Z</time></trkpt><trkpt lat="45.9662368" lon="12.9447661"><ele>44.0</ele><time>2026-04-19T09:15:56.385Z</time></trkpt><trkpt lat="45.9661745" lon="12.9448464"><ele>44.0</ele><time>2026-04-19T09:15:58.377Z</time></trkpt><trkpt lat="45.9660667" lon="12.9448482"><ele>44.0</ele><time>2026-04-19T09:16:00.35Z</time></trkpt><trkpt lat="45.9659665" lon="12.9448318"><ele>44.0</ele><time>2026-04-19T09:16:02.365Z</time></trkpt><trkpt lat="45.9659044" lon="12.9448857"><ele>44.0</ele><time>2026-04-19T09:16:04.346Z</time></trkpt><trkpt lat="45.9658651" lon="12.9449604"><ele>44.0</ele><time>2026-04-19T09:16:06.353Z</time></trkpt><trkpt lat="45.9658028" lon="12.9450467"><ele>44.0</ele><time>2026-04-19T09:16:08.327Z</time></trkpt><trkpt lat="45.9657457" lon="12.9451159"><ele>44.0</ele><time>2026-04-19T09:16:09.345Z</time></trkpt><trkpt lat="45.9657138" lon="12.9452237"><ele>44.0</ele><time>2026-04-19T09:16:10.362Z</time></trkpt><trkpt lat="45.9656857" lon="12.9453252"><ele>44.0</ele><time>2026-04-19T09:16:11.374Z</time></trkpt><trkpt lat="45.9656482" lon="12.9454232"><ele>44.0</ele><time>2026-04-19T09:16:12.388Z</time></trkpt><trkpt lat="45.9656318" lon="12.9455108"><ele>44.0</ele><time>2026-04-19T09:16:14.353Z</time></trkpt><trkpt lat="45.9656102" lon="12.9454071"><ele>44.0</ele><time>2026-04-19T09:16:20.373Z</time></trkpt><trkpt lat="45.9656195" lon="12.9453031"><ele>44.0</ele><time>2026-04-19T09:16:23.361Z</time></trkpt><trkpt lat="45.9656388" lon="12.9452035"><ele>44.0</ele><time>2026-04-19T09:16:29.329Z</time></trkpt><trkpt lat="45.96566" lon="12.9451154"><ele>44.0</ele><time>2026-04-19T09:16:33.361Z</time></trkpt><trkpt lat="45.9657093" lon="12.9450555"><ele>44.0</ele><time>2026-04-19T09:16:37.334Z</time></trkpt><trkpt lat="45.9657616" lon="12.9449744"><ele>44.0</ele><time>2026-04-19T09:16:40.34Z</time></trkpt><trkpt lat="45.9658174" lon="12.9449041"><ele>44.0</ele><time>2026-04-19T09:16:42.346Z</time></trkpt><trkpt lat="45.9658659" lon="12.9448402"><ele>44.0</ele><time>2026-04-19T09:16:45.341Z</time></trkpt><trkpt lat="45.9659067" lon="12.9447711"><ele>44.0</ele><time>2026-04-19T09:16:53.352Z</time></trkpt><trkpt lat="45.9657827" lon="12.9450203"><ele>44.0</ele><time>2026-04-19T09:16:57.416Z</time></trkpt><trkpt lat="45.9658376" lon="12.944913"><ele>44.0</ele><time>2026-04-19T09:17:00.368Z</time></trkpt><trkpt lat="45.9659128" lon="12.9447972"><ele>44.0</ele><time>2026-04-19T09:17:01.368Z</time></trkpt><trkpt lat="45.9658922" lon="12.944707"><ele>44.0</ele><time>2026-04-19T09:17:58.312Z</time></trkpt></trkseg></trk></gpx>